<?xml version='1.0' encoding='UTF-8'?><gpx version="1.1" creator="JPX - https://github.com/jenetics/jpx" xmlns="http://www.topografix.com/GPX/1/1"><trk><trkseg><trkpt lat="14.557911505406647" lon="120.99538884113167"><ele>9.0</ele><time>2026-05-02T05:18:12.8Z</time></trkpt><trkpt lat="14.558430747119395" lon="120.99541079112339"><ele>9.0</ele><time>2026-05-02T05:48:09.319Z</time></trkpt><trkpt lat="14.55827419845238" lon="120.9954158437646"><ele>9.0</ele><time>2026-05-02T05:48:10.319Z</time></trkpt><trkpt lat="14.558052593077115" lon="120.99729333593422"><ele>9.0</ele><time>2026-05-02T05:55:06.317Z</time></trkpt><trkpt lat="14.558074081987632" lon="120.99713895474638"><ele>9.0</ele><time>2026-05-02T05:55:08.317Z</time></trkpt><trkpt lat="14.558092197251604" lon="120.99703291051449"><ele>9.0</ele><time>2026-05-02T05:55:09.315Z</time></trkpt><trkpt lat="14.558100765897937" lon="120.9969269869475"><ele>9.0</ele><time>2026-05-02T05:55:11.315Z</time></trkpt><trkpt lat="14.558109717215409" lon="120.99645804925086"><ele>9.0</ele><time>2026-05-02T05:55:12.315Z</time></trkpt><trkpt lat="14.558113676857142" lon="120.99638087116067"><ele>9.0</ele><time>2026-05-02T05:55:13.315Z</time></trkpt><trkpt lat="14.558117919330469" lon="120.99629124686398"><ele>9.0</ele><time>2026-05-02T05:55:14.315Z</time></trkpt><trkpt lat="14.55816418803325" lon="120.99619491776083"><ele>9.0</ele><time>2026-05-02T05:55:24Z</time></trkpt><trkpt lat="14.558193401003692" lon="120.99609712287938"><ele>9.0</ele><time>2026-05-02T05:55:26Z</time></trkpt><trkpt lat="14.558236042660182" lon="120.99615340554918"><ele>9.0</ele><time>2026-05-02T05:55:29Z</time></trkpt><trkpt lat="14.558280949701148" lon="120.99620065268492"><ele>9.0</ele><time>2026-05-02T05:55:33Z</time></trkpt><trkpt lat="14.558365889244957" lon="120.99620077946463"><ele>9.0</ele><time>2026-05-02T05:55:39Z</time></trkpt><trkpt lat="14.558478748392398" lon="120.99617214883706"><ele>9.0</ele><time>2026-05-02T05:55:41Z</time></trkpt><trkpt lat="14.558544256718427" lon="120.9961510236731"><ele>9.0</ele><time>2026-05-02T05:55:42Z</time></trkpt><trkpt lat="14.558631022390063" lon="120.99615079075998"><ele>9.0</ele><time>2026-05-02T05:55:43Z</time></trkpt><trkpt lat="14.558704832373452" lon="120.99611880028873"><ele>9.0</ele><time>2026-05-02T05:55:44Z</time></trkpt><trkpt lat="14.558781034317418" lon="120.99610105997489"><ele>9.0</ele><time>2026-05-02T05:55:45Z</time></trkpt><trkpt lat="14.558855983157331" lon="120.996083190128"><ele>9.0</ele><time>2026-05-02T05:55:46Z</time></trkpt><trkpt lat="14.55894020217016" lon="120.9960714091525"><ele>9.0</ele><time>2026-05-02T05:55:47Z</time></trkpt><trkpt lat="14.559034299002898" lon="120.9960200601167"><ele>9.0</ele><time>2026-05-02T05:55:48Z</time></trkpt><trkpt lat="14.5591194333972" lon="120.99599629778366"><ele>9.0</ele><time>2026-05-02T05:55:49Z</time></trkpt><trkpt lat="14.559199345347144" lon="120.99597903029505"><ele>9.0</ele><time>2026-05-02T05:55:50Z</time></trkpt><trkpt lat="14.559281933156317" lon="120.995962648299"><ele>9.0</ele><time>2026-05-02T05:55:51Z</time></trkpt><trkpt lat="14.559364231279678" lon="120.99598262365433"><ele>9.0</ele><time>2026-05-02T05:55:52Z</time></trkpt><trkpt lat="14.559448713964262" lon="120.99597191383384"><ele>9.0</ele><time>2026-05-02T05:55:53Z</time></trkpt><trkpt lat="14.559532167632637" lon="120.99595338111283"><ele>9.0</ele><time>2026-05-02T05:55:54Z</time></trkpt><trkpt lat="14.559614926504736" lon="120.99593334022175"><ele>9.0</ele><time>2026-05-02T05:55:55Z</time></trkpt><trkpt lat="14.559694426058782" lon="120.99590870319471"><ele>9.0</ele><time>2026-05-02T05:55:56Z</time></trkpt><trkpt lat="14.559781710536177" lon="120.99588545670255"><ele>8.8</ele><time>2026-05-02T05:55:57Z</time></trkpt><trkpt lat="14.559846678411331" lon="120.9958520297729"><ele>8.600000000000001</ele><time>2026-05-02T05:55:58Z</time></trkpt><trkpt lat="14.559926876442532" lon="120.99583172976139"><ele>8.4</ele><time>2026-05-02T05:55:59Z</time></trkpt><trkpt lat="14.560023917712858" lon="120.99582709693472"><ele>8.200000000000001</ele><time>2026-05-02T05:56:00Z</time></trkpt><trkpt lat="14.560115087936826" lon="120.99581790741958"><ele>8.0</ele><time>2026-05-02T05:56:01Z</time></trkpt><trkpt lat="14.560256000528565" lon="120.99579186201859"><ele>7.833333333333333</ele><time>2026-05-02T05:56:03Z</time></trkpt><trkpt lat="14.560392904910858" lon="120.99576364566404"><ele>7.666666666666666</ele><time>2026-05-02T05:56:05Z</time></trkpt><trkpt lat="14.56046951914381" lon="120.99574723961686"><ele>7.5</ele><time>2026-05-02T05:56:06Z</time></trkpt><trkpt lat="14.560537803791041" lon="120.99573264763853"><ele>7.333333333333334</ele><time>2026-05-02T05:56:07Z</time></trkpt><trkpt lat="14.560605518918955" lon="120.99571461552911"><ele>7.166666666666667</ele><time>2026-05-02T05:56:08Z</time></trkpt><trkpt lat="14.5606752084608" lon="120.9956998117989"><ele>7.0</ele><time>2026-05-02T05:56:09Z</time></trkpt><trkpt lat="14.560741601349692" lon="120.99568256161652"><ele>7.0</ele><time>2026-05-02T05:56:10Z</time></trkpt><trkpt lat="14.5608058016632" lon="120.99565960291854"><ele>6.999999999999999</ele><time>2026-05-02T05:56:11Z</time></trkpt><trkpt lat="14.56086883416753" lon="120.99564662202285"><ele>6.999999999999999</ele><time>2026-05-02T05:56:12Z</time></trkpt><trkpt lat="14.560985776461445" lon="120.99562050546074"><ele>7.0</ele><time>2026-05-02T05:56:14Z</time></trkpt><trkpt lat="14.561090541479986" lon="120.99559210869437"><ele>7.0</ele><time>2026-05-02T05:56:16Z</time></trkpt><trkpt lat="14.561193261648201" lon="120.99556687412282"><ele>7.3999999999999995</ele><time>2026-05-02T05:56:18Z</time></trkpt><trkpt lat="14.56129382801537" lon="120.99553999931341"><ele>7.799999999999999</ele><time>2026-05-02T05:56:20Z</time></trkpt><trkpt lat="14.561404082347384" lon="120.99551356463238"><ele>8.2</ele><time>2026-05-02T05:56:22Z</time></trkpt><trkpt lat="14.561520443229837" lon="120.99548314662437"><ele>8.6</ele><time>2026-05-02T05:56:24Z</time></trkpt><trkpt lat="14.56158465740667" lon="120.99546987384872"><ele>9.0</ele><time>2026-05-02T05:56:25Z</time></trkpt><trkpt lat="14.56165881361557" lon="120.99545425686085"><ele>9.0</ele><time>2026-05-02T05:56:26Z</time></trkpt><trkpt lat="14.561755175991586" lon="120.99543239465787"><ele>9.0</ele><time>2026-05-02T05:56:28Z</time></trkpt><trkpt lat="14.561882527362991" lon="120.9954069321916"><ele>9.0</ele><time>2026-05-02T05:56:30Z</time></trkpt><trkpt lat="14.56196218212957" lon="120.99538630006361"><ele>9.0</ele><time>2026-05-02T05:56:31Z</time></trkpt><trkpt lat="14.562078880503336" lon="120.9953513821727"><ele>9.0</ele><time>2026-05-02T05:56:33Z</time></trkpt><trkpt lat="14.562210095841454" lon="120.99531701353561"><ele>9.25</ele><time>2026-05-02T05:56:35Z</time></trkpt><trkpt lat="14.56228384694486" lon="120.99529858182346"><ele>9.5</ele><time>2026-05-02T05:56:50Z</time></trkpt><trkpt lat="14.562346633074737" lon="120.99527988807478"><ele>9.75</ele><time>2026-05-02T05:56:53Z</time></trkpt><trkpt lat="14.56242380286804" lon="120.99526025149983"><ele>10.0</ele><time>2026-05-02T05:56:57Z</time></trkpt><trkpt lat="14.562641173668684" lon="120.99534942109324"><ele>10.0</ele><time>2026-05-02T05:57:04.001Z</time></trkpt><trkpt lat="14.562712376184907" lon="120.99538576806262"><ele>10.0</ele><time>2026-05-02T05:57:06.001Z</time></trkpt><trkpt lat="14.562754406529477" lon="120.99548531428681"><ele>10.0</ele><time>2026-05-02T05:57:08.001Z</time></trkpt><trkpt lat="14.562788717422235" lon="120.99554652716132"><ele>10.0</ele><time>2026-05-02T05:57:09.001Z</time></trkpt><trkpt lat="14.562836279288572" lon="120.99566160475115"><ele>10.0</ele><time>2026-05-02T05:57:11.001Z</time></trkpt><trkpt lat="14.562887773856565" lon="120.99577134210169"><ele>9.833333333333334</ele><time>2026-05-02T05:57:13.001Z</time></trkpt><trkpt lat="14.56292999483799" lon="120.99587756001974"><ele>9.666666666666668</ele><time>2026-05-02T05:57:15Z</time></trkpt><trkpt lat="14.562987482407927" lon="120.9959814752914"><ele>9.5</ele><time>2026-05-02T05:57:17Z</time></trkpt><trkpt lat="14.563019913476243" lon="120.99604001292073"><ele>9.333333333333334</ele><time>2026-05-02T05:57:18Z</time></trkpt><trkpt lat="14.563045731688982" lon="120.99610199869088"><ele>9.166666666666666</ele><time>2026-05-02T05:57:19Z</time></trkpt><trkpt lat="14.56307327604456" lon="120.99616704136926"><ele>9.0</ele><time>2026-05-02T05:57:20Z</time></trkpt><trkpt lat="14.563102297599091" lon="120.99622883168423"><ele>9.000000000000002</ele><time>2026-05-02T05:57:21Z</time></trkpt><trkpt lat="14.563131846770439" lon="120.99629472104867"><ele>9.0</ele><time>2026-05-02T05:57:22Z</time></trkpt><trkpt lat="14.563158154954449" lon="120.99636067433605"><ele>9.0</ele><time>2026-05-02T05:57:23Z</time></trkpt><trkpt lat="14.563191865807507" lon="120.99643071602632"><ele>9.0</ele><time>2026-05-02T05:57:24Z</time></trkpt><trkpt lat="14.563218392572756" lon="120.99650288231945"><ele>9.0</ele><time>2026-05-02T05:57:25Z</time></trkpt><trkpt lat="14.563247547079115" lon="120.99657122213799"><ele>9.000000000000002</ele><time>2026-05-02T05:57:26Z</time></trkpt><trkpt lat="14.563276603282475" lon="120.99663553187557"><ele>9.0</ele><time>2026-05-02T05:57:27Z</time></trkpt><trkpt lat="14.563303962184838" lon="120.99670048397522"><ele>8.666666666666666</ele><time>2026-05-02T05:57:28Z</time></trkpt><trkpt lat="14.563331195495243" lon="120.99676394802638"><ele>8.333333333333334</ele><time>2026-05-02T05:57:29Z</time></trkpt><trkpt lat="14.563360477330233" lon="120.99682524606499"><ele>8.0</ele><time>2026-05-02T05:57:30Z</time></trkpt><trkpt lat="14.563387401925182" lon="120.99688744454517"><ele>7.666666666666667</ele><time>2026-05-02T05:57:31Z</time></trkpt><trkpt lat="14.563435612999358" lon="120.99699352600572"><ele>7.333333333333334</ele><time>2026-05-02T05:57:33Z</time></trkpt><trkpt lat="14.563484553489847" lon="120.99708125601461"><ele>7.0</ele><time>2026-05-02T05:57:35Z</time></trkpt><trkpt lat="14.563520627480413" lon="120.99716144813074"><ele>7.000000000000001</ele><time>2026-05-02T05:57:37Z</time></trkpt><trkpt lat="14.563544374978612" lon="120.99722721178749"><ele>7.0</ele><time>2026-05-02T05:57:39Z</time></trkpt><trkpt lat="14.563571492015104" lon="120.99729047862667"><ele>7.0</ele><time>2026-05-02T05:57:41Z</time></trkpt><trkpt lat="14.563595974744887" lon="120.99735125407298"><ele>7.0</ele><time>2026-05-02T05:57:43Z</time></trkpt><trkpt lat="14.563625018187711" lon="120.99743098961821"><ele>7.000000000000001</ele><time>2026-05-02T05:57:45Z</time></trkpt><trkpt lat="14.563668008953268" lon="120.99750921287757"><ele>7.0</ele><time>2026-05-02T05:57:47Z</time></trkpt><trkpt lat="14.563703108762292" lon="120.99758588001734"><ele>7.0</ele><time>2026-05-02T05:57:49Z</time></trkpt><trkpt lat="14.563739479013046" lon="120.99766052765365"><ele>7.0</ele><time>2026-05-02T05:57:51Z</time></trkpt><trkpt lat="14.563776676578502" lon="120.9977254853148"><ele>7.0</ele><time>2026-05-02T05:57:53Z</time></trkpt><trkpt lat="14.563803162895146" lon="120.99779273596484"><ele>7.0</ele><time>2026-05-02T05:57:55Z</time></trkpt><trkpt lat="14.563830580322174" lon="120.99786138579435"><ele>7.0</ele><time>2026-05-02T05:57:57Z</time></trkpt><trkpt lat="14.563862229220115" lon="120.9979256698987"><ele>7.0</ele><time>2026-05-02T05:57:59Z</time></trkpt><trkpt lat="14.563897131595088" lon="120.99799242460543"><ele>7.0</ele><time>2026-05-02T05:58:01Z</time></trkpt><trkpt lat="14.563938384828415" lon="120.99806795734769"><ele>7.000000000000001</ele><time>2026-05-02T05:58:03Z</time></trkpt><trkpt lat="14.56397753521027" lon="120.99814266837122"><ele>7.0</ele><time>2026-05-02T05:58:05Z</time></trkpt><trkpt lat="14.563994475932928" lon="120.99821519091742"><ele>7.0</ele><time>2026-05-02T05:58:07Z</time></trkpt><trkpt lat="14.563948337359044" lon="120.99830133488776"><ele>7.0</ele><time>2026-05-02T05:58:10.001Z</time></trkpt><trkpt lat="14.56387194906008" lon="120.99832007505898"><ele>7.000000000000001</ele><time>2026-05-02T05:58:12.001Z</time></trkpt><trkpt lat="14.563767512241373" lon="120.99834196297205"><ele>7.0</ele><time>2026-05-02T05:58:14.001Z</time></trkpt><trkpt lat="14.563705588940659" lon="120.99835519638145"><ele>7.000000000000001</ele><time>2026-05-02T05:58:15.001Z</time></trkpt><trkpt lat="14.563585202256663" lon="120.99839473707534"><ele>7.0</ele><time>2026-05-02T05:58:17.001Z</time></trkpt><trkpt lat="14.563521919058035" lon="120.99841488506493"><ele>7.0</ele><time>2026-05-02T05:58:18.001Z</time></trkpt><trkpt lat="14.56345663334634" lon="120.99843445872862"><ele>7.0</ele><time>2026-05-02T05:58:19.001Z</time></trkpt><trkpt lat="14.563392278845276" lon="120.99845511819788"><ele>7.000000000000001</ele><time>2026-05-02T05:58:20.001Z</time></trkpt><trkpt lat="14.563326016287391" lon="120.99847491041632"><ele>7.0</ele><time>2026-05-02T05:58:21.001Z</time></trkpt><trkpt lat="14.56325463911473" lon="120.99849370434562"><ele>7.000000000000001</ele><time>2026-05-02T05:58:22.001Z</time></trkpt><trkpt lat="14.563186301904302" lon="120.9985134271586"><ele>7.0</ele><time>2026-05-02T05:58:23.001Z</time></trkpt><trkpt lat="14.563116972012319" lon="120.99853314139783"><ele>7.0</ele><time>2026-05-02T05:58:24.001Z</time></trkpt><trkpt lat="14.563042349597426" lon="120.99855661842736"><ele>7.0</ele><time>2026-05-02T05:58:25.001Z</time></trkpt><trkpt lat="14.562967313083927" lon="120.99858186414947"><ele>7.000000000000001</ele><time>2026-05-02T05:58:26.001Z</time></trkpt><trkpt lat="14.562885717225544" lon="120.99861462574312"><ele>7.0</ele><time>2026-05-02T05:58:27.001Z</time></trkpt><trkpt lat="14.562805547589482" lon="120.99864419786293"><ele>7.333333333333334</ele><time>2026-05-02T05:58:28.001Z</time></trkpt><trkpt lat="14.562723406981842" lon="120.9986728431212"><ele>7.666666666666667</ele><time>2026-05-02T05:58:29.001Z</time></trkpt><trkpt lat="14.562640869000727" lon="120.99870137362025"><ele>8.0</ele><time>2026-05-02T05:58:30.001Z</time></trkpt><trkpt lat="14.562561021491842" lon="120.99872981086638"><ele>8.333333333333334</ele><time>2026-05-02T05:58:31.001Z</time></trkpt><trkpt lat="14.562484176675298" lon="120.99875913176452"><ele>8.666666666666666</ele><time>2026-05-02T05:58:32.001Z</time></trkpt><trkpt lat="14.562406675894085" lon="120.99878654719312"><ele>9.0</ele><time>2026-05-02T05:58:33.001Z</time></trkpt><trkpt lat="14.562339724058562" lon="120.9988125003774"><ele>9.0</ele><time>2026-05-02T05:58:34.001Z</time></trkpt><trkpt lat="14.562277445825893" lon="120.99883639214374"><ele>9.0</ele><time>2026-05-02T05:58:35.001Z</time></trkpt><trkpt lat="14.562218610289605" lon="120.99886216503194"><ele>9.0</ele><time>2026-05-02T05:58:36.001Z</time></trkpt><trkpt lat="14.562121445326847" lon="120.99890615765293"><ele>9.0</ele><time>2026-05-02T05:58:38.001Z</time></trkpt><trkpt lat="14.562053221900905" lon="120.9989360113286"><ele>9.0</ele><time>2026-05-02T05:58:40.001Z</time></trkpt><trkpt lat="14.561985682795502" lon="120.99897447749024"><ele>9.0</ele><time>2026-05-02T05:58:43.001Z</time></trkpt><trkpt lat="14.561979909191686" lon="120.99906355419485"><ele>9.0</ele><time>2026-05-02T05:58:47.001Z</time></trkpt><trkpt lat="14.562049214085487" lon="120.99914309188703"><ele>9.0</ele><time>2026-05-02T05:58:49.001Z</time></trkpt><trkpt lat="14.562130813881382" lon="120.99922545342595"><ele>9.0</ele><time>2026-05-02T05:58:51.001Z</time></trkpt><trkpt lat="14.562177156961374" lon="120.9992706247049"><ele>9.0</ele><time>2026-05-02T05:58:52.001Z</time></trkpt><trkpt lat="14.562226677132632" lon="120.99931790604909"><ele>9.0</ele><time>2026-05-02T05:58:53.001Z</time></trkpt><trkpt lat="14.56227740772679" lon="120.99936693029395"><ele>9.0</ele><time>2026-05-02T05:58:54.001Z</time></trkpt><trkpt lat="14.562326396638712" lon="120.9994158505116"><ele>8.833333333333334</ele><time>2026-05-02T05:58:55.001Z</time></trkpt><trkpt lat="14.56237366033105" lon="120.99946335813017"><ele>8.666666666666666</ele><time>2026-05-02T05:58:56.001Z</time></trkpt><trkpt lat="14.562458626829375" lon="120.99954765024948"><ele>8.5</ele><time>2026-05-02T05:58:58.001Z</time></trkpt><trkpt lat="14.562524543591781" lon="120.9996144314346"><ele>8.333333333333332</ele><time>2026-05-02T05:59:00.001Z</time></trkpt><trkpt lat="14.562567729836942" lon="120.99966370851647"><ele>8.166666666666666</ele><time>2026-05-02T05:59:02.001Z</time></trkpt><trkpt lat="14.562607487169046" lon="120.99972588680713"><ele>8.0</ele><time>2026-05-02T05:59:05.001Z</time></trkpt><trkpt lat="14.56266012453867" lon="120.99979935590343"><ele>7.999999999999999</ele><time>2026-05-02T05:59:07.001Z</time></trkpt><trkpt lat="14.562750169729254" lon="120.99987339916537"><ele>8.0</ele><time>2026-05-02T05:59:09.001Z</time></trkpt><trkpt lat="14.562798026247057" lon="120.99992098065077"><ele>8.0</ele><time>2026-05-02T05:59:10.001Z</time></trkpt><trkpt lat="14.562847160066045" lon="120.99996983251194"><ele>8.0</ele><time>2026-05-02T05:59:11.001Z</time></trkpt><trkpt lat="14.56288671222726" lon="121.00003544551176"><ele>7.999999999999999</ele><time>2026-05-02T05:59:12.001Z</time></trkpt><trkpt lat="14.562940506563821" lon="121.00008950170232"><ele>8.0</ele><time>2026-05-02T05:59:13.001Z</time></trkpt><trkpt lat="14.562999574216775" lon="121.00014939551536"><ele>7.833333333333333</ele><time>2026-05-02T05:59:14.001Z</time></trkpt><trkpt lat="14.563059000673492" lon="121.00020874569127"><ele>7.666666666666666</ele><time>2026-05-02T05:59:15.001Z</time></trkpt><trkpt lat="14.56311743849374" lon="121.0002662198429"><ele>7.5</ele><time>2026-05-02T05:59:16.001Z</time></trkpt><trkpt lat="14.56317429202095" lon="121.00032164758618"><ele>7.333333333333334</ele><time>2026-05-02T05:59:17.001Z</time></trkpt><trkpt lat="14.56322473070581" lon="121.00037438923479"><ele>7.166666666666667</ele><time>2026-05-02T05:59:18.001Z</time></trkpt><trkpt lat="14.563269349179944" lon="121.00042543603102"><ele>7.0</ele><time>2026-05-02T05:59:19.001Z</time></trkpt><trkpt lat="14.56332070523697" lon="121.00047900141264"><ele>7.0</ele><time>2026-05-02T05:59:20.001Z</time></trkpt><trkpt lat="14.563373407674847" lon="121.00053004345469"><ele>7.0</ele><time>2026-05-02T05:59:21Z</time></trkpt><trkpt lat="14.563425884579345" lon="121.00058170038673"><ele>7.0</ele><time>2026-05-02T05:59:22Z</time></trkpt><trkpt lat="14.563477309717847" lon="121.00063428122176"><ele>7.0</ele><time>2026-05-02T05:59:23Z</time></trkpt><trkpt lat="14.563530999661134" lon="121.0006880705132"><ele>7.0</ele><time>2026-05-02T05:59:24Z</time></trkpt><trkpt lat="14.563587330757935" lon="121.00074287469043"><ele>7.0</ele><time>2026-05-02T05:59:25Z</time></trkpt><trkpt lat="14.563643899092222" lon="121.00080157331655"><ele>7.0</ele><time>2026-05-02T05:59:26Z</time></trkpt><trkpt lat="14.563697646169501" lon="121.00085333671952"><ele>7.142857142857142</ele><time>2026-05-02T05:59:27Z</time></trkpt><trkpt lat="14.563749454443158" lon="121.00090590947704"><ele>7.285714285714286</ele><time>2026-05-02T05:59:28Z</time></trkpt><trkpt lat="14.563799806812423" lon="121.00095590628007"><ele>7.428571428571429</ele><time>2026-05-02T05:59:29Z</time></trkpt><trkpt lat="14.563850048001143" lon="121.00100376039418"><ele>7.571428571428571</ele><time>2026-05-02T05:59:30Z</time></trkpt><trkpt lat="14.56389997311646" lon="121.0010499447419"><ele>7.7142857142857135</ele><time>2026-05-02T05:59:31Z</time></trkpt><trkpt lat="14.563953366828569" lon="121.00109771919236"><ele>7.857142857142857</ele><time>2026-05-02T05:59:32Z</time></trkpt><trkpt lat="14.56400622794487" lon="121.00114765130911"><ele>8.0</ele><time>2026-05-02T05:59:33Z</time></trkpt><trkpt lat="14.564059613866911" lon="121.00120025511411"><ele>7.999999999999999</ele><time>2026-05-02T05:59:34Z</time></trkpt><trkpt lat="14.564113762588939" lon="121.00125759127943"><ele>8.0</ele><time>2026-05-02T05:59:35Z</time></trkpt><trkpt lat="14.564168481368723" lon="121.00132031241844"><ele>8.0</ele><time>2026-05-02T05:59:36Z</time></trkpt><trkpt lat="14.564227020907625" lon="121.00138045270714"><ele>8.0</ele><time>2026-05-02T05:59:37Z</time></trkpt><trkpt lat="14.564288022513907" lon="121.00143671396216"><ele>7.999999999999999</ele><time>2026-05-02T05:59:38Z</time></trkpt><trkpt lat="14.564339660346153" lon="121.00149931249184"><ele>8.0</ele><time>2026-05-02T05:59:39Z</time></trkpt><trkpt lat="14.564395591649937" lon="121.00155471526988"><ele>7.999999999999999</ele><time>2026-05-02T05:59:40Z</time></trkpt><trkpt lat="14.564451585145733" lon="121.00161099032034"><ele>8.0</ele><time>2026-05-02T05:59:41Z</time></trkpt><trkpt lat="14.564507640000151" lon="121.00166579440352"><ele>8.0</ele><time>2026-05-02T05:59:42Z</time></trkpt><trkpt lat="14.56456136659386" lon="121.00172088387369"><ele>8.0</ele><time>2026-05-02T05:59:43Z</time></trkpt><trkpt lat="14.564616506324601" lon="121.00177669704587"><ele>7.999999999999999</ele><time>2026-05-02T05:59:44Z</time></trkpt><trkpt lat="14.564673252786863" lon="121.00182719510846"><ele>8.0</ele><time>2026-05-02T05:59:45Z</time></trkpt><trkpt lat="14.564726681424847" lon="121.00187980156467"><ele>7.666666666666666</ele><time>2026-05-02T05:59:46Z</time></trkpt><trkpt lat="14.564772871749781" lon="121.00192771832658"><ele>7.333333333333333</ele><time>2026-05-02T05:59:47Z</time></trkpt><trkpt lat="14.564817268458569" lon="121.0019749663225"><ele>7.0</ele><time>2026-05-02T05:59:48Z</time></trkpt><trkpt lat="14.564906215837043" lon="121.00206288463684"><ele>6.666666666666666</ele><time>2026-05-02T05:59:50Z</time></trkpt><trkpt lat="14.56495743782709" lon="121.00211384444148"><ele>6.333333333333333</ele><time>2026-05-02T05:59:51Z</time></trkpt><trkpt lat="14.565013206359184" lon="121.00217135844255"><ele>6.0</ele><time>2026-05-02T05:59:52Z</time></trkpt><trkpt lat="14.565082650630352" lon="121.00221713043099"><ele>6.0</ele><time>2026-05-02T05:59:53Z</time></trkpt><trkpt lat="14.565142326264851" lon="121.00227601844708"><ele>6.0</ele><time>2026-05-02T05:59:54Z</time></trkpt><trkpt lat="14.565196025659954" lon="121.00233792521533"><ele>6.0</ele><time>2026-05-02T05:59:55Z</time></trkpt><trkpt lat="14.56526219832435" lon="121.00238653324554"><ele>6.0</ele><time>2026-05-02T05:59:56Z</time></trkpt><trkpt lat="14.565326634913315" lon="121.00244372638909"><ele>6.0</ele><time>2026-05-02T05:59:57Z</time></trkpt><trkpt lat="14.565387475423965" lon="121.00250135376291"><ele>6.0</ele><time>2026-05-02T05:59:58Z</time></trkpt><trkpt lat="14.56544813791694" lon="121.00255829683262"><ele>6.333333333333333</ele><time>2026-05-02T05:59:59Z</time></trkpt><trkpt lat="14.565504800062522" lon="121.00261401521209"><ele>6.666666666666666</ele><time>2026-05-02T06:00:00Z</time></trkpt><trkpt lat="14.56555867600789" lon="121.00267189627884"><ele>7.0</ele><time>2026-05-02T06:00:01Z</time></trkpt><trkpt lat="14.565609101374141" lon="121.00272612735745"><ele>7.333333333333333</ele><time>2026-05-02T06:00:02Z</time></trkpt><trkpt lat="14.56569819530476" lon="121.00279802031858"><ele>7.666666666666666</ele><time>2026-05-02T06:00:04Z</time></trkpt><trkpt lat="14.565761739196516" lon="121.00285626428409"><ele>8.0</ele><time>2026-05-02T06:00:06Z</time></trkpt><trkpt lat="14.565766601242801" lon="121.0029238492504"><ele>7.999999999999999</ele><time>2026-05-02T06:00:07Z</time></trkpt><trkpt lat="14.565775283622369" lon="121.0030012066793"><ele>8.0</ele><time>2026-05-02T06:00:10Z</time></trkpt><trkpt lat="14.565738704825504" lon="121.00310379161036"><ele>8.0</ele><time>2026-05-02T06:00:11Z</time></trkpt><trkpt lat="14.565649646241827" lon="121.0031599031374"><ele>8.0</ele><time>2026-05-02T06:00:13Z</time></trkpt><trkpt lat="14.565591210707211" lon="121.00319672056766"><ele>7.999999999999999</ele><time>2026-05-02T06:00:14Z</time></trkpt><trkpt lat="14.565525922171696" lon="121.00323785573168"><ele>8.0</ele><time>2026-05-02T06:00:15Z</time></trkpt><trkpt lat="14.565470072940851" lon="121.00329042969904"><ele>7.6000000000000005</ele><time>2026-05-02T06:00:16Z</time></trkpt><trkpt lat="14.56540119930662" lon="121.00334499959446"><ele>7.200000000000001</ele><time>2026-05-02T06:00:17Z</time></trkpt><trkpt lat="14.565329145678303" lon="121.00340193489562"><ele>6.8</ele><time>2026-05-02T06:00:18.001Z</time></trkpt><trkpt lat="14.565252410485531" lon="121.00346059364304"><ele>6.4</ele><time>2026-05-02T06:00:19.001Z</time></trkpt><trkpt lat="14.56516853757269" lon="121.00352263473084"><ele>6.0</ele><time>2026-05-02T06:00:20.001Z</time></trkpt><trkpt lat="14.56507956394988" lon="121.00358716883078"><ele>6.0</ele><time>2026-05-02T06:00:21.001Z</time></trkpt><trkpt lat="14.564985482310709" lon="121.00364873355522"><ele>6.0</ele><time>2026-05-02T06:00:22.001Z</time></trkpt><trkpt lat="14.564888696544436" lon="121.00370820437588"><ele>6.0</ele><time>2026-05-02T06:00:23.001Z</time></trkpt><trkpt lat="14.564774939579848" lon="121.00373173526943"><ele>6.0</ele><time>2026-05-02T06:00:24.001Z</time></trkpt><trkpt lat="14.564679836804887" lon="121.00378358176121"><ele>6.0</ele><time>2026-05-02T06:00:25.001Z</time></trkpt><trkpt lat="14.56458759142856" lon="121.00380679675665"><ele>6.0</ele><time>2026-05-02T06:00:26.001Z</time></trkpt><trkpt lat="14.56450933443751" lon="121.0038391562005"><ele>6.0</ele><time>2026-05-02T06:00:27.001Z</time></trkpt><trkpt lat="14.564414627989567" lon="121.00388849871635"><ele>6.0</ele><time>2026-05-02T06:00:28.001Z</time></trkpt><trkpt lat="14.564320005095706" lon="121.00393783757819"><ele>6.0</ele><time>2026-05-02T06:00:29.001Z</time></trkpt><trkpt lat="14.564217793067215" lon="121.0039915755138"><ele>6.0</ele><time>2026-05-02T06:00:30.001Z</time></trkpt><trkpt lat="14.564101321187522" lon="121.00405591274696"><ele>6.0</ele><time>2026-05-02T06:00:31.001Z</time></trkpt><trkpt lat="14.563998914028403" lon="121.00411128281806"><ele>6.0</ele><time>2026-05-02T06:00:32.001Z</time></trkpt><trkpt lat="14.563902177707892" lon="121.0041628214478"><ele>6.0</ele><time>2026-05-02T06:00:33.001Z</time></trkpt><trkpt lat="14.563789155905068" lon="121.00422080901777"><ele>6.0</ele><time>2026-05-02T06:00:34.001Z</time></trkpt><trkpt lat="14.563680222146653" lon="121.00427474666789"><ele>6.25</ele><time>2026-05-02T06:00:35.001Z</time></trkpt><trkpt lat="14.563568894227933" lon="121.00432765269976"><ele>6.5</ele><time>2026-05-02T06:00:36.001Z</time></trkpt><trkpt lat="14.56345769842602" lon="121.00437961329223"><ele>6.75</ele><time>2026-05-02T06:00:37.001Z</time></trkpt><trkpt lat="14.563343753354786" lon="121.00443460587702"><ele>7.0</ele><time>2026-05-02T06:00:38.001Z</time></trkpt><trkpt lat="14.563229615614983" lon="121.00448583896822"><ele>7.0</ele><time>2026-05-02T06:00:39.001Z</time></trkpt><trkpt lat="14.563117376779557" lon="121.00453372525156"><ele>7.0</ele><time>2026-05-02T06:00:40.001Z</time></trkpt><trkpt lat="14.563001726820543" lon="121.00457899786062"><ele>7.0</ele><time>2026-05-02T06:00:41.001Z</time></trkpt><trkpt lat="14.562883366258518" lon="121.00462890883384"><ele>7.0</ele><time>2026-05-02T06:00:42.001Z</time></trkpt><trkpt lat="14.562759388276165" lon="121.00468890568925"><ele>6.5</ele><time>2026-05-02T06:00:43.001Z</time></trkpt><trkpt lat="14.562635627902399" lon="121.00474400137632"><ele>6.0</ele><time>2026-05-02T06:00:44.001Z</time></trkpt><trkpt lat="14.562524139184763" lon="121.00480166903716"><ele>5.5</ele><time>2026-05-02T06:00:45.001Z</time></trkpt><trkpt lat="14.562398928869612" lon="121.00486286556848"><ele>5.0</ele><time>2026-05-02T06:00:46.001Z</time></trkpt><trkpt lat="14.56228828333524" lon="121.00492154768004"><ele>5.0</ele><time>2026-05-02T06:00:47.001Z</time></trkpt><trkpt lat="14.562200430032641" lon="121.00498555159334"><ele>5.0</ele><time>2026-05-02T06:00:48.001Z</time></trkpt><trkpt lat="14.562078897887769" lon="121.00505674232853"><ele>5.0</ele><time>2026-05-02T06:00:49.001Z</time></trkpt><trkpt lat="14.561958554799167" lon="121.00512707997683"><ele>5.0</ele><time>2026-05-02T06:00:50.001Z</time></trkpt><trkpt lat="14.561821058176468" lon="121.00520176287365"><ele>5.25</ele><time>2026-05-02T06:00:51.001Z</time></trkpt><trkpt lat="14.561699650287531" lon="121.00527304397338"><ele>5.5</ele><time>2026-05-02T06:00:52.001Z</time></trkpt><trkpt lat="14.56158061517172" lon="121.00534010913924"><ele>5.75</ele><time>2026-05-02T06:00:53.001Z</time></trkpt><trkpt lat="14.56146434947788" lon="121.00540421342652"><ele>6.0</ele><time>2026-05-02T06:00:54.001Z</time></trkpt><trkpt lat="14.561342088504746" lon="121.005467123813"><ele>6.0</ele><time>2026-05-02T06:00:55.001Z</time></trkpt><trkpt lat="14.561229791236427" lon="121.00551985011394"><ele>6.0</ele><time>2026-05-02T06:00:56.001Z</time></trkpt><trkpt lat="14.561102245324694" lon="121.00558571384586"><ele>6.0</ele><time>2026-05-02T06:00:57.001Z</time></trkpt><trkpt lat="14.560977613299839" lon="121.00564717675421"><ele>6.0</ele><time>2026-05-02T06:00:58.001Z</time></trkpt><trkpt lat="14.56085541521796" lon="121.00570654401426"><ele>6.25</ele><time>2026-05-02T06:00:59.001Z</time></trkpt><trkpt lat="14.56074089891296" lon="121.00576120427979"><ele>6.5</ele><time>2026-05-02T06:01:00.001Z</time></trkpt><trkpt lat="14.560625579523277" lon="121.00583347602885"><ele>6.75</ele><time>2026-05-02T06:01:01.001Z</time></trkpt><trkpt lat="14.56050702739957" lon="121.00589483875478"><ele>7.0</ele><time>2026-05-02T06:01:02.001Z</time></trkpt><trkpt lat="14.560383723091599" lon="121.00595881577935"><ele>6.75</ele><time>2026-05-02T06:01:03.001Z</time></trkpt><trkpt lat="14.560280673197191" lon="121.00601432123223"><ele>6.5</ele><time>2026-05-02T06:01:04.001Z</time></trkpt><trkpt lat="14.560172218830466" lon="121.00607325262253"><ele>6.25</ele><time>2026-05-02T06:01:05.001Z</time></trkpt><trkpt lat="14.560060034446416" lon="121.0061358117795"><ele>6.0</ele><time>2026-05-02T06:01:06.001Z</time></trkpt><trkpt lat="14.559969300649716" lon="121.00618281215822"><ele>6.0</ele><time>2026-05-02T06:01:07.001Z</time></trkpt><trkpt lat="14.559861690377625" lon="121.00624274755786"><ele>6.0</ele><time>2026-05-02T06:01:08.001Z</time></trkpt><trkpt lat="14.559763843303983" lon="121.00630026863548"><ele>6.0</ele><time>2026-05-02T06:01:09.001Z</time></trkpt><trkpt lat="14.559660036737373" lon="121.00636964634825"><ele>6.0</ele><time>2026-05-02T06:01:10.001Z</time></trkpt><trkpt lat="14.559558937036458" lon="121.00643285019254"><ele>6.25</ele><time>2026-05-02T06:01:11.001Z</time></trkpt><trkpt lat="14.559444928678536" lon="121.00649875139383"><ele>6.5</ele><time>2026-05-02T06:01:12.001Z</time></trkpt><trkpt lat="14.55931985317559" lon="121.0065688311918"><ele>6.75</ele><time>2026-05-02T06:01:13.001Z</time></trkpt><trkpt lat="14.559211147396965" lon="121.00663104008824"><ele>7.0</ele><time>2026-05-02T06:01:14.001Z</time></trkpt><trkpt lat="14.55910779824731" lon="121.00668554990435"><ele>7.0</ele><time>2026-05-02T06:01:15.001Z</time></trkpt><trkpt lat="14.559003484457937" lon="121.00673873035898"><ele>7.0</ele><time>2026-05-02T06:01:16.001Z</time></trkpt><trkpt lat="14.558881177394598" lon="121.00680450399959"><ele>7.0</ele><time>2026-05-02T06:01:17.001Z</time></trkpt><trkpt lat="14.558758528870015" lon="121.0068722974556"><ele>7.0</ele><time>2026-05-02T06:01:18.001Z</time></trkpt><trkpt lat="14.558635173955789" lon="121.00693919062554"><ele>7.5</ele><time>2026-05-02T06:01:19.001Z</time></trkpt><trkpt lat="14.558513959960168" lon="121.00700870265916"><ele>8.0</ele><time>2026-05-02T06:01:20.001Z</time></trkpt><trkpt lat="14.558390381412094" lon="121.00707663732858"><ele>8.5</ele><time>2026-05-02T06:01:21.001Z</time></trkpt><trkpt lat="14.558265194227843" lon="121.00714454126984"><ele>9.0</ele><time>2026-05-02T06:01:22.001Z</time></trkpt><trkpt lat="14.558151460779143" lon="121.00720907939116"><ele>9.0</ele><time>2026-05-02T06:01:23.001Z</time></trkpt><trkpt lat="14.558034754272033" lon="121.00727675767071"><ele>9.0</ele><time>2026-05-02T06:01:24.001Z</time></trkpt><trkpt lat="14.557921409611575" lon="121.00733745411964"><ele>9.0</ele><time>2026-05-02T06:01:25.001Z</time></trkpt><trkpt lat="14.557803990416389" lon="121.00740028393366"><ele>9.0</ele><time>2026-05-02T06:01:26.001Z</time></trkpt><trkpt lat="14.55766984529551" lon="121.00747308975735"><ele>8.5</ele><time>2026-05-02T06:01:27Z</time></trkpt><trkpt lat="14.557549684955644" lon="121.00753329626058"><ele>8.0</ele><time>2026-05-02T06:01:28Z</time></trkpt><trkpt lat="14.557435275322883" lon="121.00760315808513"><ele>7.5</ele><time>2026-05-02T06:01:29Z</time></trkpt><trkpt lat="14.557328229449418" lon="121.00766114065878"><ele>7.0</ele><time>2026-05-02T06:01:30Z</time></trkpt><trkpt lat="14.557217297637289" lon="121.00773382009231"><ele>7.0</ele><time>2026-05-02T06:01:31Z</time></trkpt><trkpt lat="14.55709638204971" lon="121.00780502748617"><ele>7.0</ele><time>2026-05-02T06:01:32Z</time></trkpt><trkpt lat="14.55697669160677" lon="121.00787216751303"><ele>7.0</ele><time>2026-05-02T06:01:33Z</time></trkpt><trkpt lat="14.55685579251308" lon="121.00794072113523"><ele>7.0</ele><time>2026-05-02T06:01:34Z</time></trkpt><trkpt lat="14.556735178359661" lon="121.00800496430668"><ele>6.333333333333334</ele><time>2026-05-02T06:01:35Z</time></trkpt><trkpt lat="14.556606925014302" lon="121.00807876430888"><ele>5.666666666666667</ele><time>2026-05-02T06:01:36Z</time></trkpt><trkpt lat="14.556470357583382" lon="121.00814998351782"><ele>5.0</ele><time>2026-05-02T06:01:37Z</time></trkpt><trkpt lat="14.556335758483185" lon="121.00822300847058"><ele>5.666666666666667</ele><time>2026-05-02T06:01:38Z</time></trkpt><trkpt lat="14.55619726553354" lon="121.00829360746663"><ele>6.333333333333334</ele><time>2026-05-02T06:01:39Z</time></trkpt><trkpt lat="14.556067387739395" lon="121.00836610107025"><ele>7.0</ele><time>2026-05-02T06:01:40Z</time></trkpt><trkpt lat="14.555923611367744" lon="121.00843882960791"><ele>7.333333333333334</ele><time>2026-05-02T06:01:41Z</time></trkpt><trkpt lat="14.555777192187854" lon="121.00851616375985"><ele>7.666666666666666</ele><time>2026-05-02T06:01:42Z</time></trkpt><trkpt lat="14.55563292109855" lon="121.00859174157605"><ele>8.0</ele><time>2026-05-02T06:01:43Z</time></trkpt><trkpt lat="14.555494315436464" lon="121.00866529378376"><ele>7.0</ele><time>2026-05-02T06:01:44Z</time></trkpt><trkpt lat="14.555360868944186" lon="121.0087402182966"><ele>6.0</ele><time>2026-05-02T06:01:45Z</time></trkpt><trkpt lat="14.555226278917205" lon="121.00881665636301"><ele>5.0</ele><time>2026-05-02T06:01:46Z</time></trkpt><trkpt lat="14.555093196945556" lon="121.00888952346894"><ele>5.0</ele><time>2026-05-02T06:01:47Z</time></trkpt><trkpt lat="14.554969127053118" lon="121.00895898445297"><ele>5.0</ele><time>2026-05-02T06:01:48Z</time></trkpt><trkpt lat="14.554835913860941" lon="121.00903318620747"><ele>5.0</ele><time>2026-05-02T06:01:49Z</time></trkpt><trkpt lat="14.554696662948688" lon="121.00910880148483"><ele>5.0</ele><time>2026-05-02T06:01:50Z</time></trkpt><trkpt lat="14.554561079770556" lon="121.0091816871865"><ele>5.0</ele><time>2026-05-02T06:01:51Z</time></trkpt><trkpt lat="14.554423678417853" lon="121.00925240648522"><ele>5.0</ele><time>2026-05-02T06:01:52Z</time></trkpt><trkpt lat="14.554280617879074" lon="121.00932377414533"><ele>5.666666666666667</ele><time>2026-05-02T06:01:53Z</time></trkpt><trkpt lat="14.55414905697369" lon="121.00939148582809"><ele>6.333333333333334</ele><time>2026-05-02T06:01:54Z</time></trkpt><trkpt lat="14.554011612546695" lon="121.00946228257247"><ele>7.0</ele><time>2026-05-02T06:01:55Z</time></trkpt><trkpt lat="14.55387408905248" lon="121.00953496282045"><ele>7.0</ele><time>2026-05-02T06:01:56Z</time></trkpt><trkpt lat="14.553735391869873" lon="121.00960630133811"><ele>7.0</ele><time>2026-05-02T06:01:57Z</time></trkpt><trkpt lat="14.553597334477649" lon="121.00967794396544"><ele>7.0</ele><time>2026-05-02T06:01:58Z</time></trkpt><trkpt lat="14.553459961052534" lon="121.00974827281037"><ele>7.0</ele><time>2026-05-02T06:01:59Z</time></trkpt><trkpt lat="14.55332266547543" lon="121.00981866829198"><ele>7.0</ele><time>2026-05-02T06:02:00Z</time></trkpt><trkpt lat="14.553185253669474" lon="121.00988886431041"><ele>7.0</ele><time>2026-05-02T06:02:01Z</time></trkpt><trkpt lat="14.553048127660364" lon="121.00995955563921"><ele>7.0</ele><time>2026-05-02T06:02:02Z</time></trkpt><trkpt lat="14.552911835106988" lon="121.01002919800578"><ele>7.0</ele><time>2026-05-02T06:02:03Z</time></trkpt><trkpt lat="14.552765706557496" lon="121.01009465665925"><ele>7.0</ele><time>2026-05-02T06:02:04Z</time></trkpt><trkpt lat="14.55263234068135" lon="121.01016131968984"><ele>7.0</ele><time>2026-05-02T06:02:05Z</time></trkpt><trkpt lat="14.552506121872504" lon="121.01022491211326"><ele>7.0</ele><time>2026-05-02T06:02:06Z</time></trkpt><trkpt lat="14.552383975604348" lon="121.01028726660546"><ele>7.0</ele><time>2026-05-02T06:02:07Z</time></trkpt><trkpt lat="14.552272576468999" lon="121.0103433030697"><ele>7.0</ele><time>2026-05-02T06:02:08Z</time></trkpt><trkpt lat="14.552168408580997" lon="121.01039641004662"><ele>7.0</ele><time>2026-05-02T06:02:09Z</time></trkpt><trkpt lat="14.552061155066607" lon="121.01045392471545"><ele>7.0</ele><time>2026-05-02T06:02:10Z</time></trkpt><trkpt lat="14.551954596435694" lon="121.01051283778013"><ele>7.0</ele><time>2026-05-02T06:02:11Z</time></trkpt><trkpt lat="14.55186315051576" lon="121.01056196950861"><ele>7.0</ele><time>2026-05-02T06:02:12Z</time></trkpt><trkpt lat="14.551769349990549" lon="121.01061488964658"><ele>7.166666666666667</ele><time>2026-05-02T06:02:13.001Z</time></trkpt><trkpt lat="14.55168432202474" lon="121.01066247458341"><ele>7.333333333333334</ele><time>2026-05-02T06:02:14.001Z</time></trkpt><trkpt lat="14.551616446744207" lon="121.01070695151331"><ele>7.5</ele><time>2026-05-02T06:02:15.001Z</time></trkpt><trkpt lat="14.551508517720313" lon="121.01077716387337"><ele>7.666666666666666</ele><time>2026-05-02T06:02:18.001Z</time></trkpt><trkpt lat="14.551443275994352" lon="121.01079308054531"><ele>7.833333333333333</ele><time>2026-05-02T06:02:20.001Z</time></trkpt><trkpt lat="14.551418223873084" lon="121.01085647269247"><ele>8.0</ele><time>2026-05-02T06:02:45.001Z</time></trkpt><trkpt lat="14.551357703116334" lon="121.01087821901285"><ele>8.200000000000001</ele><time>2026-05-02T06:02:59.001Z</time></trkpt><trkpt lat="14.551278972639347" lon="121.01091177443445"><ele>8.4</ele><time>2026-05-02T06:03:06.001Z</time></trkpt><trkpt lat="14.551205715828583" lon="121.0109462918843"><ele>8.600000000000001</ele><time>2026-05-02T06:03:08.001Z</time></trkpt><trkpt lat="14.55109320322899" lon="121.01100690606633"><ele>8.8</ele><time>2026-05-02T06:03:10.001Z</time></trkpt><trkpt lat="14.55097225086026" lon="121.0110618525023"><ele>9.0</ele><time>2026-05-02T06:03:12.001Z</time></trkpt><trkpt lat="14.550891407454795" lon="121.01110124507973"><ele>9.0</ele><time>2026-05-02T06:03:13.001Z</time></trkpt><trkpt lat="14.55080441465342" lon="121.0111462649132"><ele>9.0</ele><time>2026-05-02T06:03:14.001Z</time></trkpt><trkpt lat="14.550722660130749" lon="121.01118517168487"><ele>9.0</ele><time>2026-05-02T06:03:15.001Z</time></trkpt><trkpt lat="14.550633895331723" lon="121.01122838394531"><ele>9.0</ele><time>2026-05-02T06:03:16.001Z</time></trkpt><trkpt lat="14.550535212341638" lon="121.01127856336699"><ele>9.0</ele><time>2026-05-02T06:03:17.001Z</time></trkpt><trkpt lat="14.550430844195715" lon="121.01133137164756"><ele>8.75</ele><time>2026-05-02T06:03:18.001Z</time></trkpt><trkpt lat="14.550323187100725" lon="121.0113863269361"><ele>8.5</ele><time>2026-05-02T06:03:19.001Z</time></trkpt><trkpt lat="14.55021796852039" lon="121.01144077147768"><ele>8.25</ele><time>2026-05-02T06:03:20.001Z</time></trkpt><trkpt lat="14.550099923308528" lon="121.01150679043712"><ele>8.0</ele><time>2026-05-02T06:03:21.001Z</time></trkpt><trkpt lat="14.549989323126251" lon="121.01156568284502"><ele>8.0</ele><time>2026-05-02T06:03:22.001Z</time></trkpt><trkpt lat="14.549874261711713" lon="121.01162896113205"><ele>8.0</ele><time>2026-05-02T06:03:23.001Z</time></trkpt><trkpt lat="14.549780063219972" lon="121.01173086303893"><ele>8.0</ele><time>2026-05-02T06:03:24.001Z</time></trkpt><trkpt lat="14.549670477565085" lon="121.01179855608514"><ele>8.0</ele><time>2026-05-02T06:03:25.001Z</time></trkpt><trkpt lat="14.54954935395224" lon="121.01186581144242"><ele>8.5</ele><time>2026-05-02T06:03:26.001Z</time></trkpt><trkpt lat="14.549422845113513" lon="121.01193499799795"><ele>9.0</ele><time>2026-05-02T06:03:27.001Z</time></trkpt><trkpt lat="14.549292001163343" lon="121.01200543826256"><ele>9.5</ele><time>2026-05-02T06:03:28.001Z</time></trkpt><trkpt lat="14.549162211751439" lon="121.01207423919841"><ele>10.0</ele><time>2026-05-02T06:03:29.001Z</time></trkpt><trkpt lat="14.54903218841541" lon="121.01214235613548"><ele>10.0</ele><time>2026-05-02T06:03:30.001Z</time></trkpt><trkpt lat="14.548908421603333" lon="121.01220906889426"><ele>10.0</ele><time>2026-05-02T06:03:31.001Z</time></trkpt><trkpt lat="14.548786224332495" lon="121.01227534353436"><ele>10.0</ele><time>2026-05-02T06:03:32.001Z</time></trkpt><trkpt lat="14.548664419378325" lon="121.01234189919326"><ele>10.0</ele><time>2026-05-02T06:03:33Z</time></trkpt><trkpt lat="14.548541761454299" lon="121.01240852326248"><ele>9.5</ele><time>2026-05-02T06:03:34Z</time></trkpt><trkpt lat="14.548419697724178" lon="121.01247469326526"><ele>9.0</ele><time>2026-05-02T06:03:35Z</time></trkpt><trkpt lat="14.54829813487383" lon="121.01254047975705"><ele>8.5</ele><time>2026-05-02T06:03:36Z</time></trkpt><trkpt lat="14.548177669200022" lon="121.01260578249217"><ele>8.0</ele><time>2026-05-02T06:03:37Z</time></trkpt><trkpt lat="14.5480476473008" lon="121.01267850719721"><ele>8.0</ele><time>2026-05-02T06:03:38Z</time></trkpt><trkpt lat="14.547915557040625" lon="121.01275298891653"><ele>8.0</ele><time>2026-05-02T06:03:39Z</time></trkpt><trkpt lat="14.547773003438941" lon="121.01281311153366"><ele>8.0</ele><time>2026-05-02T06:03:40Z</time></trkpt><trkpt lat="14.547627270313882" lon="121.01289257454613"><ele>8.25</ele><time>2026-05-02T06:03:41Z</time></trkpt><trkpt lat="14.547496389142934" lon="121.01296317484142"><ele>8.5</ele><time>2026-05-02T06:03:42Z</time></trkpt><trkpt lat="14.547353947119756" lon="121.0130400113229"><ele>8.75</ele><time>2026-05-02T06:03:43Z</time></trkpt><trkpt lat="14.547230144398062" lon="121.01307214525465"><ele>9.0</ele><time>2026-05-02T06:03:44Z</time></trkpt><trkpt lat="14.547098568142879" lon="121.01313723156417"><ele>10.0</ele><time>2026-05-02T06:03:45Z</time></trkpt><trkpt lat="14.546972847073608" lon="121.01320314383969"><ele>11.0</ele><time>2026-05-02T06:03:46Z</time></trkpt><trkpt lat="14.546851302059872" lon="121.0132688281798"><ele>12.0</ele><time>2026-05-02T06:03:47Z</time></trkpt><trkpt lat="14.54668972689452" lon="121.01335817660411"><ele>12.333333333333332</ele><time>2026-05-02T06:03:48Z</time></trkpt><trkpt lat="14.546563783769493" lon="121.01342656271866"><ele>12.666666666666666</ele><time>2026-05-02T06:03:49Z</time></trkpt><trkpt lat="14.546406619188602" lon="121.01351377694183"><ele>13.0</ele><time>2026-05-02T06:03:50Z</time></trkpt><trkpt lat="14.546271450616501" lon="121.01358915230368"><ele>12.0</ele><time>2026-05-02T06:03:51Z</time></trkpt><trkpt lat="14.546118009032124" lon="121.01367173483203"><ele>11.0</ele><time>2026-05-02T06:03:52Z</time></trkpt><trkpt lat="14.545965145587381" lon="121.01375634429422"><ele>10.0</ele><time>2026-05-02T06:03:53Z</time></trkpt><trkpt lat="14.545843921435223" lon="121.01382480725931"><ele>10.0</ele><time>2026-05-02T06:03:54Z</time></trkpt><trkpt lat="14.545718079104933" lon="121.01389306896219"><ele>10.0</ele><time>2026-05-02T06:03:55Z</time></trkpt><trkpt lat="14.545575968890576" lon="121.01397398680865"><ele>10.0</ele><time>2026-05-02T06:03:56Z</time></trkpt><trkpt lat="14.545441574075985" lon="121.01404954910659"><ele>10.666666666666668</ele><time>2026-05-02T06:03:57Z</time></trkpt><trkpt lat="14.54531272670913" lon="121.01412312538102"><ele>11.333333333333334</ele><time>2026-05-02T06:03:58Z</time></trkpt><trkpt lat="14.5451785774169" lon="121.01419206425155"><ele>12.0</ele><time>2026-05-02T06:03:59Z</time></trkpt><trkpt lat="14.545044288589605" lon="121.01426821663138"><ele>12.0</ele><time>2026-05-02T06:04:00Z</time></trkpt><trkpt lat="14.544909021297103" lon="121.01434420842091"><ele>12.0</ele><time>2026-05-02T06:04:01Z</time></trkpt><trkpt lat="14.544775004711568" lon="121.01441908183013"><ele>12.0</ele><time>2026-05-02T06:04:02Z</time></trkpt><trkpt lat="14.544645490525786" lon="121.01448671705357"><ele>12.0</ele><time>2026-05-02T06:04:03Z</time></trkpt><trkpt lat="14.544519303782868" lon="121.01455519322714"><ele>12.0</ele><time>2026-05-02T06:04:04Z</time></trkpt><trkpt lat="14.54439878234671" lon="121.01461987290412"><ele>12.0</ele><time>2026-05-02T06:04:05Z</time></trkpt><trkpt lat="14.544278087249344" lon="121.01468191298717"><ele>12.0</ele><time>2026-05-02T06:04:06Z</time></trkpt><trkpt lat="14.544154413067197" lon="121.01475052126206"><ele>12.0</ele><time>2026-05-02T06:04:07Z</time></trkpt><trkpt lat="14.54402407783429" lon="121.01482106842117"><ele>12.0</ele><time>2026-05-02T06:04:08Z</time></trkpt><trkpt lat="14.543887409253045" lon="121.01489661027753"><ele>12.0</ele><time>2026-05-02T06:04:09Z</time></trkpt><trkpt lat="14.543750020888437" lon="121.0149687485248"><ele>12.0</ele><time>2026-05-02T06:04:10Z</time></trkpt><trkpt lat="14.543612382946398" lon="121.01503672371175"><ele>12.0</ele><time>2026-05-02T06:04:11Z</time></trkpt><trkpt lat="14.5434643662992" lon="121.01509353359636"><ele>12.0</ele><time>2026-05-02T06:04:12Z</time></trkpt><trkpt lat="14.543326351035914" lon="121.01517953198845"><ele>12.0</ele><time>2026-05-02T06:04:13Z</time></trkpt><trkpt lat="14.543203584791302" lon="121.01524749525451"><ele>12.0</ele><time>2026-05-02T06:04:14Z</time></trkpt><trkpt lat="14.543080910508175" lon="121.01531089756438"><ele>12.0</ele><time>2026-05-02T06:04:15Z</time></trkpt><trkpt lat="14.54295647484328" lon="121.01537479979044"><ele>12.0</ele><time>2026-05-02T06:04:16Z</time></trkpt><trkpt lat="14.54281852295708" lon="121.01544326174447"><ele>13.25</ele><time>2026-05-02T06:04:17Z</time></trkpt><trkpt lat="14.542669208495727" lon="121.01551584268184"><ele>14.5</ele><time>2026-05-02T06:04:18.001Z</time></trkpt><trkpt lat="14.542557578850703" lon="121.01557754527391"><ele>15.75</ele><time>2026-05-02T06:04:19.001Z</time></trkpt><trkpt lat="14.54246003932714" lon="121.0156373679769"><ele>17.0</ele><time>2026-05-02T06:04:20.001Z</time></trkpt><trkpt lat="14.542349957475453" lon="121.01569594631044"><ele>17.0</ele><time>2026-05-02T06:04:21.001Z</time></trkpt><trkpt lat="14.542242183631044" lon="121.01576209034125"><ele>17.0</ele><time>2026-05-02T06:04:22.001Z</time></trkpt><trkpt lat="14.542142367930197" lon="121.01581504933858"><ele>17.0</ele><time>2026-05-02T06:04:23.001Z</time></trkpt><trkpt lat="14.542014440470382" lon="121.01588113943241"><ele>17.0</ele><time>2026-05-02T06:04:24.001Z</time></trkpt><trkpt lat="14.541885054117765" lon="121.01594350092661"><ele>15.5</ele><time>2026-05-02T06:04:25.001Z</time></trkpt><trkpt lat="14.541735542017754" lon="121.01600789009765"><ele>14.0</ele><time>2026-05-02T06:04:26.001Z</time></trkpt><trkpt lat="14.54159875847899" lon="121.01605771433387"><ele>12.5</ele><time>2026-05-02T06:04:27.001Z</time></trkpt><trkpt lat="14.541464666571333" lon="121.01610173896883"><ele>11.0</ele><time>2026-05-02T06:04:28.001Z</time></trkpt><trkpt lat="14.541329065091311" lon="121.01614190520219"><ele>11.25</ele><time>2026-05-02T06:04:29.001Z</time></trkpt><trkpt lat="14.541197277941825" lon="121.01618268016342"><ele>11.5</ele><time>2026-05-02T06:04:30.001Z</time></trkpt><trkpt lat="14.541067876964624" lon="121.01622172782302"><ele>11.75</ele><time>2026-05-02T06:04:31.001Z</time></trkpt><trkpt lat="14.540943224648403" lon="121.01626840847699"><ele>12.0</ele><time>2026-05-02T06:04:32.001Z</time></trkpt><trkpt lat="14.540824744466143" lon="121.01630965065225"><ele>12.0</ele><time>2026-05-02T06:04:33.001Z</time></trkpt><trkpt lat="14.540720508730125" lon="121.01634806589747"><ele>12.0</ele><time>2026-05-02T06:04:34.001Z</time></trkpt><trkpt lat="14.540624301842277" lon="121.0163870565277"><ele>12.0</ele><time>2026-05-02T06:04:35.001Z</time></trkpt><trkpt lat="14.54053245836315" lon="121.01642537806912"><ele>12.0</ele><time>2026-05-02T06:04:36.001Z</time></trkpt><trkpt lat="14.540441510312073" lon="121.01646594425111"><ele>12.0</ele><time>2026-05-02T06:04:37.001Z</time></trkpt><trkpt lat="14.540351731813349" lon="121.0165113667709"><ele>12.0</ele><time>2026-05-02T06:04:38.001Z</time></trkpt><trkpt lat="14.540257419603176" lon="121.01656184345511"><ele>12.0</ele><time>2026-05-02T06:04:39.001Z</time></trkpt><trkpt lat="14.540157795838077" lon="121.01661981951762"><ele>12.0</ele><time>2026-05-02T06:04:40.001Z</time></trkpt><trkpt lat="14.540058066747555" lon="121.01668265538032"><ele>12.0</ele><time>2026-05-02T06:04:41.001Z</time></trkpt><trkpt lat="14.53996073645217" lon="121.01674927524289"><ele>11.75</ele><time>2026-05-02T06:04:42.001Z</time></trkpt><trkpt lat="14.539865910947618" lon="121.01681674135642"><ele>11.5</ele><time>2026-05-02T06:04:43.001Z</time></trkpt><trkpt lat="14.53977282386724" lon="121.01689142455405"><ele>11.25</ele><time>2026-05-02T06:04:44.001Z</time></trkpt><trkpt lat="14.53967723230175" lon="121.01697103254298"><ele>11.0</ele><time>2026-05-02T06:04:45.001Z</time></trkpt><trkpt lat="14.539589332271602" lon="121.01703965165255"><ele>11.4</ele><time>2026-05-02T06:04:46.001Z</time></trkpt><trkpt lat="14.539502724671571" lon="121.01710634019581"><ele>11.8</ele><time>2026-05-02T06:04:47.001Z</time></trkpt><trkpt lat="14.53941915637404" lon="121.0171727938984"><ele>12.200000000000001</ele><time>2026-05-02T06:04:48.001Z</time></trkpt><trkpt lat="14.539335539941462" lon="121.01723937515185"><ele>12.600000000000001</ele><time>2026-05-02T06:04:49.001Z</time></trkpt><trkpt lat="14.53925123396993" lon="121.01730640555961"><ele>13.0</ele><time>2026-05-02T06:04:50.001Z</time></trkpt><trkpt lat="14.539163566803495" lon="121.01737089218881"><ele>13.0</ele><time>2026-05-02T06:04:51.001Z</time></trkpt><trkpt lat="14.539079058024171" lon="121.01743419825307"><ele>13.0</ele><time>2026-05-02T06:04:52.001Z</time></trkpt><trkpt lat="14.538990841548758" lon="121.0174974138904"><ele>13.0</ele><time>2026-05-02T06:04:53.001Z</time></trkpt><trkpt lat="14.538904612435399" lon="121.01756878275734"><ele>13.0</ele><time>2026-05-02T06:04:54.001Z</time></trkpt><trkpt lat="14.538805235830955" lon="121.0176336305812"><ele>13.0</ele><time>2026-05-02T06:04:55.001Z</time></trkpt><trkpt lat="14.538698969855352" lon="121.01769413311868"><ele>12.5</ele><time>2026-05-02T06:04:56.001Z</time></trkpt><trkpt lat="14.538586976149762" lon="121.01775594307979"><ele>12.0</ele><time>2026-05-02T06:04:57.001Z</time></trkpt><trkpt lat="14.538461635897713" lon="121.017816911361"><ele>11.5</ele><time>2026-05-02T06:04:58.001Z</time></trkpt><trkpt lat="14.538344979743036" lon="121.01787740032334"><ele>11.0</ele><time>2026-05-02T06:04:59.001Z</time></trkpt><trkpt lat="14.53822639816533" lon="121.0179387204044"><ele>11.0</ele><time>2026-05-02T06:05:00.001Z</time></trkpt><trkpt lat="14.53810731717782" lon="121.01800139498567"><ele>11.0</ele><time>2026-05-02T06:05:01.001Z</time></trkpt><trkpt lat="14.537989742265118" lon="121.0180645047577"><ele>11.0</ele><time>2026-05-02T06:05:02.001Z</time></trkpt><trkpt lat="14.537872556706112" lon="121.01812862079947"><ele>11.0</ele><time>2026-05-02T06:05:03.001Z</time></trkpt><trkpt lat="14.537754991261266" lon="121.01819368071469"><ele>11.0</ele><time>2026-05-02T06:05:04.001Z</time></trkpt><trkpt lat="14.537636025749245" lon="121.01826002355857"><ele>11.0</ele><time>2026-05-02T06:05:05.001Z</time></trkpt><trkpt lat="14.537514403296283" lon="121.01832879457218"><ele>11.0</ele><time>2026-05-02T06:05:06.001Z</time></trkpt><trkpt lat="14.537386125517619" lon="121.01840736539835"><ele>11.0</ele><time>2026-05-02T06:05:07.001Z</time></trkpt><trkpt lat="14.537261102684438" lon="121.01847950329604"><ele>11.0</ele><time>2026-05-02T06:05:08.001Z</time></trkpt><trkpt lat="14.53712638652497" lon="121.01855541838982"><ele>11.0</ele><time>2026-05-02T06:05:09.001Z</time></trkpt><trkpt lat="14.536999004754579" lon="121.01862349338839"><ele>11.0</ele><time>2026-05-02T06:05:10.001Z</time></trkpt><trkpt lat="14.53686647745324" lon="121.0186966288021"><ele>11.0</ele><time>2026-05-02T06:05:11.001Z</time></trkpt><trkpt lat="14.536732821030071" lon="121.01876946890853"><ele>11.0</ele><time>2026-05-02T06:05:12.001Z</time></trkpt><trkpt lat="14.536604494430154" lon="121.01883945072787"><ele>11.0</ele><time>2026-05-02T06:05:13.001Z</time></trkpt><trkpt lat="14.536467865174247" lon="121.01891419551919"><ele>11.0</ele><time>2026-05-02T06:05:14.001Z</time></trkpt><trkpt lat="14.536322970699695" lon="121.01898497301767"><ele>10.666666666666666</ele><time>2026-05-02T06:05:15.001Z</time></trkpt><trkpt lat="14.536183532662195" lon="121.01905466455575"><ele>10.333333333333334</ele><time>2026-05-02T06:05:16.001Z</time></trkpt><trkpt lat="14.53604330942431" lon="121.01912661544782"><ele>10.0</ele><time>2026-05-02T06:05:17.001Z</time></trkpt><trkpt lat="14.535902374956848" lon="121.01920086053468"><ele>11.666666666666668</ele><time>2026-05-02T06:05:18.001Z</time></trkpt><trkpt lat="14.53576218296313" lon="121.01927825799301"><ele>13.333333333333334</ele><time>2026-05-02T06:05:19.001Z</time></trkpt><trkpt lat="14.53562173848355" lon="121.01935473385701"><ele>15.0</ele><time>2026-05-02T06:05:20.001Z</time></trkpt><trkpt lat="14.53548164429066" lon="121.0194316970972"><ele>14.333333333333332</ele><time>2026-05-02T06:05:21.001Z</time></trkpt><trkpt lat="14.535341276703619" lon="121.01950990142652"><ele>13.666666666666666</ele><time>2026-05-02T06:05:22.001Z</time></trkpt><trkpt lat="14.535198331864764" lon="121.01959044843855"><ele>13.0</ele><time>2026-05-02T06:05:23.001Z</time></trkpt><trkpt lat="14.535053342997221" lon="121.0196722266842"><ele>13.0</ele><time>2026-05-02T06:05:24.001Z</time></trkpt><trkpt lat="14.534907965864724" lon="121.01975428330752"><ele>13.0</ele><time>2026-05-02T06:05:25.001Z</time></trkpt><trkpt lat="14.534763854421534" lon="121.01983702618784"><ele>13.0</ele><time>2026-05-02T06:05:26.001Z</time></trkpt><trkpt lat="14.534615629166447" lon="121.01992146897426"><ele>14.0</ele><time>2026-05-02T06:05:27.001Z</time></trkpt><trkpt lat="14.534464712409912" lon="121.01998693300155"><ele>15.0</ele><time>2026-05-02T06:05:28.001Z</time></trkpt><trkpt lat="14.53431527060197" lon="121.02005641226177"><ele>16.0</ele><time>2026-05-02T06:05:29.001Z</time></trkpt><trkpt lat="14.534166307057186" lon="121.02013220371586"><ele>16.0</ele><time>2026-05-02T06:05:30.001Z</time></trkpt><trkpt lat="14.534013914199718" lon="121.0202112693263"><ele>16.0</ele><time>2026-05-02T06:05:31.001Z</time></trkpt><trkpt lat="14.5338624274217" lon="121.02028841508675"><ele>16.0</ele><time>2026-05-02T06:05:32.001Z</time></trkpt><trkpt lat="14.533711571050459" lon="121.02036652725623"><ele>16.333333333333332</ele><time>2026-05-02T06:05:33.001Z</time></trkpt><trkpt lat="14.533561284195404" lon="121.02044352809742"><ele>16.666666666666668</ele><time>2026-05-02T06:05:34.001Z</time></trkpt><trkpt lat="14.533410026477288" lon="121.02052187815686"><ele>17.0</ele><time>2026-05-02T06:05:35.001Z</time></trkpt><trkpt lat="14.533258698714615" lon="121.0206006764004"><ele>17.0</ele><time>2026-05-02T06:05:36.001Z</time></trkpt><trkpt lat="14.533110266854903" lon="121.02067913084554"><ele>17.0</ele><time>2026-05-02T06:05:37.001Z</time></trkpt><trkpt lat="14.532964573633029" lon="121.02075976465514"><ele>17.0</ele><time>2026-05-02T06:05:38.001Z</time></trkpt><trkpt lat="14.53281866785966" lon="121.02083893341818"><ele>15.333333333333334</ele><time>2026-05-02T06:05:39Z</time></trkpt><trkpt lat="14.532672566646113" lon="121.02092012080095"><ele>13.666666666666668</ele><time>2026-05-02T06:05:40Z</time></trkpt><trkpt lat="14.532532988623782" lon="121.02100716988026"><ele>12.0</ele><time>2026-05-02T06:05:41Z</time></trkpt><trkpt lat="14.532365979743213" lon="121.0211014055636"><ele>12.0</ele><time>2026-05-02T06:05:42Z</time></trkpt><trkpt lat="14.532209939855992" lon="121.02118731654582"><ele>12.0</ele><time>2026-05-02T06:05:43Z</time></trkpt><trkpt lat="14.53206011033598" lon="121.02126758361804"><ele>12.0</ele><time>2026-05-02T06:05:44Z</time></trkpt><trkpt lat="14.531910404125297" lon="121.02134866564717"><ele>10.666666666666666</ele><time>2026-05-02T06:05:45Z</time></trkpt><trkpt lat="14.531767282928318" lon="121.0214265161514"><ele>9.333333333333332</ele><time>2026-05-02T06:05:46Z</time></trkpt><trkpt lat="14.531625156189579" lon="121.0215034787773"><ele>8.0</ele><time>2026-05-02T06:05:47Z</time></trkpt><trkpt lat="14.531479645697047" lon="121.02158227759759"><ele>8.333333333333332</ele><time>2026-05-02T06:05:48Z</time></trkpt><trkpt lat="14.531338910944651" lon="121.02165855923204"><ele>8.666666666666666</ele><time>2026-05-02T06:05:49Z</time></trkpt><trkpt lat="14.531200231290168" lon="121.02173423444687"><ele>9.0</ele><time>2026-05-02T06:05:50Z</time></trkpt><trkpt lat="14.53106207112517" lon="121.02181079219481"><ele>9.0</ele><time>2026-05-02T06:05:51Z</time></trkpt><trkpt lat="14.53092795986878" lon="121.0218848043149"><ele>9.0</ele><time>2026-05-02T06:05:52Z</time></trkpt><trkpt lat="14.53078487099513" lon="121.02196434202561"><ele>9.0</ele><time>2026-05-02T06:05:53Z</time></trkpt><trkpt lat="14.530647281648076" lon="121.02204158075321"><ele>9.0</ele><time>2026-05-02T06:05:54Z</time></trkpt><trkpt lat="14.530506302086621" lon="121.02211985783268"><ele>9.0</ele><time>2026-05-02T06:05:55Z</time></trkpt><trkpt lat="14.530370342981348" lon="121.02219560836444"><ele>9.0</ele><time>2026-05-02T06:05:56Z</time></trkpt><trkpt lat="14.530231846075722" lon="121.02227379210997"><ele>8.666666666666666</ele><time>2026-05-02T06:05:57Z</time></trkpt><trkpt lat="14.53009396917267" lon="121.02234752237212"><ele>8.333333333333332</ele><time>2026-05-02T06:05:58Z</time></trkpt><trkpt lat="14.529938606371521" lon="121.02243292405981"><ele>8.0</ele><time>2026-05-02T06:05:59Z</time></trkpt><trkpt lat="14.529799468756746" lon="121.02250673557374"><ele>8.666666666666666</ele><time>2026-05-02T06:06:00Z</time></trkpt><trkpt lat="14.529672146205824" lon="121.0225768453578"><ele>9.333333333333334</ele><time>2026-05-02T06:06:01Z</time></trkpt><trkpt lat="14.529524835280082" lon="121.02266071775504"><ele>10.0</ele><time>2026-05-02T06:06:02Z</time></trkpt><trkpt lat="14.529388960266864" lon="121.0227376355032"><ele>10.0</ele><time>2026-05-02T06:06:03Z</time></trkpt><trkpt lat="14.529248829325708" lon="121.02282455259888"><ele>10.0</ele><time>2026-05-02T06:06:04Z</time></trkpt><trkpt lat="14.529107008767154" lon="121.02290095567889"><ele>10.0</ele><time>2026-05-02T06:06:05Z</time></trkpt><trkpt lat="14.528955146053217" lon="121.02298123114313"><ele>10.0</ele><time>2026-05-02T06:06:06Z</time></trkpt><trkpt lat="14.528816432025467" lon="121.02306220212863"><ele>10.0</ele><time>2026-05-02T06:06:07Z</time></trkpt><trkpt lat="14.52869142587114" lon="121.02313541938678"><ele>10.0</ele><time>2026-05-02T06:06:08Z</time></trkpt><trkpt lat="14.52852807955038" lon="121.02324423178885"><ele>10.0</ele><time>2026-05-02T06:06:09Z</time></trkpt><trkpt lat="14.52841787656987" lon="121.0233031051687"><ele>10.0</ele><time>2026-05-02T06:06:10Z</time></trkpt><trkpt lat="14.528306822003671" lon="121.02336288389364"><ele>10.0</ele><time>2026-05-02T06:06:11Z</time></trkpt><trkpt lat="14.52819925812843" lon="121.02342179213093"><ele>10.0</ele><time>2026-05-02T06:06:12Z</time></trkpt><trkpt lat="14.528087281843579" lon="121.02347947839377"><ele>10.0</ele><time>2026-05-02T06:06:13Z</time></trkpt><trkpt lat="14.527963044605809" lon="121.02354467594152"><ele>10.0</ele><time>2026-05-02T06:06:14Z</time></trkpt><trkpt lat="14.52785401606612" lon="121.02360890660978"><ele>10.0</ele><time>2026-05-02T06:06:15Z</time></trkpt><trkpt lat="14.527747344354257" lon="121.02367217306477"><ele>10.0</ele><time>2026-05-02T06:06:16Z</time></trkpt><trkpt lat="14.527639081287878" lon="121.02373536352425"><ele>10.25</ele><time>2026-05-02T06:06:17Z</time></trkpt><trkpt lat="14.527531904621757" lon="121.0237936343942"><ele>10.5</ele><time>2026-05-02T06:06:18Z</time></trkpt><trkpt lat="14.527419201030499" lon="121.02385631763121"><ele>10.75</ele><time>2026-05-02T06:06:19Z</time></trkpt><trkpt lat="14.527305463663861" lon="121.02391665493971"><ele>11.0</ele><time>2026-05-02T06:06:20Z</time></trkpt><trkpt lat="14.527181650553652" lon="121.0239844033051"><ele>11.25</ele><time>2026-05-02T06:06:21Z</time></trkpt><trkpt lat="14.527054968792546" lon="121.024052578592"><ele>11.5</ele><time>2026-05-02T06:06:22Z</time></trkpt><trkpt lat="14.526927381472317" lon="121.02411782792583"><ele>11.75</ele><time>2026-05-02T06:06:23Z</time></trkpt><trkpt lat="14.526787803147812" lon="121.02419031275929"><ele>12.0</ele><time>2026-05-02T06:06:24Z</time></trkpt><trkpt lat="14.526609270112319" lon="121.02430296947145"><ele>12.0</ele><time>2026-05-02T06:06:25Z</time></trkpt><trkpt lat="14.526472016676585" lon="121.02437680055172"><ele>12.0</ele><time>2026-05-02T06:06:26Z</time></trkpt><trkpt lat="14.526340036020729" lon="121.02440771321632"><ele>12.0</ele><time>2026-05-02T06:06:27Z</time></trkpt><trkpt lat="14.526207788944733" lon="121.0244845282533"><ele>12.0</ele><time>2026-05-02T06:06:28Z</time></trkpt><trkpt lat="14.52604786587903" lon="121.02457722233157"><ele>10.333333333333334</ele><time>2026-05-02T06:06:29.001Z</time></trkpt><trkpt lat="14.52585974008941" lon="121.02469207088309"><ele>8.666666666666668</ele><time>2026-05-02T06:06:30.001Z</time></trkpt><trkpt lat="14.52564151791094" lon="121.02475742178797"><ele>7.0</ele><time>2026-05-02T06:06:31.001Z</time></trkpt><trkpt lat="14.52546639212942" lon="121.02484705300701"><ele>8.333333333333334</ele><time>2026-05-02T06:06:32.001Z</time></trkpt><trkpt lat="14.52530150466184" lon="121.02493768627482"><ele>9.666666666666666</ele><time>2026-05-02T06:06:33.001Z</time></trkpt><trkpt lat="14.525135667574293" lon="121.02502527353163"><ele>11.0</ele><time>2026-05-02T06:06:34.001Z</time></trkpt><trkpt lat="14.524970579371637" lon="121.02511203565233"><ele>11.0</ele><time>2026-05-02T06:06:35.001Z</time></trkpt><trkpt lat="14.524811803247902" lon="121.02519695834738"><ele>11.0</ele><time>2026-05-02T06:06:36.001Z</time></trkpt><trkpt lat="14.524654026725498" lon="121.02528170085824"><ele>11.0</ele><time>2026-05-02T06:06:37.001Z</time></trkpt><trkpt lat="14.524494098168583" lon="121.02536892709628"><ele>12.333333333333332</ele><time>2026-05-02T06:06:38.001Z</time></trkpt><trkpt lat="14.524333251256472" lon="121.02545664361162"><ele>13.666666666666666</ele><time>2026-05-02T06:06:39.001Z</time></trkpt><trkpt lat="14.524175377059805" lon="121.02554163602282"><ele>15.0</ele><time>2026-05-02T06:06:40.001Z</time></trkpt><trkpt lat="14.524016740537899" lon="121.02562730280933"><ele>15.0</ele><time>2026-05-02T06:06:41.001Z</time></trkpt><trkpt lat="14.523859880921215" lon="121.02571149895762"><ele>15.0</ele><time>2026-05-02T06:06:42.001Z</time></trkpt><trkpt lat="14.52370542495698" lon="121.02579152734025"><ele>15.0</ele><time>2026-05-02T06:06:43.001Z</time></trkpt><trkpt lat="14.523550126147825" lon="121.02586991889828"><ele>15.333333333333332</ele><time>2026-05-02T06:06:44.001Z</time></trkpt><trkpt lat="14.52340096205586" lon="121.02594191728394"><ele>15.666666666666666</ele><time>2026-05-02T06:06:45.001Z</time></trkpt><trkpt lat="14.523251810470466" lon="121.02601559028642"><ele>16.0</ele><time>2026-05-02T06:06:46.001Z</time></trkpt><trkpt lat="14.52310067550418" lon="121.02608422630045"><ele>16.0</ele><time>2026-05-02T06:06:47.001Z</time></trkpt><trkpt lat="14.522955040861845" lon="121.02615081939177"><ele>16.0</ele><time>2026-05-02T06:06:48.001Z</time></trkpt><trkpt lat="14.52280986821685" lon="121.02621651552359"><ele>16.0</ele><time>2026-05-02T06:06:49.001Z</time></trkpt><trkpt lat="14.522670321180005" lon="121.02627551393195"><ele>15.333333333333332</ele><time>2026-05-02T06:06:50.001Z</time></trkpt><trkpt lat="14.522525802655963" lon="121.026334725002"><ele>14.666666666666668</ele><time>2026-05-02T06:06:51.001Z</time></trkpt><trkpt lat="14.522380424958321" lon="121.02639246533633"><ele>14.0</ele><time>2026-05-02T06:06:52.001Z</time></trkpt><trkpt lat="14.52223361004672" lon="121.02644927300669"><ele>14.0</ele><time>2026-05-02T06:06:53.001Z</time></trkpt><trkpt lat="14.52208696028996" lon="121.02650635969957"><ele>14.0</ele><time>2026-05-02T06:06:54.001Z</time></trkpt><trkpt lat="14.521941222869396" lon="121.02656268587751"><ele>14.0</ele><time>2026-05-02T06:06:55.001Z</time></trkpt><trkpt lat="14.521796985085317" lon="121.02661709202049"><ele>14.666666666666668</ele><time>2026-05-02T06:06:56.001Z</time></trkpt><trkpt lat="14.521655269676252" lon="121.02667185009769"><ele>15.333333333333332</ele><time>2026-05-02T06:06:57.001Z</time></trkpt><trkpt lat="14.521514226059393" lon="121.02672455684989"><ele>16.0</ele><time>2026-05-02T06:06:58.001Z</time></trkpt><trkpt lat="14.521374560127928" lon="121.02677739612832"><ele>16.0</ele><time>2026-05-02T06:06:59.001Z</time></trkpt><trkpt lat="14.521237035424537" lon="121.02683146513283"><ele>16.0</ele><time>2026-05-02T06:07:00.001Z</time></trkpt><trkpt lat="14.521101245869563" lon="121.02688701400322"><ele>16.0</ele><time>2026-05-02T06:07:01.001Z</time></trkpt><trkpt lat="14.52096477112849" lon="121.02694570327269"><ele>16.0</ele><time>2026-05-02T06:07:02.001Z</time></trkpt><trkpt lat="14.520830809519609" lon="121.02700478096405"><ele>16.0</ele><time>2026-05-02T06:07:03.001Z</time></trkpt><trkpt lat="14.52069958952929" lon="121.02706963564886"><ele>16.0</ele><time>2026-05-02T06:07:04.001Z</time></trkpt><trkpt lat="14.520566974009174" lon="121.0271375787117"><ele>16.0</ele><time>2026-05-02T06:07:05.001Z</time></trkpt><trkpt lat="14.520432879599808" lon="121.02720634276947"><ele>16.0</ele><time>2026-05-02T06:07:06.001Z</time></trkpt><trkpt lat="14.52029741747881" lon="121.02727845015744"><ele>16.0</ele><time>2026-05-02T06:07:07.001Z</time></trkpt><trkpt lat="14.520161035360045" lon="121.02735193323053"><ele>16.0</ele><time>2026-05-02T06:07:08.001Z</time></trkpt><trkpt lat="14.5200192530449" lon="121.02742832856862"><ele>16.0</ele><time>2026-05-02T06:07:09.001Z</time></trkpt><trkpt lat="14.51987994275604" lon="121.02749559856407"><ele>16.333333333333332</ele><time>2026-05-02T06:07:10.001Z</time></trkpt><trkpt lat="14.519736474780734" lon="121.02756648570642"><ele>16.666666666666668</ele><time>2026-05-02T06:07:11.001Z</time></trkpt><trkpt lat="14.519588953718518" lon="121.02764101408864"><ele>17.0</ele><time>2026-05-02T06:07:12.001Z</time></trkpt><trkpt lat="14.5194383745635" lon="121.02771745162312"><ele>17.0</ele><time>2026-05-02T06:07:13.001Z</time></trkpt><trkpt lat="14.519286280516477" lon="121.02779558729911"><ele>17.0</ele><time>2026-05-02T06:07:14.001Z</time></trkpt><trkpt lat="14.519130167561663" lon="121.02787365933045"><ele>17.0</ele><time>2026-05-02T06:07:15.001Z</time></trkpt><trkpt lat="14.518975725159422" lon="121.02795131654811"><ele>17.0</ele><time>2026-05-02T06:07:16.001Z</time></trkpt><trkpt lat="14.518821530215613" lon="121.02802934640067"><ele>17.0</ele><time>2026-05-02T06:07:17.001Z</time></trkpt><trkpt lat="14.518669526548942" lon="121.0281072908772"><ele>17.0</ele><time>2026-05-02T06:07:18.001Z</time></trkpt><trkpt lat="14.518523488757154" lon="121.0281865903205"><ele>18.333333333333336</ele><time>2026-05-02T06:07:19.001Z</time></trkpt><trkpt lat="14.518380276305072" lon="121.02826888346881"><ele>19.666666666666668</ele><time>2026-05-02T06:07:20.001Z</time></trkpt><trkpt lat="14.51824144730776" lon="121.02835648510909"><ele>21.0</ele><time>2026-05-02T06:07:21.001Z</time></trkpt><trkpt lat="14.518108326802343" lon="121.02845020132388"><ele>21.0</ele><time>2026-05-02T06:07:22.001Z</time></trkpt><trkpt lat="14.517976597057089" lon="121.02854865913038"><ele>21.0</ele><time>2026-05-02T06:07:23.001Z</time></trkpt><trkpt lat="14.517842825629087" lon="121.02864949433317"><ele>21.0</ele><time>2026-05-02T06:07:24.001Z</time></trkpt><trkpt lat="14.517707576777228" lon="121.02875228482552"><ele>21.666666666666668</ele><time>2026-05-02T06:07:25.001Z</time></trkpt><trkpt lat="14.517571444892937" lon="121.02885477724986"><ele>22.333333333333336</ele><time>2026-05-02T06:07:26.001Z</time></trkpt><trkpt lat="14.517436181833613" lon="121.02895788089695"><ele>23.0</ele><time>2026-05-02T06:07:27.001Z</time></trkpt><trkpt lat="14.517298863599448" lon="121.02906193518346"><ele>22.333333333333336</ele><time>2026-05-02T06:07:28.001Z</time></trkpt><trkpt lat="14.51716203847744" lon="121.02916667099224"><ele>21.666666666666668</ele><time>2026-05-02T06:07:29.001Z</time></trkpt><trkpt lat="14.517025003353032" lon="121.02926882205739"><ele>21.0</ele><time>2026-05-02T06:07:30.001Z</time></trkpt><trkpt lat="14.516887317456089" lon="121.02936546982822"><ele>22.333333333333336</ele><time>2026-05-02T06:07:31.001Z</time></trkpt><trkpt lat="14.516742510566802" lon="121.02946202063619"><ele>23.666666666666668</ele><time>2026-05-02T06:07:32.001Z</time></trkpt><trkpt lat="14.516594354367637" lon="121.02955930447011"><ele>25.0</ele><time>2026-05-02T06:07:33.001Z</time></trkpt><trkpt lat="14.516440822660995" lon="121.02965287040227"><ele>25.0</ele><time>2026-05-02T06:07:34.001Z</time></trkpt><trkpt lat="14.51628667518992" lon="121.02974260828366"><ele>25.0</ele><time>2026-05-02T06:07:35.001Z</time></trkpt><trkpt lat="14.516134897838946" lon="121.02982878746194"><ele>25.0</ele><time>2026-05-02T06:07:36.001Z</time></trkpt><trkpt lat="14.515986242689419" lon="121.02991052419513"><ele>23.666666666666668</ele><time>2026-05-02T06:07:37.001Z</time></trkpt><trkpt lat="14.515840203583467" lon="121.02999012067255"><ele>22.333333333333336</ele><time>2026-05-02T06:07:38.001Z</time></trkpt><trkpt lat="14.515698793933915" lon="121.03006879917962"><ele>21.0</ele><time>2026-05-02T06:07:39.001Z</time></trkpt><trkpt lat="14.515557766596377" lon="121.03014846552283"><ele>21.0</ele><time>2026-05-02T06:07:40.001Z</time></trkpt><trkpt lat="14.515414525296922" lon="121.03022713960588"><ele>21.0</ele><time>2026-05-02T06:07:41.001Z</time></trkpt><trkpt lat="14.515271543167664" lon="121.03030521379823"><ele>21.0</ele><time>2026-05-02T06:07:42.001Z</time></trkpt><trkpt lat="14.515129047171444" lon="121.0303840007128"><ele>22.0</ele><time>2026-05-02T06:07:43.001Z</time></trkpt><trkpt lat="14.514984613641657" lon="121.03046339085313"><ele>23.0</ele><time>2026-05-02T06:07:44.001Z</time></trkpt><trkpt lat="14.514838263972555" lon="121.03054310214031"><ele>24.0</ele><time>2026-05-02T06:07:45Z</time></trkpt><trkpt lat="14.514695883115875" lon="121.03062298693182"><ele>24.0</ele><time>2026-05-02T06:07:46Z</time></trkpt><trkpt lat="14.514562015184657" lon="121.03070062147565"><ele>24.0</ele><time>2026-05-02T06:07:47Z</time></trkpt><trkpt lat="14.514431431964619" lon="121.0307785253425"><ele>24.0</ele><time>2026-05-02T06:07:48Z</time></trkpt><trkpt lat="14.514302806383851" lon="121.03085537200025"><ele>24.0</ele><time>2026-05-02T06:07:49Z</time></trkpt><trkpt lat="14.51417427609652" lon="121.03093103412083"><ele>24.0</ele><time>2026-05-02T06:07:50Z</time></trkpt><trkpt lat="14.514047381006868" lon="121.03100443081718"><ele>24.0</ele><time>2026-05-02T06:07:51Z</time></trkpt><trkpt lat="14.513919772051349" lon="121.03107709835824"><ele>24.0</ele><time>2026-05-02T06:07:52Z</time></trkpt><trkpt lat="14.513796436426091" lon="121.03114601885456"><ele>23.5</ele><time>2026-05-02T06:07:53Z</time></trkpt><trkpt lat="14.513678900808056" lon="121.03121208731848"><ele>23.0</ele><time>2026-05-02T06:07:54Z</time></trkpt><trkpt lat="14.513569504481763" lon="121.03127100594743"><ele>22.5</ele><time>2026-05-02T06:07:55Z</time></trkpt><trkpt lat="14.51347149711094" lon="121.0313227173953"><ele>22.0</ele><time>2026-05-02T06:07:56Z</time></trkpt><trkpt lat="14.513382056324353" lon="121.03137060978362"><ele>22.0</ele><time>2026-05-02T06:07:57Z</time></trkpt><trkpt lat="14.513302332024523" lon="121.03141365660512"><ele>22.0</ele><time>2026-05-02T06:07:58Z</time></trkpt><trkpt lat="14.513233226623957" lon="121.03145020755764"><ele>22.0</ele><time>2026-05-02T06:07:59Z</time></trkpt><trkpt lat="14.51317405011537" lon="121.0314822042587"><ele>22.0</ele><time>2026-05-02T06:08:00Z</time></trkpt><trkpt lat="14.51311811105918" lon="121.03151242934425"><ele>22.0</ele><time>2026-05-02T06:08:01Z</time></trkpt><trkpt lat="14.513021039891637" lon="121.03156737362372"><ele>22.0</ele><time>2026-05-02T06:08:03Z</time></trkpt><trkpt lat="14.512945471521794" lon="121.03160810942583"><ele>22.6</ele><time>2026-05-02T06:08:05Z</time></trkpt><trkpt lat="14.512870231710057" lon="121.0316490306402"><ele>23.200000000000003</ele><time>2026-05-02T06:08:08Z</time></trkpt><trkpt lat="14.512789223331984" lon="121.03169154110148"><ele>23.8</ele><time>2026-05-02T06:08:10Z</time></trkpt><trkpt lat="14.512674517972506" lon="121.03175313295097"><ele>24.4</ele><time>2026-05-02T06:08:12Z</time></trkpt><trkpt lat="14.512594546028575" lon="121.03179385660685"><ele>25.0</ele><time>2026-05-02T06:08:13Z</time></trkpt><trkpt lat="14.512517174384897" lon="121.03183994561236"><ele>25.0</ele><time>2026-05-02T06:08:14Z</time></trkpt><trkpt lat="14.512427505031765" lon="121.03189198885165"><ele>25.0</ele><time>2026-05-02T06:08:15Z</time></trkpt><trkpt lat="14.512336785678423" lon="121.03194261023023"><ele>25.0</ele><time>2026-05-02T06:08:16Z</time></trkpt><trkpt lat="14.512241092239929" lon="121.03199536618523"><ele>25.0</ele><time>2026-05-02T06:08:17Z</time></trkpt><trkpt lat="14.512138222204081" lon="121.03205004593596"><ele>25.0</ele><time>2026-05-02T06:08:18Z</time></trkpt><trkpt lat="14.512028735588276" lon="121.03210723924803"><ele>24.75</ele><time>2026-05-02T06:08:19Z</time></trkpt><trkpt lat="14.511915912164483" lon="121.03216666803128"><ele>24.5</ele><time>2026-05-02T06:08:20Z</time></trkpt><trkpt lat="14.5117979782183" lon="121.03222638979736"><ele>24.25</ele><time>2026-05-02T06:08:21Z</time></trkpt><trkpt lat="14.511676450222774" lon="121.03228535515476"><ele>24.0</ele><time>2026-05-02T06:08:22Z</time></trkpt><trkpt lat="14.511551368442609" lon="121.03234710799715"><ele>24.0</ele><time>2026-05-02T06:08:23Z</time></trkpt><trkpt lat="14.511423707390838" lon="121.0324129219187"><ele>24.0</ele><time>2026-05-02T06:08:24Z</time></trkpt><trkpt lat="14.511293959324664" lon="121.03248322296815"><ele>24.0</ele><time>2026-05-02T06:08:25Z</time></trkpt><trkpt lat="14.511161302885535" lon="121.03255710166428"><ele>24.0</ele><time>2026-05-02T06:08:26Z</time></trkpt><trkpt lat="14.511026155892052" lon="121.03263264353063"><ele>25.0</ele><time>2026-05-02T06:08:27Z</time></trkpt><trkpt lat="14.510886188650879" lon="121.032715882006"><ele>26.0</ele><time>2026-05-02T06:08:28Z</time></trkpt><trkpt lat="14.510740253321671" lon="121.03280185839706"><ele>27.0</ele><time>2026-05-02T06:08:29Z</time></trkpt><trkpt lat="14.510592006868322" lon="121.03288233102727"><ele>27.0</ele><time>2026-05-02T06:08:30Z</time></trkpt><trkpt lat="14.510440265018813" lon="121.0329641185702"><ele>27.0</ele><time>2026-05-02T06:08:31Z</time></trkpt><trkpt lat="14.510287049661702" lon="121.03304775288964"><ele>27.0</ele><time>2026-05-02T06:08:32Z</time></trkpt><trkpt lat="14.510129766696915" lon="121.03312687337925"><ele>26.333333333333336</ele><time>2026-05-02T06:08:33Z</time></trkpt><trkpt lat="14.509968806492708" lon="121.03321164874697"><ele>25.666666666666668</ele><time>2026-05-02T06:08:34Z</time></trkpt><trkpt lat="14.50980538468132" lon="121.03329939414868"><ele>25.0</ele><time>2026-05-02T06:08:35Z</time></trkpt><trkpt lat="14.509638770265031" lon="121.03338931150392"><ele>24.0</ele><time>2026-05-02T06:08:36Z</time></trkpt><trkpt lat="14.509469412030837" lon="121.033480708659"><ele>23.0</ele><time>2026-05-02T06:08:37Z</time></trkpt><trkpt lat="14.509296984014034" lon="121.03357417930893"><ele>22.0</ele><time>2026-05-02T06:08:38Z</time></trkpt><trkpt lat="14.509122558518643" lon="121.03366884362944"><ele>22.0</ele><time>2026-05-02T06:08:39.001Z</time></trkpt><trkpt lat="14.508946444375436" lon="121.03376434116059"><ele>22.0</ele><time>2026-05-02T06:08:40.001Z</time></trkpt><trkpt lat="14.508770480377914" lon="121.0338603015882"><ele>22.0</ele><time>2026-05-02T06:08:41.001Z</time></trkpt><trkpt lat="14.508592021873891" lon="121.03395704644714"><ele>21.666666666666664</ele><time>2026-05-02T06:08:42.001Z</time></trkpt><trkpt lat="14.508412512720598" lon="121.03405536699923"><ele>21.333333333333332</ele><time>2026-05-02T06:08:43.001Z</time></trkpt><trkpt lat="14.508229867199672" lon="121.03415594652301"><ele>21.0</ele><time>2026-05-02T06:08:44.001Z</time></trkpt><trkpt lat="14.508047839564618" lon="121.03425162471355"><ele>20.0</ele><time>2026-05-02T06:08:45.001Z</time></trkpt><trkpt lat="14.507865469016634" lon="121.03434891177177"><ele>19.0</ele><time>2026-05-02T06:08:46.001Z</time></trkpt><trkpt lat="14.507683974225058" lon="121.03444685767835"><ele>18.0</ele><time>2026-05-02T06:08:47.001Z</time></trkpt><trkpt lat="14.507503672157014" lon="121.03454513994792"><ele>18.0</ele><time>2026-05-02T06:08:48.001Z</time></trkpt><trkpt lat="14.507327423980852" lon="121.03464139385741"><ele>18.0</ele><time>2026-05-02T06:08:49.001Z</time></trkpt><trkpt lat="14.507150979527392" lon="121.03473601609409"><ele>18.0</ele><time>2026-05-02T06:08:50.001Z</time></trkpt><trkpt lat="14.506976361264629" lon="121.03482816167462"><ele>17.666666666666668</ele><time>2026-05-02T06:08:51.001Z</time></trkpt><trkpt lat="14.506802724144343" lon="121.03491892238038"><ele>17.333333333333336</ele><time>2026-05-02T06:08:52.001Z</time></trkpt><trkpt lat="14.506631259671527" lon="121.03501075540653"><ele>17.0</ele><time>2026-05-02T06:08:53.001Z</time></trkpt><trkpt lat="14.50646039269608" lon="121.03510112620151"><ele>17.666666666666668</ele><time>2026-05-02T06:08:54.001Z</time></trkpt><trkpt lat="14.506288385610638" lon="121.03519176099707"><ele>18.333333333333332</ele><time>2026-05-02T06:08:55.001Z</time></trkpt><trkpt lat="14.506115852869632" lon="121.03528214026805"><ele>19.0</ele><time>2026-05-02T06:08:56.001Z</time></trkpt><trkpt lat="14.505944507897636" lon="121.03537354970251"><ele>17.666666666666664</ele><time>2026-05-02T06:08:57.001Z</time></trkpt><trkpt lat="14.505774908307274" lon="121.03546479456503"><ele>16.333333333333332</ele><time>2026-05-02T06:08:58.001Z</time></trkpt><trkpt lat="14.505606121242419" lon="121.03555623961782"><ele>15.0</ele><time>2026-05-02T06:08:59.001Z</time></trkpt><trkpt lat="14.505437363009095" lon="121.03564747360178"><ele>15.0</ele><time>2026-05-02T06:09:00.001Z</time></trkpt><trkpt lat="14.505271211834945" lon="121.03573790145774"><ele>15.0</ele><time>2026-05-02T06:09:01.001Z</time></trkpt><trkpt lat="14.505108355967415" lon="121.03582717564612"><ele>15.0</ele><time>2026-05-02T06:09:02.001Z</time></trkpt><trkpt lat="14.50494838258972" lon="121.03591492234428"><ele>16.333333333333332</ele><time>2026-05-02T06:09:03.001Z</time></trkpt><trkpt lat="14.504791029677847" lon="121.036002278568"><ele>17.666666666666664</ele><time>2026-05-02T06:09:04.001Z</time></trkpt><trkpt lat="14.504635481734855" lon="121.03608728046447"><ele>19.0</ele><time>2026-05-02T06:09:05.001Z</time></trkpt><trkpt lat="14.504480536450336" lon="121.03617293542541"><ele>19.666666666666664</ele><time>2026-05-02T06:09:06.001Z</time></trkpt><trkpt lat="14.504326219007758" lon="121.03625437542853"><ele>20.333333333333332</ele><time>2026-05-02T06:09:07.001Z</time></trkpt><trkpt lat="14.504170754888221" lon="121.036338340428"><ele>21.0</ele><time>2026-05-02T06:09:08.001Z</time></trkpt><trkpt lat="14.504015452494512" lon="121.03642253575849"><ele>21.0</ele><time>2026-05-02T06:09:09.001Z</time></trkpt><trkpt lat="14.503861991186826" lon="121.03650693536015"><ele>21.0</ele><time>2026-05-02T06:09:10.001Z</time></trkpt><trkpt lat="14.503706116531925" lon="121.03660436866241"><ele>21.0</ele><time>2026-05-02T06:09:11.001Z</time></trkpt><trkpt lat="14.503546526651064" lon="121.03670063760784"><ele>21.666666666666668</ele><time>2026-05-02T06:09:12.001Z</time></trkpt><trkpt lat="14.503390619911315" lon="121.03678085490571"><ele>22.333333333333336</ele><time>2026-05-02T06:09:13.001Z</time></trkpt><trkpt lat="14.503219659529101" lon="121.0368547601984"><ele>23.0</ele><time>2026-05-02T06:09:14.001Z</time></trkpt><trkpt lat="14.50306179196931" lon="121.03693202800677"><ele>22.666666666666668</ele><time>2026-05-02T06:09:15.001Z</time></trkpt><trkpt lat="14.502905025018682" lon="121.03701591861531"><ele>22.333333333333332</ele><time>2026-05-02T06:09:16.001Z</time></trkpt><trkpt lat="14.502750019431723" lon="121.03709882675301"><ele>22.0</ele><time>2026-05-02T06:09:17.001Z</time></trkpt><trkpt lat="14.50258722378494" lon="121.03719014137427"><ele>22.0</ele><time>2026-05-02T06:09:18.001Z</time></trkpt><trkpt lat="14.502428034055146" lon="121.03728462675929"><ele>22.0</ele><time>2026-05-02T06:09:19.001Z</time></trkpt><trkpt lat="14.502264740657244" lon="121.03737362211695"><ele>22.0</ele><time>2026-05-02T06:09:20.001Z</time></trkpt><trkpt lat="14.502093810023718" lon="121.03747014485768"><ele>23.0</ele><time>2026-05-02T06:09:21.001Z</time></trkpt><trkpt lat="14.501918817887992" lon="121.03756506260848"><ele>24.0</ele><time>2026-05-02T06:09:22.001Z</time></trkpt><trkpt lat="14.501740217945676" lon="121.03765915013093"><ele>25.0</ele><time>2026-05-02T06:09:23.001Z</time></trkpt><trkpt lat="14.501559211043936" lon="121.03775307187672"><ele>25.0</ele><time>2026-05-02T06:09:24.001Z</time></trkpt><trkpt lat="14.501376349553665" lon="121.03785173393274"><ele>25.0</ele><time>2026-05-02T06:09:25.001Z</time></trkpt><trkpt lat="14.50119871292377" lon="121.03794833517063"><ele>25.0</ele><time>2026-05-02T06:09:26.001Z</time></trkpt><trkpt lat="14.501012454005643" lon="121.0380466728145"><ele>24.666666666666668</ele><time>2026-05-02T06:09:27.001Z</time></trkpt><trkpt lat="14.500822406147012" lon="121.03815162901367"><ele>24.333333333333336</ele><time>2026-05-02T06:09:28.001Z</time></trkpt><trkpt lat="14.500628818486748" lon="121.03825795855718"><ele>24.0</ele><time>2026-05-02T06:09:29.001Z</time></trkpt><trkpt lat="14.500434880722842" lon="121.03835699094338"><ele>24.666666666666664</ele><time>2026-05-02T06:09:30.001Z</time></trkpt><trkpt lat="14.500242164494775" lon="121.03846029718989"><ele>25.333333333333332</ele><time>2026-05-02T06:09:31.001Z</time></trkpt><trkpt lat="14.500055038818495" lon="121.0385612921733"><ele>26.0</ele><time>2026-05-02T06:09:32.001Z</time></trkpt><trkpt lat="14.499871709332817" lon="121.03865962678142"><ele>26.0</ele><time>2026-05-02T06:09:33.001Z</time></trkpt><trkpt lat="14.49969257347006" lon="121.03875747793337"><ele>26.0</ele><time>2026-05-02T06:09:34.001Z</time></trkpt><trkpt lat="14.499514715888303" lon="121.03885575090838"><ele>26.0</ele><time>2026-05-02T06:09:35.001Z</time></trkpt><trkpt lat="14.49931997345666" lon="121.03895050028095"><ele>26.0</ele><time>2026-05-02T06:09:36.001Z</time></trkpt><trkpt lat="14.499142996073052" lon="121.03903379785385"><ele>26.0</ele><time>2026-05-02T06:09:37.001Z</time></trkpt><trkpt lat="14.498972733825605" lon="121.03911051806098"><ele>26.0</ele><time>2026-05-02T06:09:38.001Z</time></trkpt><trkpt lat="14.498800452227107" lon="121.03920034691669"><ele>27.666666666666664</ele><time>2026-05-02T06:09:39.001Z</time></trkpt><trkpt lat="14.49862906573348" lon="121.0392856093491"><ele>29.333333333333336</ele><time>2026-05-02T06:09:40.001Z</time></trkpt><trkpt lat="14.498421201696766" lon="121.0393702877295"><ele>31.0</ele><time>2026-05-02T06:09:41.001Z</time></trkpt><trkpt lat="14.498239243243692" lon="121.03946271964944"><ele>31.0</ele><time>2026-05-02T06:09:42.001Z</time></trkpt><trkpt lat="14.49805764240525" lon="121.03954332284711"><ele>31.0</ele><time>2026-05-02T06:09:43.001Z</time></trkpt><trkpt lat="14.497861391268577" lon="121.03962446407424"><ele>31.0</ele><time>2026-05-02T06:09:44.001Z</time></trkpt><trkpt lat="14.497680505772163" lon="121.03972239669224"><ele>31.333333333333336</ele><time>2026-05-02T06:09:45.001Z</time></trkpt><trkpt lat="14.497494817361444" lon="121.03982199640552"><ele>31.666666666666664</ele><time>2026-05-02T06:09:46.001Z</time></trkpt><trkpt lat="14.497310403581373" lon="121.03991783220899"><ele>32.0</ele><time>2026-05-02T06:09:47.001Z</time></trkpt><trkpt lat="14.497128658135063" lon="121.04001790612114"><ele>30.333333333333332</ele><time>2026-05-02T06:09:48.001Z</time></trkpt><trkpt lat="14.496948665125435" lon="121.04011356225924"><ele>28.666666666666664</ele><time>2026-05-02T06:09:49.001Z</time></trkpt><trkpt lat="14.49677791912003" lon="121.04020306449556"><ele>27.0</ele><time>2026-05-02T06:09:50.001Z</time></trkpt><trkpt lat="14.496608217451548" lon="121.04029296385347"><ele>27.0</ele><time>2026-05-02T06:09:51Z</time></trkpt><trkpt lat="14.496438585776204" lon="121.0403863582878"><ele>27.0</ele><time>2026-05-02T06:09:52Z</time></trkpt><trkpt lat="14.496265402820582" lon="121.0404832534722"><ele>27.0</ele><time>2026-05-02T06:09:53Z</time></trkpt><trkpt lat="14.496093451158565" lon="121.04057445815334"><ele>26.666666666666664</ele><time>2026-05-02T06:09:54Z</time></trkpt><trkpt lat="14.495935053555254" lon="121.04066274479565"><ele>26.333333333333332</ele><time>2026-05-02T06:09:55Z</time></trkpt><trkpt lat="14.495771372470923" lon="121.04075320086348"><ele>26.0</ele><time>2026-05-02T06:09:56Z</time></trkpt><trkpt lat="14.495607904120481" lon="121.04085099931987"><ele>26.0</ele><time>2026-05-02T06:09:57Z</time></trkpt><trkpt lat="14.495445511882197" lon="121.0409366677265"><ele>26.0</ele><time>2026-05-02T06:09:58Z</time></trkpt><trkpt lat="14.495286395492132" lon="121.04101478813541"><ele>26.0</ele><time>2026-05-02T06:09:59Z</time></trkpt><trkpt lat="14.495164920714629" lon="121.04111872627918"><ele>26.0</ele><time>2026-05-02T06:10:00Z</time></trkpt><trkpt lat="14.49502138484653" lon="121.04119101558686"><ele>26.0</ele><time>2026-05-02T06:10:01Z</time></trkpt><trkpt lat="14.4948896053601" lon="121.04126505875868"><ele>26.0</ele><time>2026-05-02T06:10:02Z</time></trkpt><trkpt lat="14.49475022735982" lon="121.04134850122973"><ele>26.0</ele><time>2026-05-02T06:10:03Z</time></trkpt><trkpt lat="14.494617650322565" lon="121.04142530471552"><ele>26.0</ele><time>2026-05-02T06:10:04Z</time></trkpt><trkpt lat="14.49448567827209" lon="121.04150203962537"><ele>26.0</ele><time>2026-05-02T06:10:05Z</time></trkpt><trkpt lat="14.494354821362329" lon="121.04157641260173"><ele>26.25</ele><time>2026-05-02T06:10:06Z</time></trkpt><trkpt lat="14.49422381819986" lon="121.0416596039253"><ele>26.5</ele><time>2026-05-02T06:10:07Z</time></trkpt><trkpt lat="14.49409862405251" lon="121.04173106960927"><ele>26.75</ele><time>2026-05-02T06:10:08Z</time></trkpt><trkpt lat="14.493981217883547" lon="121.04180050565184"><ele>27.0</ele><time>2026-05-02T06:10:09Z</time></trkpt><trkpt lat="14.49386257191456" lon="121.04186948390881"><ele>27.25</ele><time>2026-05-02T06:10:10Z</time></trkpt><trkpt lat="14.493750804096821" lon="121.04192994532416"><ele>27.5</ele><time>2026-05-02T06:10:11Z</time></trkpt><trkpt lat="14.493638241292741" lon="121.04199177537474"><ele>27.75</ele><time>2026-05-02T06:10:12Z</time></trkpt><trkpt lat="14.49352506403107" lon="121.04205528740765"><ele>28.0</ele><time>2026-05-02T06:10:13Z</time></trkpt><trkpt lat="14.493409617982918" lon="121.04212042329347"><ele>28.0</ele><time>2026-05-02T06:10:14Z</time></trkpt><trkpt lat="14.493306182168313" lon="121.04217442712886"><ele>28.0</ele><time>2026-05-02T06:10:15Z</time></trkpt><trkpt lat="14.493188063290706" lon="121.04224054878803"><ele>28.0</ele><time>2026-05-02T06:10:16Z</time></trkpt><trkpt lat="14.493070832823632" lon="121.0423056470018"><ele>28.0</ele><time>2026-05-02T06:10:17Z</time></trkpt><trkpt lat="14.492951001489779" lon="121.042372521175"><ele>30.333333333333336</ele><time>2026-05-02T06:10:18Z</time></trkpt><trkpt lat="14.492831451365165" lon="121.04243660276498"><ele>32.666666666666664</ele><time>2026-05-02T06:10:19Z</time></trkpt><trkpt lat="14.492694309392801" lon="121.04251728470965"><ele>35.0</ele><time>2026-05-02T06:10:20Z</time></trkpt><trkpt lat="14.49254322763511" lon="121.04260432026877"><ele>35.5</ele><time>2026-05-02T06:10:21Z</time></trkpt><trkpt lat="14.492413392267594" lon="121.04267498976195"><ele>36.0</ele><time>2026-05-02T06:10:22Z</time></trkpt><trkpt lat="14.492292143040618" lon="121.04273892888516"><ele>36.5</ele><time>2026-05-02T06:10:23Z</time></trkpt><trkpt lat="14.492154554121225" lon="121.04281822078622"><ele>37.0</ele><time>2026-05-02T06:10:24Z</time></trkpt><trkpt lat="14.492014497361676" lon="121.04289751352293"><ele>37.333333333333336</ele><time>2026-05-02T06:10:25Z</time></trkpt><trkpt lat="14.491875347379736" lon="121.04297572065283"><ele>37.666666666666664</ele><time>2026-05-02T06:10:26Z</time></trkpt><trkpt lat="14.491736530858567" lon="121.0430526416338"><ele>38.0</ele><time>2026-05-02T06:10:27Z</time></trkpt><trkpt lat="14.491596656621773" lon="121.04313024552576"><ele>38.0</ele><time>2026-05-02T06:10:28Z</time></trkpt><trkpt lat="14.491458185708158" lon="121.04320658192343"><ele>38.0</ele><time>2026-05-02T06:10:29Z</time></trkpt><trkpt lat="14.491319762082519" lon="121.04328263443972"><ele>38.0</ele><time>2026-05-02T06:10:30Z</time></trkpt><trkpt lat="14.491182852031612" lon="121.04335694028727"><ele>37.6</ele><time>2026-05-02T06:10:31Z</time></trkpt><trkpt lat="14.491049613811084" lon="121.04342981636543"><ele>37.199999999999996</ele><time>2026-05-02T06:10:32Z</time></trkpt><trkpt lat="14.49093196980474" lon="121.04348735926037"><ele>36.8</ele><time>2026-05-02T06:10:33Z</time></trkpt><trkpt lat="14.49086467104831" lon="121.04346737893759"><ele>36.4</ele><time>2026-05-02T06:10:34Z</time></trkpt><trkpt lat="14.490777136840393" lon="121.04347441325125"><ele>36.0</ele><time>2026-05-02T06:10:35Z</time></trkpt><trkpt lat="14.490655384019304" lon="121.0435401814519"><ele>36.0</ele><time>2026-05-02T06:10:36Z</time></trkpt><trkpt lat="14.490557056370383" lon="121.04359041334527"><ele>36.0</ele><time>2026-05-02T06:10:37Z</time></trkpt><trkpt lat="14.490466178858451" lon="121.04370193333948"><ele>36.0</ele><time>2026-05-02T06:10:38Z</time></trkpt><trkpt lat="14.490386968958937" lon="121.04376959055146"><ele>36.0</ele><time>2026-05-02T06:10:39Z</time></trkpt><trkpt lat="14.490240098411528" lon="121.0438106245985"><ele>35.5</ele><time>2026-05-02T06:10:41Z</time></trkpt><trkpt lat="14.490119371713947" lon="121.04386936935309"><ele>35.0</ele><time>2026-05-02T06:10:42Z</time></trkpt><trkpt lat="14.489980037822576" lon="121.0439369918945"><ele>34.5</ele><time>2026-05-02T06:10:43Z</time></trkpt><trkpt lat="14.489853759335684" lon="121.04400489904407"><ele>34.0</ele><time>2026-05-02T06:10:44Z</time></trkpt><trkpt lat="14.489717360319029" lon="121.04407183106179"><ele>32.333333333333336</ele><time>2026-05-02T06:10:45Z</time></trkpt><trkpt lat="14.489571424638324" lon="121.0441405127237"><ele>30.666666666666664</ele><time>2026-05-02T06:10:46Z</time></trkpt><trkpt lat="14.48944149780234" lon="121.04419288572063"><ele>29.0</ele><time>2026-05-02T06:10:47Z</time></trkpt><trkpt lat="14.48929995003185" lon="121.04425938131729"><ele>29.0</ele><time>2026-05-02T06:10:48Z</time></trkpt><trkpt lat="14.48916274308379" lon="121.04431515663651"><ele>29.0</ele><time>2026-05-02T06:10:49Z</time></trkpt><trkpt lat="14.489032323484437" lon="121.04436474356507"><ele>29.0</ele><time>2026-05-02T06:10:50Z</time></trkpt><trkpt lat="14.488901107599508" lon="121.0444095560042"><ele>29.0</ele><time>2026-05-02T06:10:51Z</time></trkpt><trkpt lat="14.488765452584586" lon="121.04445358757914"><ele>30.5</ele><time>2026-05-02T06:10:52Z</time></trkpt><trkpt lat="14.488631404008268" lon="121.04450449985299"><ele>32.0</ele><time>2026-05-02T06:10:53Z</time></trkpt><trkpt lat="14.488494534496661" lon="121.04455113037817"><ele>33.5</ele><time>2026-05-02T06:10:54Z</time></trkpt><trkpt lat="14.488358673179334" lon="121.04459194397656"><ele>35.0</ele><time>2026-05-02T06:10:55.001Z</time></trkpt><trkpt lat="14.488224098034268" lon="121.04463532170273"><ele>35.0</ele><time>2026-05-02T06:10:56.001Z</time></trkpt><trkpt lat="14.48808722930921" lon="121.04467534774015"><ele>35.0</ele><time>2026-05-02T06:10:57.001Z</time></trkpt><trkpt lat="14.487948273890364" lon="121.04471248572416"><ele>35.0</ele><time>2026-05-02T06:10:58.001Z</time></trkpt><trkpt lat="14.487809306099521" lon="121.04474931297"><ele>35.0</ele><time>2026-05-02T06:10:59.001Z</time></trkpt><trkpt lat="14.48766809349193" lon="121.04478300993621"><ele>34.0</ele><time>2026-05-02T06:11:00.001Z</time></trkpt><trkpt lat="14.487524531626338" lon="121.04481720050279"><ele>33.0</ele><time>2026-05-02T06:11:01.001Z</time></trkpt><trkpt lat="14.487376195260815" lon="121.0448501727977"><ele>32.0</ele><time>2026-05-02T06:11:02.001Z</time></trkpt><trkpt lat="14.48722754981497" lon="121.04487946261087"><ele>32.0</ele><time>2026-05-02T06:11:03.001Z</time></trkpt><trkpt lat="14.487075827814069" lon="121.04490833614592"><ele>32.0</ele><time>2026-05-02T06:11:04.001Z</time></trkpt><trkpt lat="14.486920737395616" lon="121.04493697315587"><ele>32.0</ele><time>2026-05-02T06:11:05.001Z</time></trkpt><trkpt lat="14.486764178320081" lon="121.04496322665959"><ele>32.666666666666664</ele><time>2026-05-02T06:11:06.001Z</time></trkpt><trkpt lat="14.486604589205642" lon="121.04498716869871"><ele>33.333333333333336</ele><time>2026-05-02T06:11:07.001Z</time></trkpt><trkpt lat="14.486449144049478" lon="121.0450076902955"><ele>34.0</ele><time>2026-05-02T06:11:08.001Z</time></trkpt><trkpt lat="14.486303317736256" lon="121.0450349458108"><ele>34.333333333333336</ele><time>2026-05-02T06:11:09.001Z</time></trkpt><trkpt lat="14.48613691675582" lon="121.04504761489707"><ele>34.666666666666664</ele><time>2026-05-02T06:11:10.001Z</time></trkpt><trkpt lat="14.48598134517795" lon="121.04506366674342"><ele>35.0</ele><time>2026-05-02T06:11:11.001Z</time></trkpt><trkpt lat="14.485824957744418" lon="121.04507667537843"><ele>35.0</ele><time>2026-05-02T06:11:12.001Z</time></trkpt><trkpt lat="14.485672394943315" lon="121.04507976849902"><ele>35.0</ele><time>2026-05-02T06:11:13.001Z</time></trkpt><trkpt lat="14.485501183511388" lon="121.04509558296661"><ele>35.0</ele><time>2026-05-02T06:11:14.001Z</time></trkpt><trkpt lat="14.485334687567976" lon="121.0451086855651"><ele>33.33333333333333</ele><time>2026-05-02T06:11:15.001Z</time></trkpt><trkpt lat="14.485167896454811" lon="121.04512082042511"><ele>31.666666666666664</ele><time>2026-05-02T06:11:16.001Z</time></trkpt><trkpt lat="14.48500699783764" lon="121.04512675532473"><ele>30.0</ele><time>2026-05-02T06:11:17.001Z</time></trkpt><trkpt lat="14.484831180255258" lon="121.04512602354548"><ele>30.0</ele><time>2026-05-02T06:11:18.001Z</time></trkpt><trkpt lat="14.484670121103896" lon="121.04512428793919"><ele>30.0</ele><time>2026-05-02T06:11:19.001Z</time></trkpt><trkpt lat="14.484493340677085" lon="121.0451242149076"><ele>30.0</ele><time>2026-05-02T06:11:20.001Z</time></trkpt><trkpt lat="14.484337457024434" lon="121.04512560955008"><ele>30.333333333333336</ele><time>2026-05-02T06:11:21.001Z</time></trkpt><trkpt lat="14.484173890706662" lon="121.04512673134872"><ele>30.666666666666668</ele><time>2026-05-02T06:11:22.001Z</time></trkpt><trkpt lat="14.484014464726098" lon="121.0451266823346"><ele>31.0</ele><time>2026-05-02T06:11:23.001Z</time></trkpt><trkpt lat="14.483833040590744" lon="121.04511726459022"><ele>31.333333333333336</ele><time>2026-05-02T06:11:24.001Z</time></trkpt><trkpt lat="14.48367037673918" lon="121.04512220017132"><ele>31.666666666666664</ele><time>2026-05-02T06:11:25.001Z</time></trkpt><trkpt lat="14.483479795534388" lon="121.0451141869229"><ele>32.0</ele><time>2026-05-02T06:11:26.001Z</time></trkpt><trkpt lat="14.483293742865268" lon="121.0451193878633"><ele>32.0</ele><time>2026-05-02T06:11:27.001Z</time></trkpt><trkpt lat="14.48312263993435" lon="121.04511458476891"><ele>32.0</ele><time>2026-05-02T06:11:28.001Z</time></trkpt><trkpt lat="14.482959626460515" lon="121.04511596354443"><ele>32.0</ele><time>2026-05-02T06:11:29.001Z</time></trkpt><trkpt lat="14.48281161038461" lon="121.04511665346882"><ele>32.33333333333333</ele><time>2026-05-02T06:11:30.001Z</time></trkpt><trkpt lat="14.482641049368407" lon="121.04512912497043"><ele>32.666666666666664</ele><time>2026-05-02T06:11:31.001Z</time></trkpt><trkpt lat="14.482476062796438" lon="121.04515127634268"><ele>33.0</ele><time>2026-05-02T06:11:32.001Z</time></trkpt><trkpt lat="14.482292138692308" lon="121.04516854539393"><ele>33.0</ele><time>2026-05-02T06:11:33.001Z</time></trkpt><trkpt lat="14.48210478586756" lon="121.04516893549874"><ele>33.0</ele><time>2026-05-02T06:11:34.001Z</time></trkpt><trkpt lat="14.48190882242345" lon="121.04517139053249"><ele>33.0</ele><time>2026-05-02T06:11:35.001Z</time></trkpt><trkpt lat="14.481728424954577" lon="121.04515845742559"><ele>33.0</ele><time>2026-05-02T06:11:36.001Z</time></trkpt><trkpt lat="14.481557109703013" lon="121.04515994538518"><ele>33.0</ele><time>2026-05-02T06:11:37.001Z</time></trkpt><trkpt lat="14.481405707412097" lon="121.04516126039304"><ele>33.0</ele><time>2026-05-02T06:11:38.001Z</time></trkpt><trkpt lat="14.481228718725012" lon="121.04517854173318"><ele>32.666666666666664</ele><time>2026-05-02T06:11:39.001Z</time></trkpt><trkpt lat="14.481034940538686" lon="121.04517530582548"><ele>32.33333333333333</ele><time>2026-05-02T06:11:40.001Z</time></trkpt><trkpt lat="14.480835375257632" lon="121.04516325313566"><ele>32.0</ele><time>2026-05-02T06:11:41.001Z</time></trkpt><trkpt lat="14.48062327818175" lon="121.04515366082005"><ele>32.33333333333333</ele><time>2026-05-02T06:11:42.001Z</time></trkpt><trkpt lat="14.48042195950282" lon="121.04514388400676"><ele>32.666666666666664</ele><time>2026-05-02T06:11:43.001Z</time></trkpt><trkpt lat="14.480237033085396" lon="121.04513416503575"><ele>33.0</ele><time>2026-05-02T06:11:44.001Z</time></trkpt><trkpt lat="14.480060742372906" lon="121.04512797093497"><ele>33.0</ele><time>2026-05-02T06:11:45.001Z</time></trkpt><trkpt lat="14.479876539580365" lon="121.04512263741358"><ele>33.0</ele><time>2026-05-02T06:11:46.001Z</time></trkpt><trkpt lat="14.479679884100326" lon="121.04512184605593"><ele>33.0</ele><time>2026-05-02T06:11:47.001Z</time></trkpt><trkpt lat="14.479494381688106" lon="121.0451220420222"><ele>33.666666666666664</ele><time>2026-05-02T06:11:48.001Z</time></trkpt><trkpt lat="14.47931177936467" lon="121.04512515978101"><ele>34.33333333333333</ele><time>2026-05-02T06:11:49.001Z</time></trkpt><trkpt lat="14.479132173644985" lon="121.04513007009666"><ele>35.0</ele><time>2026-05-02T06:11:50.001Z</time></trkpt><trkpt lat="14.478946705169559" lon="121.04513464712451"><ele>35.0</ele><time>2026-05-02T06:11:51.001Z</time></trkpt><trkpt lat="14.478766287964236" lon="121.0451355994332"><ele>35.0</ele><time>2026-05-02T06:11:52.001Z</time></trkpt><trkpt lat="14.478567846579319" lon="121.04514037073194"><ele>35.0</ele><time>2026-05-02T06:11:53.001Z</time></trkpt><trkpt lat="14.478382512825975" lon="121.0451431264953"><ele>35.0</ele><time>2026-05-02T06:11:54.001Z</time></trkpt><trkpt lat="14.478206059417897" lon="121.04514578771817"><ele>35.0</ele><time>2026-05-02T06:11:55.001Z</time></trkpt><trkpt lat="14.478029105135578" lon="121.04515103208898"><ele>35.0</ele><time>2026-05-02T06:11:56.001Z</time></trkpt><trkpt lat="14.47785191984993" lon="121.04514880643703"><ele>34.33333333333333</ele><time>2026-05-02T06:11:57Z</time></trkpt><trkpt lat="14.47768148307904" lon="121.04514533468291"><ele>33.666666666666664</ele><time>2026-05-02T06:11:58Z</time></trkpt><trkpt lat="14.477504368046358" lon="121.04514314536415"><ele>33.0</ele><time>2026-05-02T06:11:59Z</time></trkpt><trkpt lat="14.477324655107406" lon="121.04514486636201"><ele>33.0</ele><time>2026-05-02T06:12:00Z</time></trkpt><trkpt lat="14.47714303014032" lon="121.04514373953414"><ele>33.0</ele><time>2026-05-02T06:12:01Z</time></trkpt><trkpt lat="14.476961558247844" lon="121.04514375332094"><ele>33.0</ele><time>2026-05-02T06:12:02Z</time></trkpt><trkpt lat="14.476782633280108" lon="121.0451384790948"><ele>34.0</ele><time>2026-05-02T06:12:03Z</time></trkpt><trkpt lat="14.476598664727177" lon="121.04513953010408"><ele>35.0</ele><time>2026-05-02T06:12:04Z</time></trkpt><trkpt lat="14.476415922192546" lon="121.04513719025115"><ele>36.0</ele><time>2026-05-02T06:12:05Z</time></trkpt><trkpt lat="14.476237505698604" lon="121.04513303646065"><ele>36.333333333333336</ele><time>2026-05-02T06:12:06Z</time></trkpt><trkpt lat="14.476057225636803" lon="121.04513009979978"><ele>36.66666666666667</ele><time>2026-05-02T06:12:07Z</time></trkpt><trkpt lat="14.475873058880607" lon="121.04513050834514"><ele>37.0</ele><time>2026-05-02T06:12:08Z</time></trkpt><trkpt lat="14.475686035692604" lon="121.04512572441767"><ele>37.0</ele><time>2026-05-02T06:12:09Z</time></trkpt><trkpt lat="14.475498376288758" lon="121.04512387971016"><ele>37.0</ele><time>2026-05-02T06:12:10Z</time></trkpt><trkpt lat="14.475311775166901" lon="121.04512243001649"><ele>37.0</ele><time>2026-05-02T06:12:11Z</time></trkpt><trkpt lat="14.475121418382788" lon="121.04512134116685"><ele>36.66666666666667</ele><time>2026-05-02T06:12:12Z</time></trkpt><trkpt lat="14.474940085019055" lon="121.04512719494143"><ele>36.333333333333336</ele><time>2026-05-02T06:12:13Z</time></trkpt><trkpt lat="14.474762281483091" lon="121.0451255333997"><ele>36.0</ele><time>2026-05-02T06:12:14Z</time></trkpt><trkpt lat="14.474580209404962" lon="121.04512437375071"><ele>35.666666666666664</ele><time>2026-05-02T06:12:15Z</time></trkpt><trkpt lat="14.474396617373557" lon="121.0451256047017"><ele>35.33333333333333</ele><time>2026-05-02T06:12:16Z</time></trkpt><trkpt lat="14.474210707758585" lon="121.04512807368128"><ele>35.0</ele><time>2026-05-02T06:12:17Z</time></trkpt><trkpt lat="14.474024777442136" lon="121.04512510890663"><ele>35.0</ele><time>2026-05-02T06:12:18Z</time></trkpt><trkpt lat="14.473841406838076" lon="121.04511905835442"><ele>35.0</ele><time>2026-05-02T06:12:19Z</time></trkpt><trkpt lat="14.473658840108843" lon="121.04511465823917"><ele>35.0</ele><time>2026-05-02T06:12:20Z</time></trkpt><trkpt lat="14.473478613645863" lon="121.04511571928803"><ele>34.0</ele><time>2026-05-02T06:12:21Z</time></trkpt><trkpt lat="14.473292914442334" lon="121.04511904041061"><ele>33.0</ele><time>2026-05-02T06:12:22Z</time></trkpt><trkpt lat="14.473106168601936" lon="121.04511573599285"><ele>32.0</ele><time>2026-05-02T06:12:23Z</time></trkpt><trkpt lat="14.47292360206043" lon="121.04511677744568"><ele>31.0</ele><time>2026-05-02T06:12:24Z</time></trkpt><trkpt lat="14.472741589778959" lon="121.04510509509839"><ele>30.0</ele><time>2026-05-02T06:12:25Z</time></trkpt><trkpt lat="14.47256102586346" lon="121.0451044473095"><ele>29.0</ele><time>2026-05-02T06:12:26Z</time></trkpt><trkpt lat="14.472389004531447" lon="121.04510544045836"><ele>29.0</ele><time>2026-05-02T06:12:27Z</time></trkpt><trkpt lat="14.472209150295344" lon="121.04512605342596"><ele>29.0</ele><time>2026-05-02T06:12:28Z</time></trkpt><trkpt lat="14.472034533321956" lon="121.04513504106797"><ele>29.0</ele><time>2026-05-02T06:12:29Z</time></trkpt><trkpt lat="14.471863280950092" lon="121.04513793072464"><ele>29.333333333333332</ele><time>2026-05-02T06:12:30Z</time></trkpt><trkpt lat="14.471691804853313" lon="121.04514074744955"><ele>29.666666666666664</ele><time>2026-05-02T06:12:31Z</time></trkpt><trkpt lat="14.47153176044299" lon="121.04514430983731"><ele>30.0</ele><time>2026-05-02T06:12:32Z</time></trkpt><trkpt lat="14.471396228792207" lon="121.04512075533621"><ele>30.333333333333336</ele><time>2026-05-02T06:12:33Z</time></trkpt><trkpt lat="14.471239543574276" lon="121.04509842566058"><ele>30.666666666666668</ele><time>2026-05-02T06:12:34Z</time></trkpt><trkpt lat="14.471068890957033" lon="121.04509521509046"><ele>31.0</ele><time>2026-05-02T06:12:35Z</time></trkpt><trkpt lat="14.470897547731107" lon="121.04510129216979"><ele>31.0</ele><time>2026-05-02T06:12:36Z</time></trkpt><trkpt lat="14.470736338622656" lon="121.04511268959948"><ele>31.0</ele><time>2026-05-02T06:12:37Z</time></trkpt><trkpt lat="14.470582290830361" lon="121.0451070515392"><ele>31.0</ele><time>2026-05-02T06:12:38Z</time></trkpt><trkpt lat="14.47042331959526" lon="121.04510474486275"><ele>31.0</ele><time>2026-05-02T06:12:39Z</time></trkpt><trkpt lat="14.470256072666105" lon="121.04510628467533"><ele>31.0</ele><time>2026-05-02T06:12:40Z</time></trkpt><trkpt lat="14.47009448628822" lon="121.04510679604583"><ele>31.0</ele><time>2026-05-02T06:12:41Z</time></trkpt><trkpt lat="14.469937868691543" lon="121.04510965064696"><ele>31.0</ele><time>2026-05-02T06:12:42Z</time></trkpt><trkpt lat="14.469796358319162" lon="121.04511634518227"><ele>31.0</ele><time>2026-05-02T06:12:43Z</time></trkpt><trkpt lat="14.469644258526602" lon="121.04511783641065"><ele>31.0</ele><time>2026-05-02T06:12:44Z</time></trkpt><trkpt lat="14.469495355090293" lon="121.04511645166826"><ele>31.0</ele><time>2026-05-02T06:12:45Z</time></trkpt><trkpt lat="14.469354563359154" lon="121.04512339293939"><ele>31.25</ele><time>2026-05-02T06:12:46Z</time></trkpt><trkpt lat="14.469216888885619" lon="121.04512486817144"><ele>31.5</ele><time>2026-05-02T06:12:47Z</time></trkpt><trkpt lat="14.469060160504958" lon="121.04512182661303"><ele>31.75</ele><time>2026-05-02T06:12:48Z</time></trkpt><trkpt lat="14.468915121138995" lon="121.04516239068265"><ele>32.0</ele><time>2026-05-02T06:12:49Z</time></trkpt><trkpt lat="14.46876615228387" lon="121.04516882101154"><ele>32.25</ele><time>2026-05-02T06:12:50Z</time></trkpt><trkpt lat="14.46862404079692" lon="121.04516345872106"><ele>32.5</ele><time>2026-05-02T06:12:51Z</time></trkpt><trkpt lat="14.468482056488794" lon="121.04516059902994"><ele>32.75</ele><time>2026-05-02T06:12:52Z</time></trkpt><trkpt lat="14.46832608678646" lon="121.04516492149273"><ele>33.0</ele><time>2026-05-02T06:12:53Z</time></trkpt><trkpt lat="14.468163544914582" lon="121.04516663190013"><ele>33.0</ele><time>2026-05-02T06:12:54Z</time></trkpt><trkpt lat="14.468017860613386" lon="121.04516406403287"><ele>33.0</ele><time>2026-05-02T06:12:55Z</time></trkpt><trkpt lat="14.467868620911418" lon="121.0451742138692"><ele>33.0</ele><time>2026-05-02T06:12:56Z</time></trkpt><trkpt lat="14.467715661980883" lon="121.04517255742337"><ele>33.0</ele><time>2026-05-02T06:12:57Z</time></trkpt><trkpt lat="14.467556113067767" lon="121.04517710363164"><ele>34.0</ele><time>2026-05-02T06:12:58Z</time></trkpt><trkpt lat="14.46740591216657" lon="121.04517550006422"><ele>35.0</ele><time>2026-05-02T06:12:59Z</time></trkpt><trkpt lat="14.467221354733756" lon="121.04518233552099"><ele>36.0</ele><time>2026-05-02T06:13:00Z</time></trkpt><trkpt lat="14.467056618327822" lon="121.04519390507113"><ele>36.666666666666664</ele><time>2026-05-02T06:13:01Z</time></trkpt><trkpt lat="14.466892132785862" lon="121.04519822844303"><ele>37.33333333333333</ele><time>2026-05-02T06:13:02Z</time></trkpt><trkpt lat="14.466742704833843" lon="121.04520694632842"><ele>38.0</ele><time>2026-05-02T06:13:03Z</time></trkpt><trkpt lat="14.466583717881589" lon="121.04521872532698"><ele>38.0</ele><time>2026-05-02T06:13:04Z</time></trkpt><trkpt lat="14.466426881979215" lon="121.0452343356841"><ele>38.0</ele><time>2026-05-02T06:13:05Z</time></trkpt><trkpt lat="14.466264354706688" lon="121.045238285656"><ele>38.0</ele><time>2026-05-02T06:13:06.001Z</time></trkpt><trkpt lat="14.466101516801071" lon="121.04523644086396"><ele>38.0</ele><time>2026-05-02T06:13:07.001Z</time></trkpt><trkpt lat="14.465948287658566" lon="121.04522291479792"><ele>38.0</ele><time>2026-05-02T06:13:08.001Z</time></trkpt><trkpt lat="14.465787655125833" lon="121.04523469542929"><ele>38.0</ele><time>2026-05-02T06:13:09.001Z</time></trkpt><trkpt lat="14.465637648819529" lon="121.04522844372036"><ele>38.0</ele><time>2026-05-02T06:13:10.001Z</time></trkpt><trkpt lat="14.465495154645376" lon="121.04522688411313"><ele>38.0</ele><time>2026-05-02T06:13:11.001Z</time></trkpt><trkpt lat="14.465357732019951" lon="121.04521348625526"><ele>38.0</ele><time>2026-05-02T06:13:12.001Z</time></trkpt><trkpt lat="14.465199561501894" lon="121.04520841299511"><ele>38.0</ele><time>2026-05-02T06:13:13.001Z</time></trkpt><trkpt lat="14.46505011006156" lon="121.0452055438194"><ele>38.0</ele><time>2026-05-02T06:13:14.001Z</time></trkpt><trkpt lat="14.464907130168562" lon="121.04520449642021"><ele>38.0</ele><time>2026-05-02T06:13:15.001Z</time></trkpt><trkpt lat="14.464764684587601" lon="121.0452046413347"><ele>38.0</ele><time>2026-05-02T06:13:16.001Z</time></trkpt><trkpt lat="14.4646240139985" lon="121.04520321818096"><ele>38.0</ele><time>2026-05-02T06:13:17.001Z</time></trkpt><trkpt lat="14.464481891357055" lon="121.04520287631283"><ele>38.0</ele><time>2026-05-02T06:13:18.001Z</time></trkpt><trkpt lat="14.464339388475787" lon="121.04520375507352"><ele>38.0</ele><time>2026-05-02T06:13:19.001Z</time></trkpt><trkpt lat="14.464188890263513" lon="121.04520609340312"><ele>38.0</ele><time>2026-05-02T06:13:20.001Z</time></trkpt><trkpt lat="14.464038242148828" lon="121.0452193757704"><ele>38.0</ele><time>2026-05-02T06:13:21.001Z</time></trkpt><trkpt lat="14.46388821660139" lon="121.04522423710664"><ele>37.33333333333333</ele><time>2026-05-02T06:13:22.001Z</time></trkpt><trkpt lat="14.463736312520847" lon="121.04522833959157"><ele>36.666666666666664</ele><time>2026-05-02T06:13:23.001Z</time></trkpt><trkpt lat="14.463582804092932" lon="121.04523141738633"><ele>36.0</ele><time>2026-05-02T06:13:24.001Z</time></trkpt><trkpt lat="14.463428319868111" lon="121.0452244304565"><ele>36.0</ele><time>2026-05-02T06:13:25.001Z</time></trkpt><trkpt lat="14.46326763856766" lon="121.04522035994316"><ele>36.0</ele><time>2026-05-02T06:13:26.001Z</time></trkpt><trkpt lat="14.463105365077126" lon="121.04521792139819"><ele>36.0</ele><time>2026-05-02T06:13:27.001Z</time></trkpt><trkpt lat="14.46294009397098" lon="121.04521822556313"><ele>36.333333333333336</ele><time>2026-05-02T06:13:28.001Z</time></trkpt><trkpt lat="14.462771800241422" lon="121.04521872883497"><ele>36.66666666666667</ele><time>2026-05-02T06:13:29.001Z</time></trkpt><trkpt lat="14.462599697131285" lon="121.04521882167948"><ele>37.0</ele><time>2026-05-02T06:13:30.001Z</time></trkpt><trkpt lat="14.462425186701276" lon="121.0452188496763"><ele>37.0</ele><time>2026-05-02T06:13:31.001Z</time></trkpt><trkpt lat="14.462249164561575" lon="121.04521757567409"><ele>37.0</ele><time>2026-05-02T06:13:32.001Z</time></trkpt><trkpt lat="14.462071502465895" lon="121.0452174628019"><ele>37.0</ele><time>2026-05-02T06:13:33.001Z</time></trkpt><trkpt lat="14.461893367085333" lon="121.04521669195256"><ele>37.333333333333336</ele><time>2026-05-02T06:13:34.001Z</time></trkpt><trkpt lat="14.461721327532846" lon="121.04521528466375"><ele>37.666666666666664</ele><time>2026-05-02T06:13:35.001Z</time></trkpt><trkpt lat="14.461555746819046" lon="121.04521843675596"><ele>38.0</ele><time>2026-05-02T06:13:36.001Z</time></trkpt><trkpt lat="14.461395639249423" lon="121.04522145699531"><ele>38.666666666666664</ele><time>2026-05-02T06:13:37.001Z</time></trkpt><trkpt lat="14.461238987523418" lon="121.04522656878437"><ele>39.333333333333336</ele><time>2026-05-02T06:13:38.001Z</time></trkpt><trkpt lat="14.4610931761308" lon="121.04522761685841"><ele>40.0</ele><time>2026-05-02T06:13:39.001Z</time></trkpt><trkpt lat="14.460945723480506" lon="121.04522833572283"><ele>40.0</ele><time>2026-05-02T06:13:40.001Z</time></trkpt><trkpt lat="14.460794625652548" lon="121.04522681611131"><ele>40.0</ele><time>2026-05-02T06:13:41.001Z</time></trkpt><trkpt lat="14.460650646178566" lon="121.04522331656567"><ele>40.0</ele><time>2026-05-02T06:13:42.001Z</time></trkpt><trkpt lat="14.460498531115077" lon="121.0452224691149"><ele>40.0</ele><time>2026-05-02T06:13:43.001Z</time></trkpt><trkpt lat="14.460349412945027" lon="121.04522325475298"><ele>40.5</ele><time>2026-05-02T06:13:44.001Z</time></trkpt><trkpt lat="14.46020400767634" lon="121.04522052795427"><ele>41.0</ele><time>2026-05-02T06:13:45.001Z</time></trkpt><trkpt lat="14.460053148362705" lon="121.04521989340576"><ele>41.5</ele><time>2026-05-02T06:13:46.001Z</time></trkpt><trkpt lat="14.459909633091737" lon="121.04522544230717"><ele>42.0</ele><time>2026-05-02T06:13:47.001Z</time></trkpt><trkpt lat="14.459767013721656" lon="121.04522790994726"><ele>42.0</ele><time>2026-05-02T06:13:48.001Z</time></trkpt><trkpt lat="14.459622941872302" lon="121.0452290137168"><ele>42.0</ele><time>2026-05-02T06:13:49.001Z</time></trkpt><trkpt lat="14.459475935133035" lon="121.04522912677378"><ele>42.0</ele><time>2026-05-02T06:13:50.001Z</time></trkpt><trkpt lat="14.459331841625762" lon="121.0452287421826"><ele>42.0</ele><time>2026-05-02T06:13:51.001Z</time></trkpt><trkpt lat="14.459166303164965" lon="121.0452294112143"><ele>42.0</ele><time>2026-05-02T06:13:52.001Z</time></trkpt><trkpt lat="14.458996377444917" lon="121.0452344733989"><ele>42.0</ele><time>2026-05-02T06:13:53.001Z</time></trkpt><trkpt lat="14.458837864140625" lon="121.04523346001373"><ele>42.0</ele><time>2026-05-02T06:13:54.001Z</time></trkpt><trkpt lat="14.458700792532929" lon="121.04523708876005"><ele>41.666666666666664</ele><time>2026-05-02T06:13:55.001Z</time></trkpt><trkpt lat="14.45853728000785" lon="121.04523539890037"><ele>41.33333333333333</ele><time>2026-05-02T06:13:56.001Z</time></trkpt><trkpt lat="14.458366359362744" lon="121.04523835882483"><ele>41.0</ele><time>2026-05-02T06:13:57.001Z</time></trkpt><trkpt lat="14.458192306841083" lon="121.04524102437291"><ele>41.0</ele><time>2026-05-02T06:13:58.001Z</time></trkpt><trkpt lat="14.458016059556664" lon="121.04524011499207"><ele>41.0</ele><time>2026-05-02T06:13:59.001Z</time></trkpt><trkpt lat="14.457840946266211" lon="121.04524024441157"><ele>41.0</ele><time>2026-05-02T06:14:00.001Z</time></trkpt><trkpt lat="14.45766453641674" lon="121.04524251968411"><ele>39.666666666666664</ele><time>2026-05-02T06:14:01.001Z</time></trkpt><trkpt lat="14.457490424973939" lon="121.0452470283148"><ele>38.333333333333336</ele><time>2026-05-02T06:14:02.001Z</time></trkpt><trkpt lat="14.45729410744067" lon="121.04524922738445"><ele>37.0</ele><time>2026-05-02T06:14:03Z</time></trkpt><trkpt lat="14.457119720771557" lon="121.04525087814547"><ele>36.66666666666667</ele><time>2026-05-02T06:14:04Z</time></trkpt><trkpt lat="14.456942639645002" lon="121.0452562431031"><ele>36.333333333333336</ele><time>2026-05-02T06:14:05Z</time></trkpt><trkpt lat="14.456765981706031" lon="121.04525713946849"><ele>36.0</ele><time>2026-05-02T06:14:06Z</time></trkpt><trkpt lat="14.45657604097428" lon="121.0452608452558"><ele>36.0</ele><time>2026-05-02T06:14:07Z</time></trkpt><trkpt lat="14.456404864716019" lon="121.04525228503633"><ele>36.0</ele><time>2026-05-02T06:14:08Z</time></trkpt><trkpt lat="14.4562159327542" lon="121.04525386973427"><ele>36.0</ele><time>2026-05-02T06:14:09Z</time></trkpt><trkpt lat="14.456027547849796" lon="121.04525801354886"><ele>36.666666666666664</ele><time>2026-05-02T06:14:10Z</time></trkpt><trkpt lat="14.45584673782998" lon="121.04523177538525"><ele>37.33333333333333</ele><time>2026-05-02T06:14:11Z</time></trkpt><trkpt lat="14.455657997737367" lon="121.04521353039426"><ele>38.0</ele><time>2026-05-02T06:14:12Z</time></trkpt><trkpt lat="14.455458514090255" lon="121.04525287603758"><ele>36.0</ele><time>2026-05-02T06:14:13Z</time></trkpt><trkpt lat="14.45525930650178" lon="121.04525251108188"><ele>34.0</ele><time>2026-05-02T06:14:14Z</time></trkpt><trkpt lat="14.455057666571102" lon="121.04525467598987"><ele>32.0</ele><time>2026-05-02T06:14:15Z</time></trkpt><trkpt lat="14.454848611676606" lon="121.04525590281098"><ele>32.0</ele><time>2026-05-02T06:14:16Z</time></trkpt><trkpt lat="14.454632054174299" lon="121.04525488974629"><ele>32.0</ele><time>2026-05-02T06:14:17Z</time></trkpt><trkpt lat="14.45441777612518" lon="121.04525437612786"><ele>32.0</ele><time>2026-05-02T06:14:18Z</time></trkpt><trkpt lat="14.454198370349673" lon="121.04525630232034"><ele>30.333333333333332</ele><time>2026-05-02T06:14:19Z</time></trkpt><trkpt lat="14.453981597468546" lon="121.04525445996657"><ele>28.666666666666664</ele><time>2026-05-02T06:14:20Z</time></trkpt><trkpt lat="14.453763265409199" lon="121.04525354944505"><ele>27.0</ele><time>2026-05-02T06:14:21Z</time></trkpt><trkpt lat="14.453551170960681" lon="121.04525095665858"><ele>25.666666666666668</ele><time>2026-05-02T06:14:22Z</time></trkpt><trkpt lat="14.453331598313623" lon="121.04525282588594"><ele>24.333333333333336</ele><time>2026-05-02T06:14:23Z</time></trkpt><trkpt lat="14.453115217582264" lon="121.045253213708"><ele>23.0</ele><time>2026-05-02T06:14:24Z</time></trkpt><trkpt lat="14.452906302500352" lon="121.04525350340923"><ele>21.666666666666668</ele><time>2026-05-02T06:14:25Z</time></trkpt><trkpt lat="14.452688204586915" lon="121.04525632156306"><ele>20.333333333333332</ele><time>2026-05-02T06:14:26Z</time></trkpt><trkpt lat="14.452468221724303" lon="121.04525697032011"><ele>19.0</ele><time>2026-05-02T06:14:27Z</time></trkpt><trkpt lat="14.452252562212745" lon="121.04525980587837"><ele>17.0</ele><time>2026-05-02T06:14:28Z</time></trkpt><trkpt lat="14.452035196071856" lon="121.04526224100704"><ele>15.0</ele><time>2026-05-02T06:14:29Z</time></trkpt><trkpt lat="14.45182055486125" lon="121.04526353953024"><ele>13.0</ele><time>2026-05-02T06:14:30Z</time></trkpt><trkpt lat="14.4516045667261" lon="121.0452621910796"><ele>13.0</ele><time>2026-05-02T06:14:31Z</time></trkpt><trkpt lat="14.451391155341536" lon="121.04526308042098"><ele>13.0</ele><time>2026-05-02T06:14:32Z</time></trkpt><trkpt lat="14.451179822561219" lon="121.0452622976336"><ele>13.0</ele><time>2026-05-02T06:14:33Z</time></trkpt><trkpt lat="14.450973264629459" lon="121.04526075804276"><ele>15.0</ele><time>2026-05-02T06:14:34Z</time></trkpt><trkpt lat="14.450772247453411" lon="121.0452602683412"><ele>17.0</ele><time>2026-05-02T06:14:35Z</time></trkpt><trkpt lat="14.450574950191125" lon="121.04526051344288"><ele>19.0</ele><time>2026-05-02T06:14:36Z</time></trkpt><trkpt lat="14.450382700955931" lon="121.04525998234371"><ele>19.0</ele><time>2026-05-02T06:14:37Z</time></trkpt><trkpt lat="14.450185573092998" lon="121.04525800615572"><ele>19.0</ele><time>2026-05-02T06:14:38Z</time></trkpt><trkpt lat="14.449985576298893" lon="121.04525667560668"><ele>19.0</ele><time>2026-05-02T06:14:39Z</time></trkpt><trkpt lat="14.449783041753713" lon="121.04525657330129"><ele>18.333333333333332</ele><time>2026-05-02T06:14:40Z</time></trkpt><trkpt lat="14.44958007970501" lon="121.0452540977047"><ele>17.666666666666668</ele><time>2026-05-02T06:14:41Z</time></trkpt><trkpt lat="14.449369909883789" lon="121.04525133111824"><ele>17.0</ele><time>2026-05-02T06:14:42Z</time></trkpt><trkpt lat="14.44916006516995" lon="121.04525196824797"><ele>17.0</ele><time>2026-05-02T06:14:43Z</time></trkpt><trkpt lat="14.448944860932771" lon="121.04525353008512"><ele>17.0</ele><time>2026-05-02T06:14:44Z</time></trkpt><trkpt lat="14.448720987898309" lon="121.04525604650182"><ele>17.0</ele><time>2026-05-02T06:14:45Z</time></trkpt><trkpt lat="14.448501484196992" lon="121.04526284035359"><ele>16.333333333333336</ele><time>2026-05-02T06:14:46Z</time></trkpt><trkpt lat="14.44828485745685" lon="121.04526819026945"><ele>15.666666666666668</ele><time>2026-05-02T06:14:47Z</time></trkpt><trkpt lat="14.44806979925448" lon="121.04527193280059"><ele>15.0</ele><time>2026-05-02T06:14:48Z</time></trkpt><trkpt lat="14.447864348346014" lon="121.04526783762006"><ele>15.0</ele><time>2026-05-02T06:14:49Z</time></trkpt><trkpt lat="14.447662209393814" lon="121.04526917186274"><ele>15.0</ele><time>2026-05-02T06:14:50Z</time></trkpt><trkpt lat="14.447460621557513" lon="121.0452721011864"><ele>15.0</ele><time>2026-05-02T06:14:51Z</time></trkpt><trkpt lat="14.447265716265374" lon="121.04527301068326"><ele>15.666666666666668</ele><time>2026-05-02T06:14:52Z</time></trkpt><trkpt lat="14.447074780346536" lon="121.04527509620642"><ele>16.333333333333336</ele><time>2026-05-02T06:14:53Z</time></trkpt><trkpt lat="14.446890059493755" lon="121.04527782517319"><ele>17.0</ele><time>2026-05-02T06:14:54Z</time></trkpt><trkpt lat="14.446710691466695" lon="121.04527740842659"><ele>17.0</ele><time>2026-05-02T06:14:55Z</time></trkpt><trkpt lat="14.446532671522275" lon="121.04527848277007"><ele>17.0</ele><time>2026-05-02T06:14:56Z</time></trkpt><trkpt lat="14.446367082275101" lon="121.04528068599006"><ele>17.0</ele><time>2026-05-02T06:14:57Z</time></trkpt><trkpt lat="14.446218865718388" lon="121.0452769052371"><ele>17.25</ele><time>2026-05-02T06:14:58Z</time></trkpt><trkpt lat="14.446082296869541" lon="121.04527061375431"><ele>17.5</ele><time>2026-05-02T06:14:59Z</time></trkpt><trkpt lat="14.445945770929017" lon="121.04526989162179"><ele>17.75</ele><time>2026-05-02T06:15:00Z</time></trkpt><trkpt lat="14.445807106016696" lon="121.0452695993884"><ele>18.0</ele><time>2026-05-02T06:15:01Z</time></trkpt><trkpt lat="14.445663564883494" lon="121.04526858461007"><ele>18.0</ele><time>2026-05-02T06:15:02Z</time></trkpt><trkpt lat="14.445512646732055" lon="121.04527154401859"><ele>18.0</ele><time>2026-05-02T06:15:03Z</time></trkpt><trkpt lat="14.445359460436038" lon="121.0452716755531"><ele>18.0</ele><time>2026-05-02T06:15:04Z</time></trkpt><trkpt lat="14.445204915824535" lon="121.04526264875419"><ele>17.333333333333332</ele><time>2026-05-02T06:15:05Z</time></trkpt><trkpt lat="14.445048657578383" lon="121.04525893052298"><ele>16.666666666666664</ele><time>2026-05-02T06:15:06Z</time></trkpt><trkpt lat="14.44488723655814" lon="121.04525785274997"><ele>16.0</ele><time>2026-05-02T06:15:07Z</time></trkpt><trkpt lat="14.444722796480663" lon="121.04525179574676"><ele>16.666666666666664</ele><time>2026-05-02T06:15:08Z</time></trkpt><trkpt lat="14.444554344501272" lon="121.04524357952869"><ele>17.333333333333332</ele><time>2026-05-02T06:15:09Z</time></trkpt><trkpt lat="14.444378175107815" lon="121.0452348615807"><ele>18.0</ele><time>2026-05-02T06:15:10Z</time></trkpt><trkpt lat="14.444198252445734" lon="121.04522594906365"><ele>18.0</ele><time>2026-05-02T06:15:11Z</time></trkpt><trkpt lat="14.444015280838055" lon="121.04521684280199"><ele>18.0</ele><time>2026-05-02T06:15:12Z</time></trkpt><trkpt lat="14.443834215210089" lon="121.04520881376648"><ele>18.0</ele><time>2026-05-02T06:15:13Z</time></trkpt><trkpt lat="14.443648595233029" lon="121.045202322379"><ele>17.666666666666668</ele><time>2026-05-02T06:15:14Z</time></trkpt><trkpt lat="14.443462965882004" lon="121.04519517910539"><ele>17.333333333333336</ele><time>2026-05-02T06:15:15Z</time></trkpt><trkpt lat="14.443277908243022" lon="121.0451886631278"><ele>17.0</ele><time>2026-05-02T06:15:16Z</time></trkpt><trkpt lat="14.443092891159846" lon="121.0451818477995"><ele>16.333333333333336</ele><time>2026-05-02T06:15:17Z</time></trkpt><trkpt lat="14.442902259407322" lon="121.04517662988592"><ele>15.666666666666668</ele><time>2026-05-02T06:15:18Z</time></trkpt><trkpt lat="14.442714418338559" lon="121.0451749921042"><ele>15.0</ele><time>2026-05-02T06:15:19Z</time></trkpt><trkpt lat="14.442523585647614" lon="121.04520190678927"><ele>15.0</ele><time>2026-05-02T06:15:20Z</time></trkpt><trkpt lat="14.442329829769001" lon="121.04524539185932"><ele>15.0</ele><time>2026-05-02T06:15:21Z</time></trkpt><trkpt lat="14.442146419322807" lon="121.04523911212097"><ele>15.0</ele><time>2026-05-02T06:15:22Z</time></trkpt><trkpt lat="14.441973251328355" lon="121.04524833291649"><ele>15.333333333333332</ele><time>2026-05-02T06:15:23Z</time></trkpt><trkpt lat="14.441793185610262" lon="121.04527225885454"><ele>15.666666666666666</ele><time>2026-05-02T06:15:24.001Z</time></trkpt><trkpt lat="14.441622344979528" lon="121.04528405620066"><ele>16.0</ele><time>2026-05-02T06:15:25.001Z</time></trkpt><trkpt lat="14.441452592478058" lon="121.04529797943569"><ele>17.0</ele><time>2026-05-02T06:15:26.001Z</time></trkpt><trkpt lat="14.441288020433664" lon="121.04530767743296"><ele>18.0</ele><time>2026-05-02T06:15:27.001Z</time></trkpt><trkpt lat="14.44112678317341" lon="121.04530732618618"><ele>19.0</ele><time>2026-05-02T06:15:28.001Z</time></trkpt><trkpt lat="14.440964060858482" lon="121.04530918389784"><ele>19.0</ele><time>2026-05-02T06:15:29.001Z</time></trkpt><trkpt lat="14.44080358683375" lon="121.0453101420233"><ele>19.0</ele><time>2026-05-02T06:15:30.001Z</time></trkpt><trkpt lat="14.440639622459448" lon="121.0453117295834"><ele>19.0</ele><time>2026-05-02T06:15:31.001Z</time></trkpt><trkpt lat="14.440474870245287" lon="121.04531194840074"><ele>18.666666666666664</ele><time>2026-05-02T06:15:32.001Z</time></trkpt><trkpt lat="14.440310940538179" lon="121.04531378867954"><ele>18.333333333333332</ele><time>2026-05-02T06:15:33.001Z</time></trkpt><trkpt lat="14.44013302737552" lon="121.04533751294115"><ele>18.0</ele><time>2026-05-02T06:15:34.001Z</time></trkpt><trkpt lat="14.439962072473431" lon="121.04534485756672"><ele>18.0</ele><time>2026-05-02T06:15:35.001Z</time></trkpt><trkpt lat="14.439790974470844" lon="121.0453524235402"><ele>18.0</ele><time>2026-05-02T06:15:36.001Z</time></trkpt><trkpt lat="14.439616058942724" lon="121.04536168172274"><ele>18.0</ele><time>2026-05-02T06:15:37.001Z</time></trkpt><trkpt lat="14.439438432196908" lon="121.04537308104881"><ele>17.333333333333332</ele><time>2026-05-02T06:15:38.001Z</time></trkpt><trkpt lat="14.439258468133263" lon="121.04538058659082"><ele>16.666666666666664</ele><time>2026-05-02T06:15:39.001Z</time></trkpt><trkpt lat="14.439084772857818" lon="121.04538245031348"><ele>16.0</ele><time>2026-05-02T06:15:40.001Z</time></trkpt><trkpt lat="14.438905108476343" lon="121.04537519273173"><ele>15.0</ele><time>2026-05-02T06:15:41.001Z</time></trkpt><trkpt lat="14.438731700627256" lon="121.0453741817991"><ele>14.0</ele><time>2026-05-02T06:15:42.001Z</time></trkpt><trkpt lat="14.438553676894125" lon="121.0453678034142"><ele>13.0</ele><time>2026-05-02T06:15:43.001Z</time></trkpt><trkpt lat="14.438373805231272" lon="121.04536389421088"><ele>13.0</ele><time>2026-05-02T06:15:44.001Z</time></trkpt><trkpt lat="14.43820080681087" lon="121.04536821748428"><ele>13.0</ele><time>2026-05-02T06:15:45.001Z</time></trkpt><trkpt lat="14.438022758529295" lon="121.04536926129965"><ele>13.0</ele><time>2026-05-02T06:15:46.001Z</time></trkpt><trkpt lat="14.437855429975755" lon="121.045369225265"><ele>12.0</ele><time>2026-05-02T06:15:47.001Z</time></trkpt><trkpt lat="14.437683960505117" lon="121.04536394078552"><ele>11.0</ele><time>2026-05-02T06:15:48.001Z</time></trkpt><trkpt lat="14.437514622718512" lon="121.04535406452585"><ele>10.0</ele><time>2026-05-02T06:15:49.001Z</time></trkpt><trkpt lat="14.437338473562354" lon="121.04533770513595"><ele>10.0</ele><time>2026-05-02T06:15:50.001Z</time></trkpt><trkpt lat="14.437164466737498" lon="121.04533472223201"><ele>10.0</ele><time>2026-05-02T06:15:51.001Z</time></trkpt><trkpt lat="14.436992011488654" lon="121.04532405980403"><ele>10.0</ele><time>2026-05-02T06:15:52.001Z</time></trkpt><trkpt lat="14.436820127172766" lon="121.04532159200593"><ele>10.333333333333334</ele><time>2026-05-02T06:15:53.001Z</time></trkpt><trkpt lat="14.436653685516061" lon="121.04531625376572"><ele>10.666666666666666</ele><time>2026-05-02T06:15:54.001Z</time></trkpt><trkpt lat="14.436485015358986" lon="121.04531625158847"><ele>11.0</ele><time>2026-05-02T06:15:55.001Z</time></trkpt><trkpt lat="14.436322245037198" lon="121.04532275732177"><ele>11.333333333333332</ele><time>2026-05-02T06:15:56.001Z</time></trkpt><trkpt lat="14.436146729964966" lon="121.0453198743493"><ele>11.666666666666666</ele><time>2026-05-02T06:15:57.001Z</time></trkpt><trkpt lat="14.435972839246164" lon="121.04532220553857"><ele>12.0</ele><time>2026-05-02T06:15:58.001Z</time></trkpt><trkpt lat="14.435796902386553" lon="121.04532179290358"><ele>12.0</ele><time>2026-05-02T06:15:59.001Z</time></trkpt><trkpt lat="14.435620275638152" lon="121.04531290039525"><ele>12.0</ele><time>2026-05-02T06:16:00.001Z</time></trkpt><trkpt lat="14.43543931768602" lon="121.04531002941083"><ele>12.0</ele><time>2026-05-02T06:16:01.001Z</time></trkpt><trkpt lat="14.435255174309612" lon="121.04531186889012"><ele>11.333333333333334</ele><time>2026-05-02T06:16:02.001Z</time></trkpt><trkpt lat="14.435067649472352" lon="121.04531063413376"><ele>10.666666666666668</ele><time>2026-05-02T06:16:03.001Z</time></trkpt><trkpt lat="14.434876980229602" lon="121.04530949653211"><ele>10.0</ele><time>2026-05-02T06:16:04.001Z</time></trkpt><trkpt lat="14.434684909128736" lon="121.04530872825838"><ele>9.666666666666668</ele><time>2026-05-02T06:16:05.001Z</time></trkpt><trkpt lat="14.434490682270608" lon="121.0453106620916"><ele>9.333333333333334</ele><time>2026-05-02T06:16:06.001Z</time></trkpt><trkpt lat="14.434295826373091" lon="121.04530991479972"><ele>9.0</ele><time>2026-05-02T06:16:07.001Z</time></trkpt><trkpt lat="14.434104073374082" lon="121.04531239836408"><ele>9.0</ele><time>2026-05-02T06:16:08.001Z</time></trkpt><trkpt lat="14.433913496245093" lon="121.04531376845422"><ele>9.0</ele><time>2026-05-02T06:16:09Z</time></trkpt><trkpt lat="14.43372604605738" lon="121.04531611962054"><ele>9.0</ele><time>2026-05-02T06:16:10Z</time></trkpt><trkpt lat="14.433538937000636" lon="121.04531481772872"><ele>9.666666666666666</ele><time>2026-05-02T06:16:11Z</time></trkpt><trkpt lat="14.433355125393835" lon="121.04531311434727"><ele>10.333333333333332</ele><time>2026-05-02T06:16:12Z</time></trkpt><trkpt lat="14.43317265002367" lon="121.0453153094508"><ele>11.0</ele><time>2026-05-02T06:16:13Z</time></trkpt><trkpt lat="14.432996699358624" lon="121.04531675877743"><ele>11.333333333333332</ele><time>2026-05-02T06:16:14Z</time></trkpt><trkpt lat="14.432819943845034" lon="121.0453195012245"><ele>11.666666666666666</ele><time>2026-05-02T06:16:15Z</time></trkpt><trkpt lat="14.432660509207315" lon="121.0453302971143"><ele>12.0</ele><time>2026-05-02T06:16:16Z</time></trkpt><trkpt lat="14.432498770738782" lon="121.04533766672287"><ele>12.0</ele><time>2026-05-02T06:16:17Z</time></trkpt><trkpt lat="14.432342338849178" lon="121.04534519700874"><ele>12.0</ele><time>2026-05-02T06:16:18Z</time></trkpt><trkpt lat="14.432186326009512" lon="121.04534987252933"><ele>12.0</ele><time>2026-05-02T06:16:19Z</time></trkpt><trkpt lat="14.432034852422943" lon="121.04535309330721"><ele>11.666666666666666</ele><time>2026-05-02T06:16:20Z</time></trkpt><trkpt lat="14.43188510292383" lon="121.0453477852913"><ele>11.333333333333332</ele><time>2026-05-02T06:16:21Z</time></trkpt><trkpt lat="14.431734117838348" lon="121.04535249762635"><ele>11.0</ele><time>2026-05-02T06:16:22Z</time></trkpt><trkpt lat="14.43158468899252" lon="121.04535796621943"><ele>11.0</ele><time>2026-05-02T06:16:23Z</time></trkpt><trkpt lat="14.431440843995892" lon="121.04534561745555"><ele>11.0</ele><time>2026-05-02T06:16:24Z</time></trkpt><trkpt lat="14.431283958680453" lon="121.04534292233471"><ele>11.0</ele><time>2026-05-02T06:16:25Z</time></trkpt><trkpt lat="14.431128394526178" lon="121.04534353443428"><ele>10.75</ele><time>2026-05-02T06:16:26Z</time></trkpt><trkpt lat="14.430987586273336" lon="121.04533859523083"><ele>10.5</ele><time>2026-05-02T06:16:27Z</time></trkpt><trkpt lat="14.43084287279839" lon="121.04533914537618"><ele>10.25</ele><time>2026-05-02T06:16:28Z</time></trkpt><trkpt lat="14.430693339714106" lon="121.04533079964084"><ele>10.0</ele><time>2026-05-02T06:16:29Z</time></trkpt><trkpt lat="14.430539625526714" lon="121.04532730070882"><ele>10.0</ele><time>2026-05-02T06:16:30Z</time></trkpt><trkpt lat="14.430383397928509" lon="121.04531915359458"><ele>10.0</ele><time>2026-05-02T06:16:31Z</time></trkpt><trkpt lat="14.43021901986544" lon="121.04532053936255"><ele>10.0</ele><time>2026-05-02T06:16:32Z</time></trkpt><trkpt lat="14.430053506027948" lon="121.04531678317463"><ele>10.0</ele><time>2026-05-02T06:16:33Z</time></trkpt><trkpt lat="14.429888741072814" lon="121.04531904838598"><ele>10.0</ele><time>2026-05-02T06:16:34Z</time></trkpt><trkpt lat="14.429712464171981" lon="121.04531828661125"><ele>10.0</ele><time>2026-05-02T06:16:35Z</time></trkpt><trkpt lat="14.429545426377441" lon="121.04532089988781"><ele>10.666666666666668</ele><time>2026-05-02T06:16:36Z</time></trkpt><trkpt lat="14.42937824448662" lon="121.04532461446074"><ele>11.333333333333334</ele><time>2026-05-02T06:16:37Z</time></trkpt><trkpt lat="14.429215604286691" lon="121.04532695324897"><ele>12.0</ele><time>2026-05-02T06:16:38Z</time></trkpt><trkpt lat="14.429045105308024" lon="121.04532685461517"><ele>12.0</ele><time>2026-05-02T06:16:39Z</time></trkpt><trkpt lat="14.428875145367698" lon="121.04532697043834"><ele>12.0</ele><time>2026-05-02T06:16:40Z</time></trkpt><trkpt lat="14.428710203110183" lon="121.04532521768395"><ele>12.0</ele><time>2026-05-02T06:16:41Z</time></trkpt><trkpt lat="14.42854898537676" lon="121.04532545942361"><ele>12.0</ele><time>2026-05-02T06:16:42Z</time></trkpt><trkpt lat="14.42838441158816" lon="121.045325209201"><ele>12.0</ele><time>2026-05-02T06:16:43Z</time></trkpt><trkpt lat="14.428219720631708" lon="121.04532374746226"><ele>12.0</ele><time>2026-05-02T06:16:44Z</time></trkpt><trkpt lat="14.428047900617104" lon="121.04532632185925"><ele>11.666666666666666</ele><time>2026-05-02T06:16:45Z</time></trkpt><trkpt lat="14.427877554166072" lon="121.04532245140292"><ele>11.333333333333332</ele><time>2026-05-02T06:16:46Z</time></trkpt><trkpt lat="14.427706301820553" lon="121.04532292987714"><ele>11.0</ele><time>2026-05-02T06:16:47Z</time></trkpt><trkpt lat="14.42753831974322" lon="121.04532179051877"><ele>11.0</ele><time>2026-05-02T06:16:48Z</time></trkpt><trkpt lat="14.427370076018915" lon="121.04532279726695"><ele>11.0</ele><time>2026-05-02T06:16:49Z</time></trkpt><trkpt lat="14.427208742538934" lon="121.04532467513714"><ele>11.0</ele><time>2026-05-02T06:16:50Z</time></trkpt><trkpt lat="14.427050359351387" lon="121.04532796775796"><ele>11.666666666666666</ele><time>2026-05-02T06:16:51Z</time></trkpt><trkpt lat="14.42689463025496" lon="121.04532620599801"><ele>12.333333333333332</ele><time>2026-05-02T06:16:52Z</time></trkpt><trkpt lat="14.426747808776682" lon="121.04533131556444"><ele>13.0</ele><time>2026-05-02T06:16:53Z</time></trkpt><trkpt lat="14.426598562746463" lon="121.04533236197994"><ele>13.0</ele><time>2026-05-02T06:16:54Z</time></trkpt><trkpt lat="14.426449467523309" lon="121.04533463142918"><ele>13.0</ele><time>2026-05-02T06:16:55Z</time></trkpt><trkpt lat="14.426304274259033" lon="121.04532961309212"><ele>13.0</ele><time>2026-05-02T06:16:56Z</time></trkpt><trkpt lat="14.426157748811994" lon="121.04532850367733"><ele>13.0</ele><time>2026-05-02T06:16:57Z</time></trkpt><trkpt lat="14.426008513204922" lon="121.04533937547598"><ele>13.333333333333332</ele><time>2026-05-02T06:16:58Z</time></trkpt><trkpt lat="14.42585921749866" lon="121.04534566605066"><ele>13.666666666666668</ele><time>2026-05-02T06:16:59Z</time></trkpt><trkpt lat="14.425706851714716" lon="121.04535051000376"><ele>14.0</ele><time>2026-05-02T06:17:00Z</time></trkpt><trkpt lat="14.425549145476628" lon="121.04535287692902"><ele>13.666666666666668</ele><time>2026-05-02T06:17:01Z</time></trkpt><trkpt lat="14.425387844058768" lon="121.04534442238712"><ele>13.333333333333332</ele><time>2026-05-02T06:17:02Z</time></trkpt><trkpt lat="14.42522792590784" lon="121.04534577398839"><ele>13.0</ele><time>2026-05-02T06:17:03Z</time></trkpt><trkpt lat="14.4250697410704" lon="121.04534695948291"><ele>13.0</ele><time>2026-05-02T06:17:04Z</time></trkpt><trkpt lat="14.424911563552975" lon="121.0453517454851"><ele>13.0</ele><time>2026-05-02T06:17:05Z</time></trkpt><trkpt lat="14.424761173373753" lon="121.04535554481396"><ele>13.0</ele><time>2026-05-02T06:17:06Z</time></trkpt><trkpt lat="14.424612640873157" lon="121.04535708008618"><ele>14.0</ele><time>2026-05-02T06:17:07Z</time></trkpt><trkpt lat="14.424467530331748" lon="121.04535683397906"><ele>15.0</ele><time>2026-05-02T06:17:08Z</time></trkpt><trkpt lat="14.42433270934404" lon="121.04535987156376"><ele>16.0</ele><time>2026-05-02T06:17:09Z</time></trkpt><trkpt lat="14.424197839504563" lon="121.04535650339857"><ele>17.0</ele><time>2026-05-02T06:17:10Z</time></trkpt><trkpt lat="14.424062722901091" lon="121.04535227615045"><ele>17.0</ele><time>2026-05-02T06:17:11Z</time></trkpt><trkpt lat="14.423936589322464" lon="121.04534989606704"><ele>17.0</ele><time>2026-05-02T06:17:12Z</time></trkpt><trkpt lat="14.423811128857599" lon="121.0453540665227"><ele>17.0</ele><time>2026-05-02T06:17:13Z</time></trkpt><trkpt lat="14.423689039825558" lon="121.04535533627438"><ele>17.0</ele><time>2026-05-02T06:17:14Z</time></trkpt><trkpt lat="14.423574732569262" lon="121.04536266161452"><ele>16.0</ele><time>2026-05-02T06:17:15Z</time></trkpt><trkpt lat="14.423451149383915" lon="121.04536150440134"><ele>15.0</ele><time>2026-05-02T06:17:16Z</time></trkpt><trkpt lat="14.423321326025265" lon="121.04535694523834"><ele>14.0</ele><time>2026-05-02T06:17:17Z</time></trkpt><trkpt lat="14.423193394642883" lon="121.04535449164625"><ele>13.0</ele><time>2026-05-02T06:17:18Z</time></trkpt><trkpt lat="14.423062020018563" lon="121.0453486748473"><ele>12.25</ele><time>2026-05-02T06:17:19Z</time></trkpt><trkpt lat="14.422931407945757" lon="121.04534256215933"><ele>11.5</ele><time>2026-05-02T06:17:20Z</time></trkpt><trkpt lat="14.422789244962384" lon="121.04533144679073"><ele>10.75</ele><time>2026-05-02T06:17:21Z</time></trkpt><trkpt lat="14.422641932049359" lon="121.04532487757102"><ele>10.0</ele><time>2026-05-02T06:17:22Z</time></trkpt><trkpt lat="14.422513149810092" lon="121.045322650481"><ele>10.0</ele><time>2026-05-02T06:17:23Z</time></trkpt><trkpt lat="14.42238885172332" lon="121.04532353660144"><ele>10.0</ele><time>2026-05-02T06:17:24Z</time></trkpt><trkpt lat="14.422263449210588" lon="121.04532757612316"><ele>10.0</ele><time>2026-05-02T06:17:25Z</time></trkpt><trkpt lat="14.422139773754667" lon="121.04532522273075"><ele>10.0</ele><time>2026-05-02T06:17:26Z</time></trkpt><trkpt lat="14.422026291703844" lon="121.04532880700017"><ele>10.0</ele><time>2026-05-02T06:17:27Z</time></trkpt><trkpt lat="14.421902551652291" lon="121.04532948565664"><ele>10.0</ele><time>2026-05-02T06:17:28Z</time></trkpt><trkpt lat="14.421776233999202" lon="121.04532831708703"><ele>10.0</ele><time>2026-05-02T06:17:29.001Z</time></trkpt><trkpt lat="14.421651202795049" lon="121.04532535763776"><ele>10.0</ele><time>2026-05-02T06:17:30.001Z</time></trkpt><trkpt lat="14.421526166627539" lon="121.04532761047335"><ele>10.0</ele><time>2026-05-02T06:17:31.001Z</time></trkpt><trkpt lat="14.421409604386499" lon="121.04532138334363"><ele>10.0</ele><time>2026-05-02T06:17:32.001Z</time></trkpt><trkpt lat="14.421287243631102" lon="121.04532260824992"><ele>10.0</ele><time>2026-05-02T06:17:33.001Z</time></trkpt><trkpt lat="14.421162866854564" lon="121.04532491039237"><ele>10.0</ele><time>2026-05-02T06:17:34.001Z</time></trkpt><trkpt lat="14.421034828493358" lon="121.0453293104078"><ele>11.25</ele><time>2026-05-02T06:17:35.001Z</time></trkpt><trkpt lat="14.42090151591841" lon="121.0453295110995"><ele>12.5</ele><time>2026-05-02T06:17:36.001Z</time></trkpt><trkpt lat="14.420764090439421" lon="121.04533069304651"><ele>13.75</ele><time>2026-05-02T06:17:37.001Z</time></trkpt><trkpt lat="14.420620837070622" lon="121.04532948693148"><ele>15.0</ele><time>2026-05-02T06:17:38.001Z</time></trkpt><trkpt lat="14.420474760360365" lon="121.0453283947719"><ele>15.666666666666668</ele><time>2026-05-02T06:17:39.001Z</time></trkpt><trkpt lat="14.420322777301745" lon="121.04532691268889"><ele>16.333333333333336</ele><time>2026-05-02T06:17:40.001Z</time></trkpt><trkpt lat="14.420167229281398" lon="121.04532027524509"><ele>17.0</ele><time>2026-05-02T06:17:41.001Z</time></trkpt><trkpt lat="14.420011064033133" lon="121.04531802515986"><ele>17.0</ele><time>2026-05-02T06:17:42.001Z</time></trkpt><trkpt lat="14.419851461823663" lon="121.04531815515874"><ele>17.0</ele><time>2026-05-02T06:17:43.001Z</time></trkpt><trkpt lat="14.419688059674044" lon="121.04531697467999"><ele>17.0</ele><time>2026-05-02T06:17:44.001Z</time></trkpt><trkpt lat="14.419521857062097" lon="121.0453158970314"><ele>17.333333333333336</ele><time>2026-05-02T06:17:45.001Z</time></trkpt><trkpt lat="14.41935337744195" lon="121.0453160559317"><ele>17.666666666666668</ele><time>2026-05-02T06:17:46.001Z</time></trkpt><trkpt lat="14.419178668554158" lon="121.04531997177504"><ele>18.0</ele><time>2026-05-02T06:17:47.001Z</time></trkpt><trkpt lat="14.418999999378233" lon="121.04532255514208"><ele>17.333333333333332</ele><time>2026-05-02T06:17:48.001Z</time></trkpt><trkpt lat="14.418817209250522" lon="121.04532734891237"><ele>16.666666666666664</ele><time>2026-05-02T06:17:49.001Z</time></trkpt><trkpt lat="14.418631361054603" lon="121.0453331527641"><ele>16.0</ele><time>2026-05-02T06:17:50.001Z</time></trkpt><trkpt lat="14.41844613132501" lon="121.04533810809401"><ele>16.0</ele><time>2026-05-02T06:17:51.001Z</time></trkpt><trkpt lat="14.41825837576186" lon="121.04534148124462"><ele>16.0</ele><time>2026-05-02T06:17:52.001Z</time></trkpt><trkpt lat="14.41806739469363" lon="121.04534704441772"><ele>16.0</ele><time>2026-05-02T06:17:53.001Z</time></trkpt><trkpt lat="14.417877796383841" lon="121.04534716108179"><ele>15.333333333333332</ele><time>2026-05-02T06:17:54.001Z</time></trkpt><trkpt lat="14.417691582161131" lon="121.04534613060805"><ele>14.666666666666668</ele><time>2026-05-02T06:17:55.001Z</time></trkpt><trkpt lat="14.4175089000732" lon="121.04534594774162"><ele>14.0</ele><time>2026-05-02T06:17:56.001Z</time></trkpt><trkpt lat="14.417327818429436" lon="121.04534429176618"><ele>13.333333333333334</ele><time>2026-05-02T06:17:57.001Z</time></trkpt><trkpt lat="14.417144745359547" lon="121.04534236319729"><ele>12.666666666666668</ele><time>2026-05-02T06:17:58.001Z</time></trkpt><trkpt lat="14.416965110424377" lon="121.04534040283758"><ele>12.0</ele><time>2026-05-02T06:17:59.001Z</time></trkpt><trkpt lat="14.416785241398307" lon="121.0453380688379"><ele>12.0</ele><time>2026-05-02T06:18:00.001Z</time></trkpt><trkpt lat="14.416604780397675" lon="121.04533320413033"><ele>12.0</ele><time>2026-05-02T06:18:01.001Z</time></trkpt><trkpt lat="14.416424826977494" lon="121.04532892782267"><ele>12.0</ele><time>2026-05-02T06:18:02.001Z</time></trkpt><trkpt lat="14.416240156681825" lon="121.04532392975646"><ele>12.333333333333332</ele><time>2026-05-02T06:18:03.001Z</time></trkpt><trkpt lat="14.41606135950204" lon="121.04531502528872"><ele>12.666666666666666</ele><time>2026-05-02T06:18:04.001Z</time></trkpt><trkpt lat="14.415883020830346" lon="121.04530622052894"><ele>13.0</ele><time>2026-05-02T06:18:05.001Z</time></trkpt><trkpt lat="14.415709681132348" lon="121.04528982151697"><ele>13.0</ele><time>2026-05-02T06:18:06.001Z</time></trkpt><trkpt lat="14.415537742971479" lon="121.04527476640668"><ele>13.0</ele><time>2026-05-02T06:18:07.001Z</time></trkpt><trkpt lat="14.415373069385966" lon="121.04525568731509"><ele>13.0</ele><time>2026-05-02T06:18:08.001Z</time></trkpt><trkpt lat="14.415210705684194" lon="121.04523319390886"><ele>13.333333333333332</ele><time>2026-05-02T06:18:09.001Z</time></trkpt><trkpt lat="14.41505619560492" lon="121.04520363171021"><ele>13.666666666666668</ele><time>2026-05-02T06:18:10.001Z</time></trkpt><trkpt lat="14.414903982696277" lon="121.04517127709798"><ele>14.0</ele><time>2026-05-02T06:18:11.001Z</time></trkpt><trkpt lat="14.414751635403134" lon="121.04513471974113"><ele>14.0</ele><time>2026-05-02T06:18:12.001Z</time></trkpt><trkpt lat="14.414594493520985" lon="121.045091678802"><ele>14.0</ele><time>2026-05-02T06:18:13.001Z</time></trkpt><trkpt lat="14.41443302912107" lon="121.0450455617753"><ele>14.0</ele><time>2026-05-02T06:18:14.001Z</time></trkpt><trkpt lat="14.414269520329594" lon="121.0449892047588"><ele>14.666666666666668</ele><time>2026-05-02T06:18:15Z</time></trkpt><trkpt lat="14.414105004984027" lon="121.04491957576366"><ele>15.333333333333332</ele><time>2026-05-02T06:18:16Z</time></trkpt><trkpt lat="14.413940304708147" lon="121.04484014357902"><ele>16.0</ele><time>2026-05-02T06:18:17Z</time></trkpt><trkpt lat="14.413774453724114" lon="121.04475125647245"><ele>18.333333333333332</ele><time>2026-05-02T06:18:18Z</time></trkpt><trkpt lat="14.413608689876163" lon="121.04465189867238"><ele>20.666666666666668</ele><time>2026-05-02T06:18:19Z</time></trkpt><trkpt lat="14.413445244935527" lon="121.04454685497954"><ele>23.0</ele><time>2026-05-02T06:18:20Z</time></trkpt><trkpt lat="14.413280599171824" lon="121.0444391308083"><ele>23.0</ele><time>2026-05-02T06:18:21Z</time></trkpt><trkpt lat="14.41311689629372" lon="121.04433272274686"><ele>23.0</ele><time>2026-05-02T06:18:22Z</time></trkpt><trkpt lat="14.412955415771194" lon="121.04422733160554"><ele>23.0</ele><time>2026-05-02T06:18:23Z</time></trkpt><trkpt lat="14.412796747670704" lon="121.04412292748539"><ele>22.0</ele><time>2026-05-02T06:18:24Z</time></trkpt><trkpt lat="14.41263951226435" lon="121.04402638207792"><ele>21.0</ele><time>2026-05-02T06:18:25Z</time></trkpt><trkpt lat="14.412488752813335" lon="121.04392175071412"><ele>20.0</ele><time>2026-05-02T06:18:26Z</time></trkpt><trkpt lat="14.412342150793865" lon="121.0438203608793"><ele>20.0</ele><time>2026-05-02T06:18:27Z</time></trkpt><trkpt lat="14.412199772572968" lon="121.04371721615186"><ele>20.0</ele><time>2026-05-02T06:18:28Z</time></trkpt><trkpt lat="14.412061357437606" lon="121.04361980958173"><ele>20.0</ele><time>2026-05-02T06:18:29Z</time></trkpt><trkpt lat="14.41192870564678" lon="121.0435313279453"><ele>19.0</ele><time>2026-05-02T06:18:30Z</time></trkpt><trkpt lat="14.411806658186249" lon="121.04345382390422"><ele>18.0</ele><time>2026-05-02T06:18:31Z</time></trkpt><trkpt lat="14.411700385116406" lon="121.04337813661236"><ele>17.0</ele><time>2026-05-02T06:18:32Z</time></trkpt><trkpt lat="14.411609871271594" lon="121.04330334992945"><ele>16.0</ele><time>2026-05-02T06:18:33Z</time></trkpt><trkpt lat="14.411534486937082" lon="121.04321898110034"><ele>16.0</ele><time>2026-05-02T06:18:34Z</time></trkpt><trkpt lat="14.411475968828453" lon="121.04312815323127"><ele>16.0</ele><time>2026-05-02T06:18:35Z</time></trkpt><trkpt lat="14.411435618471074" lon="121.04302841248374"><ele>16.0</ele><time>2026-05-02T06:18:36Z</time></trkpt><trkpt lat="14.411408747738147" lon="121.04292311891334"><ele>16.0</ele><time>2026-05-02T06:18:37Z</time></trkpt><trkpt lat="14.411399435987994" lon="121.04281406556628"><ele>16.0</ele><time>2026-05-02T06:18:38Z</time></trkpt><trkpt lat="14.411399983238317" lon="121.0427029033807"><ele>16.0</ele><time>2026-05-02T06:18:39Z</time></trkpt><trkpt lat="14.411429948985182" lon="121.04259869667568"><ele>16.0</ele><time>2026-05-02T06:18:40Z</time></trkpt><trkpt lat="14.411462854291443" lon="121.0425007542506"><ele>16.0</ele><time>2026-05-02T06:18:41Z</time></trkpt><trkpt lat="14.41151157284427" lon="121.04234812536085"><ele>16.0</ele><time>2026-05-02T06:18:42Z</time></trkpt><trkpt lat="14.411564145308267" lon="121.04223189377879"><ele>16.5</ele><time>2026-05-02T06:18:43Z</time></trkpt><trkpt lat="14.41162692879808" lon="121.04212268582828"><ele>17.0</ele><time>2026-05-02T06:18:44Z</time></trkpt><trkpt lat="14.411680032195443" lon="121.0420065104621"><ele>17.5</ele><time>2026-05-02T06:18:45Z</time></trkpt><trkpt lat="14.411733603013845" lon="121.04189177830699"><ele>18.0</ele><time>2026-05-02T06:18:46Z</time></trkpt><trkpt lat="14.411785091443372" lon="121.04177991018616"><ele>18.0</ele><time>2026-05-02T06:18:47Z</time></trkpt><trkpt lat="14.411831689642943" lon="121.04167562360249"><ele>18.0</ele><time>2026-05-02T06:18:48Z</time></trkpt><trkpt lat="14.41187220017911" lon="121.04158252824227"><ele>18.0</ele><time>2026-05-02T06:18:49Z</time></trkpt><trkpt lat="14.411908403953387" lon="121.04149907093512"><ele>18.0</ele><time>2026-05-02T06:18:50Z</time></trkpt><trkpt lat="14.4119409967592" lon="121.04142363852033"><ele>18.0</ele><time>2026-05-02T06:18:51Z</time></trkpt><trkpt lat="14.411971871674627" lon="121.04135061345141"><ele>18.166666666666668</ele><time>2026-05-02T06:18:52Z</time></trkpt><trkpt lat="14.41199933498622" lon="121.04128706792358"><ele>18.333333333333332</ele><time>2026-05-02T06:18:53Z</time></trkpt><trkpt lat="14.412048101340313" lon="121.04119942640533"><ele>18.5</ele><time>2026-05-02T06:18:55Z</time></trkpt><trkpt lat="14.412077986105857" lon="121.0411418482814"><ele>18.666666666666664</ele><time>2026-05-02T06:18:57Z</time></trkpt><trkpt lat="14.412111500896309" lon="121.04107599481385"><ele>18.833333333333332</ele><time>2026-05-02T06:19:00Z</time></trkpt><trkpt lat="14.412133154025504" lon="121.0410025617803"><ele>19.0</ele><time>2026-05-02T06:19:05Z</time></trkpt><trkpt lat="14.412150909407302" lon="121.04091687630016"><ele>19.333333333333332</ele><time>2026-05-02T06:19:09Z</time></trkpt><trkpt lat="14.412170292525254" lon="121.04084125802848"><ele>19.666666666666664</ele><time>2026-05-02T06:19:12Z</time></trkpt><trkpt lat="14.412191502742505" lon="121.04075872464692"><ele>20.0</ele><time>2026-05-02T06:19:14Z</time></trkpt><trkpt lat="14.412222197006555" lon="121.04063032375286"><ele>20.333333333333332</ele><time>2026-05-02T06:19:16Z</time></trkpt><trkpt lat="14.412235144947328" lon="121.04055066625261"><ele>20.666666666666668</ele><time>2026-05-02T06:19:17Z</time></trkpt><trkpt lat="14.412247248153749" lon="121.04047452954507"><ele>21.0</ele><time>2026-05-02T06:19:18Z</time></trkpt><trkpt lat="14.412258795828421" lon="121.04039724469249"><ele>21.0</ele><time>2026-05-02T06:19:19Z</time></trkpt><trkpt lat="14.41226718247751" lon="121.0403270090278"><ele>21.0</ele><time>2026-05-02T06:19:20Z</time></trkpt><trkpt lat="14.41227707162779" lon="121.0402614528939"><ele>21.0</ele><time>2026-05-02T06:19:21Z</time></trkpt><trkpt lat="14.412295925606339" lon="121.04014951673402"><ele>21.0</ele><time>2026-05-02T06:19:23Z</time></trkpt><trkpt lat="14.4123129182077" lon="121.04004288171748"><ele>21.0</ele><time>2026-05-02T06:19:25Z</time></trkpt><trkpt lat="14.412326651014475" lon="121.03993699036745"><ele>21.8</ele><time>2026-05-02T06:19:27Z</time></trkpt><trkpt lat="14.412335412416192" lon="121.03984252021935"><ele>22.6</ele><time>2026-05-02T06:19:29Z</time></trkpt><trkpt lat="14.41234108061143" lon="121.03975739054734"><ele>23.4</ele><time>2026-05-02T06:19:31Z</time></trkpt><trkpt lat="14.412344771961003" lon="121.03966865314744"><ele>24.2</ele><time>2026-05-02T06:19:33Z</time></trkpt><trkpt lat="14.412348697494465" lon="121.03956920480124"><ele>25.0</ele><time>2026-05-02T06:19:35Z</time></trkpt><trkpt lat="14.412353443888225" lon="121.03946807014314"><ele>25.0</ele><time>2026-05-02T06:19:37.001Z</time></trkpt><trkpt lat="14.412359273028908" lon="121.03936975854718"><ele>25.0</ele><time>2026-05-02T06:19:39.001Z</time></trkpt><trkpt lat="14.412367463345925" lon="121.03927280859335"><ele>25.0</ele><time>2026-05-02T06:19:41.001Z</time></trkpt><trkpt lat="14.412395386307432" lon="121.03918522684262"><ele>25.0</ele><time>2026-05-02T06:19:43.001Z</time></trkpt><trkpt lat="14.412457914489053" lon="121.03910672402753"><ele>25.0</ele><time>2026-05-02T06:19:45.001Z</time></trkpt><trkpt lat="14.412551886268892" lon="121.03905879552086"><ele>24.666666666666668</ele><time>2026-05-02T06:19:47.001Z</time></trkpt><trkpt lat="14.412668554976564" lon="121.03903171036754"><ele>24.333333333333336</ele><time>2026-05-02T06:19:49.001Z</time></trkpt><trkpt lat="14.412733487519617" lon="121.03902206931821"><ele>24.0</ele><time>2026-05-02T06:19:50.001Z</time></trkpt><trkpt lat="14.412801451127581" lon="121.03901219284555"><ele>23.666666666666668</ele><time>2026-05-02T06:19:51.001Z</time></trkpt><trkpt lat="14.412870165053038" lon="121.03900752245089"><ele>23.333333333333336</ele><time>2026-05-02T06:19:52.001Z</time></trkpt><trkpt lat="14.412939741130593" lon="121.03900280529864"><ele>23.0</ele><time>2026-05-02T06:19:53.001Z</time></trkpt><trkpt lat="14.413007649121303" lon="121.03901741459399"><ele>22.166666666666668</ele><time>2026-05-02T06:19:54.001Z</time></trkpt><trkpt lat="14.413071675940158" lon="121.03900002747164"><ele>21.333333333333336</ele><time>2026-05-02T06:19:55.001Z</time></trkpt><trkpt lat="14.413134755862902" lon="121.03900008709829"><ele>20.5</ele><time>2026-05-02T06:19:56.001Z</time></trkpt><trkpt lat="14.413248980309021" lon="121.03900330384295"><ele>19.666666666666668</ele><time>2026-05-02T06:19:58.001Z</time></trkpt><trkpt lat="14.41333742460861" lon="121.03900417641978"><ele>18.833333333333332</ele><time>2026-05-02T06:20:00.001Z</time></trkpt><trkpt lat="14.413403409773784" lon="121.03901428213379"><ele>18.0</ele><time>2026-05-02T06:20:03.001Z</time></trkpt><trkpt lat="14.413469291992495" lon="121.03900780650811"><ele>18.0</ele><time>2026-05-02T06:21:06Z</time></trkpt><trkpt lat="14.413538442220311" lon="121.03900552589873"><ele>18.0</ele><time>2026-05-02T06:21:08Z</time></trkpt><trkpt lat="14.413628993490642" lon="121.0390117564655"><ele>18.0</ele><time>2026-05-02T06:21:10Z</time></trkpt><trkpt lat="14.41372134416169" lon="121.03899306163768"><ele>18.0</ele><time>2026-05-02T06:21:12Z</time></trkpt><trkpt lat="14.413809967741765" lon="121.03898907153571"><ele>18.0</ele><time>2026-05-02T06:21:14Z</time></trkpt><trkpt lat="14.4139225970487" lon="121.03899852348464"><ele>18.833333333333332</ele><time>2026-05-02T06:21:16Z</time></trkpt><trkpt lat="14.413995352906364" lon="121.03900310484565"><ele>19.666666666666668</ele><time>2026-05-02T06:21:17Z</time></trkpt><trkpt lat="14.414113154707096" lon="121.03898878606987"><ele>20.5</ele><time>2026-05-02T06:21:19Z</time></trkpt><trkpt lat="14.414176332226482" lon="121.03897332459687"><ele>21.333333333333336</ele><time>2026-05-02T06:21:20Z</time></trkpt><trkpt lat="14.414241241296695" lon="121.0389504567103"><ele>22.166666666666668</ele><time>2026-05-02T06:21:21Z</time></trkpt><trkpt lat="14.414316094328594" lon="121.03892557388085"><ele>23.0</ele><time>2026-05-02T06:21:22Z</time></trkpt><trkpt lat="14.414390338633675" lon="121.03890398463919"><ele>23.0</ele><time>2026-05-02T06:21:23Z</time></trkpt><trkpt lat="14.414462241569534" lon="121.0388871682733"><ele>23.0</ele><time>2026-05-02T06:21:24Z</time></trkpt><trkpt lat="14.414528603386373" lon="121.0388714690586"><ele>23.0</ele><time>2026-05-02T06:21:25Z</time></trkpt><trkpt lat="14.414595541536805" lon="121.03885468130743"><ele>23.0</ele><time>2026-05-02T06:21:26Z</time></trkpt><trkpt lat="14.41465675488678" lon="121.03883656895083"><ele>23.0</ele><time>2026-05-02T06:21:27Z</time></trkpt><trkpt lat="14.414762469561124" lon="121.03879225615687"><ele>23.0</ele><time>2026-05-02T06:21:29Z</time></trkpt><trkpt lat="14.414823123228416" lon="121.03875775704822"><ele>22.5</ele><time>2026-05-02T06:21:30Z</time></trkpt><trkpt lat="14.414882342028163" lon="121.03871509884901"><ele>22.0</ele><time>2026-05-02T06:21:31Z</time></trkpt><trkpt lat="14.414930258096923" lon="121.03866326591705"><ele>21.5</ele><time>2026-05-02T06:21:32Z</time></trkpt><trkpt lat="14.414992654339395" lon="121.03861740178915"><ele>21.0</ele><time>2026-05-02T06:21:33Z</time></trkpt><trkpt lat="14.41506138319577" lon="121.03856987948748"><ele>20.5</ele><time>2026-05-02T06:21:34Z</time></trkpt><trkpt lat="14.415132328058476" lon="121.0385286585122"><ele>20.0</ele><time>2026-05-02T06:21:35Z</time></trkpt><trkpt lat="14.4152067421591" lon="121.03848717788911"><ele>20.0</ele><time>2026-05-02T06:21:36Z</time></trkpt><trkpt lat="14.415290144697142" lon="121.03843666848184"><ele>20.0</ele><time>2026-05-02T06:21:37Z</time></trkpt><trkpt lat="14.415369964135945" lon="121.03839310266035"><ele>20.0</ele><time>2026-05-02T06:21:38Z</time></trkpt><trkpt lat="14.415452960957731" lon="121.03834782892963"><ele>20.0</ele><time>2026-05-02T06:21:39Z</time></trkpt><trkpt lat="14.415536735843629" lon="121.03830523281052"><ele>20.0</ele><time>2026-05-02T06:21:40Z</time></trkpt><trkpt lat="14.415623808205783" lon="121.0382640667416"><ele>19.4</ele><time>2026-05-02T06:21:41.001Z</time></trkpt><trkpt lat="14.41571058405284" lon="121.03822704590422"><ele>18.8</ele><time>2026-05-02T06:21:42.001Z</time></trkpt><trkpt lat="14.415797963396813" lon="121.03819166352699"><ele>18.2</ele><time>2026-05-02T06:21:43.001Z</time></trkpt><trkpt lat="14.41588860654075" lon="121.03815402191952"><ele>17.6</ele><time>2026-05-02T06:21:44.001Z</time></trkpt><trkpt lat="14.41598053093193" lon="121.03811896837021"><ele>17.0</ele><time>2026-05-02T06:21:45.001Z</time></trkpt><trkpt lat="14.416075239885412" lon="121.038087548959"><ele>17.0</ele><time>2026-05-02T06:21:46.001Z</time></trkpt><trkpt lat="14.416177863936039" lon="121.03807528248501"><ele>17.0</ele><time>2026-05-02T06:21:47.001Z</time></trkpt><trkpt lat="14.416274195441135" lon="121.03806052544343"><ele>17.0</ele><time>2026-05-02T06:21:48.001Z</time></trkpt><trkpt lat="14.41638031617735" lon="121.03804701688368"><ele>17.0</ele><time>2026-05-02T06:21:49.001Z</time></trkpt><trkpt lat="14.416473464695638" lon="121.03804055574575"><ele>17.0</ele><time>2026-05-02T06:21:50.001Z</time></trkpt><trkpt lat="14.416571009102709" lon="121.03803626484542"><ele>17.2</ele><time>2026-05-02T06:21:51.001Z</time></trkpt><trkpt lat="14.416658228310364" lon="121.0380351648438"><ele>17.4</ele><time>2026-05-02T06:21:52.001Z</time></trkpt><trkpt lat="14.41676203576131" lon="121.03803573033257"><ele>17.6</ele><time>2026-05-02T06:21:53.001Z</time></trkpt><trkpt lat="14.416849684833391" lon="121.03803870517766"><ele>17.8</ele><time>2026-05-02T06:21:54.001Z</time></trkpt><trkpt lat="14.416933286472656" lon="121.03804695147036"><ele>18.0</ele><time>2026-05-02T06:21:55.001Z</time></trkpt><trkpt lat="14.417027618929438" lon="121.03805900950415"><ele>18.0</ele><time>2026-05-02T06:21:56.001Z</time></trkpt><trkpt lat="14.417125235488918" lon="121.03807148732774"><ele>18.0</ele><time>2026-05-02T06:21:57.001Z</time></trkpt><trkpt lat="14.417218246353572" lon="121.03808533895726"><ele>18.0</ele><time>2026-05-02T06:21:58.001Z</time></trkpt><trkpt lat="14.417308999943396" lon="121.03810456604482"><ele>18.0</ele><time>2026-05-02T06:21:59.001Z</time></trkpt><trkpt lat="14.417395481643322" lon="121.03812288808868"><ele>18.0</ele><time>2026-05-02T06:22:00.001Z</time></trkpt><trkpt lat="14.417470174614605" lon="121.03814418357881"><ele>17.666666666666668</ele><time>2026-05-02T06:22:01.001Z</time></trkpt><trkpt lat="14.417553077717002" lon="121.03816510768812"><ele>17.333333333333332</ele><time>2026-05-02T06:22:02.001Z</time></trkpt><trkpt lat="14.417638323284956" lon="121.03820651137939"><ele>17.0</ele><time>2026-05-02T06:22:03.001Z</time></trkpt><trkpt lat="14.417719008384227" lon="121.03823501110527"><ele>16.666666666666664</ele><time>2026-05-02T06:22:04.001Z</time></trkpt><trkpt lat="14.417786695130706" lon="121.0382550061415"><ele>16.333333333333332</ele><time>2026-05-02T06:22:05.001Z</time></trkpt><trkpt lat="14.417857221943084" lon="121.03828107392914"><ele>16.0</ele><time>2026-05-02T06:22:06.001Z</time></trkpt><trkpt lat="14.41795778014475" lon="121.03834182016598"><ele>17.166666666666664</ele><time>2026-05-02T06:22:08.001Z</time></trkpt><trkpt lat="14.418013614498436" lon="121.03837684653799"><ele>18.333333333333332</ele><time>2026-05-02T06:22:11.001Z</time></trkpt><trkpt lat="14.417953992878479" lon="121.03833887973462"><ele>19.5</ele><time>2026-05-02T06:22:16.001Z</time></trkpt><trkpt lat="14.418017080862587" lon="121.03836520797314"><ele>20.666666666666668</ele><time>2026-05-02T06:23:09Z</time></trkpt><trkpt lat="14.418092144641427" lon="121.03841085924883"><ele>21.833333333333336</ele><time>2026-05-02T06:23:12Z</time></trkpt><trkpt lat="14.418162354531619" lon="121.03844568007179"><ele>23.0</ele><time>2026-05-02T06:23:14Z</time></trkpt><trkpt lat="14.41827530379991" lon="121.0384725839588"><ele>23.5</ele><time>2026-05-02T06:23:16Z</time></trkpt><trkpt lat="14.418335172126978" lon="121.03852385767236"><ele>24.0</ele><time>2026-05-02T06:23:18Z</time></trkpt><trkpt lat="14.41848169207017" lon="121.03840187944647"><ele>24.5</ele><time>2026-05-02T06:23:21Z</time></trkpt><trkpt lat="14.418531051304019" lon="121.03831908280993"><ele>25.0</ele><time>2026-05-02T06:23:23Z</time></trkpt><trkpt lat="14.418587249374836" lon="121.03820941922186"><ele>25.000000000000004</ele><time>2026-05-02T06:23:25Z</time></trkpt><trkpt lat="14.418618928259463" lon="121.03814318622592"><ele>25.0</ele><time>2026-05-02T06:23:26Z</time></trkpt><trkpt lat="14.418655111404462" lon="121.03807521067597"><ele>25.0</ele><time>2026-05-02T06:23:27Z</time></trkpt><trkpt lat="14.418698858182749" lon="121.03799529508505"><ele>25.0</ele><time>2026-05-02T06:23:28Z</time></trkpt><trkpt lat="14.418747121493652" lon="121.03790530672113"><ele>25.000000000000004</ele><time>2026-05-02T06:23:29Z</time></trkpt><trkpt lat="14.418800846401757" lon="121.03780655964145"><ele>25.0</ele><time>2026-05-02T06:23:30Z</time></trkpt><trkpt lat="14.41884994648783" lon="121.0377176250282"><ele>25.2</ele><time>2026-05-02T06:23:31Z</time></trkpt><trkpt lat="14.418897458319933" lon="121.03762872050186"><ele>25.4</ele><time>2026-05-02T06:23:32Z</time></trkpt><trkpt lat="14.418947518204632" lon="121.03753932389898"><ele>25.6</ele><time>2026-05-02T06:23:33Z</time></trkpt><trkpt lat="14.419000119381995" lon="121.03744349018996"><ele>25.8</ele><time>2026-05-02T06:23:34Z</time></trkpt><trkpt lat="14.419055762487243" lon="121.03734424945696"><ele>26.0</ele><time>2026-05-02T06:23:35Z</time></trkpt><trkpt lat="14.419109126000947" lon="121.03725316786893"><ele>26.0</ele><time>2026-05-02T06:23:36Z</time></trkpt><trkpt lat="14.419163653168225" lon="121.03716711755368"><ele>26.0</ele><time>2026-05-02T06:23:37Z</time></trkpt><trkpt lat="14.419219443987183" lon="121.03707621173214"><ele>26.0</ele><time>2026-05-02T06:23:38Z</time></trkpt><trkpt lat="14.419273611503742" lon="121.03697834077289"><ele>26.0</ele><time>2026-05-02T06:23:39Z</time></trkpt><trkpt lat="14.419330531466127" lon="121.03687954324673"><ele>26.0</ele><time>2026-05-02T06:23:40Z</time></trkpt><trkpt lat="14.419387282889277" lon="121.03678156239677"><ele>26.0</ele><time>2026-05-02T06:23:41Z</time></trkpt><trkpt lat="14.419444232576314" lon="121.03668124455909"><ele>26.0</ele><time>2026-05-02T06:23:42Z</time></trkpt><trkpt lat="14.419511475605828" lon="121.03656858694991"><ele>26.0</ele><time>2026-05-02T06:23:43Z</time></trkpt><trkpt lat="14.419566795501726" lon="121.036477972478"><ele>26.0</ele><time>2026-05-02T06:23:44Z</time></trkpt><trkpt lat="14.419615301388653" lon="121.0363960923174"><ele>26.0</ele><time>2026-05-02T06:23:45Z</time></trkpt><trkpt lat="14.419660279967182" lon="121.03631873858896"><ele>25.666666666666664</ele><time>2026-05-02T06:23:46Z</time></trkpt><trkpt lat="14.419700767285164" lon="121.0362451847044"><ele>25.333333333333332</ele><time>2026-05-02T06:23:47Z</time></trkpt><trkpt lat="14.419744608989006" lon="121.03616798710419"><ele>25.0</ele><time>2026-05-02T06:23:48Z</time></trkpt><trkpt lat="14.41977641860467" lon="121.03608950420059"><ele>24.666666666666664</ele><time>2026-05-02T06:23:49Z</time></trkpt><trkpt lat="14.419806684641312" lon="121.0360176075537"><ele>24.333333333333332</ele><time>2026-05-02T06:23:50Z</time></trkpt><trkpt lat="14.419840912989793" lon="121.03594548806835"><ele>24.0</ele><time>2026-05-02T06:23:51Z</time></trkpt><trkpt lat="14.419876639517291" lon="121.03587308541464"><ele>24.2</ele><time>2026-05-02T06:23:52Z</time></trkpt><trkpt lat="14.419915329049369" lon="121.03580102577345"><ele>24.4</ele><time>2026-05-02T06:23:53Z</time></trkpt><trkpt lat="14.41994921576337" lon="121.03574084241072"><ele>24.6</ele><time>2026-05-02T06:23:54Z</time></trkpt><trkpt lat="14.42000343803326" lon="121.03563675554048"><ele>24.8</ele><time>2026-05-02T06:23:56Z</time></trkpt><trkpt lat="14.420055307875115" lon="121.03554104476929"><ele>25.0</ele><time>2026-05-02T06:23:58Z</time></trkpt><trkpt lat="14.420102313100593" lon="121.03546455821407"><ele>25.0</ele><time>2026-05-02T06:24:00Z</time></trkpt><trkpt lat="14.420146758535974" lon="121.03539250310484"><ele>25.0</ele><time>2026-05-02T06:24:03Z</time></trkpt><trkpt lat="14.420182905993666" lon="121.03533871576512"><ele>25.0</ele><time>2026-05-02T06:24:06Z</time></trkpt><trkpt lat="14.420256024948422" lon="121.03524184629974"><ele>25.0</ele><time>2026-05-02T06:24:41Z</time></trkpt><trkpt lat="14.420314233132054" lon="121.03513586553849"><ele>25.0</ele><time>2026-05-02T06:24:43Z</time></trkpt><trkpt lat="14.420365179677004" lon="121.03504407569841"><ele>25.0</ele><time>2026-05-02T06:24:45Z</time></trkpt><trkpt lat="14.420397702212577" lon="121.03498789546431"><ele>25.0</ele><time>2026-05-02T06:24:46Z</time></trkpt><trkpt lat="14.4204726365494" lon="121.03484788809119"><ele>25.0</ele><time>2026-05-02T06:24:48Z</time></trkpt><trkpt lat="14.420507057926745" lon="121.0347821471615"><ele>25.0</ele><time>2026-05-02T06:24:49Z</time></trkpt><trkpt lat="14.420554075188956" lon="121.03470448408889"><ele>25.0</ele><time>2026-05-02T06:24:50Z</time></trkpt><trkpt lat="14.420588644201098" lon="121.03464071923479"><ele>24.666666666666668</ele><time>2026-05-02T06:24:51Z</time></trkpt><trkpt lat="14.420635008064679" lon="121.03458897274491"><ele>24.333333333333336</ele><time>2026-05-02T06:24:52Z</time></trkpt><trkpt lat="14.420666526330475" lon="121.03452658424123"><ele>24.0</ele><time>2026-05-02T06:24:53Z</time></trkpt><trkpt lat="14.420690756054373" lon="121.03446023455784"><ele>23.666666666666668</ele><time>2026-05-02T06:24:54Z</time></trkpt><trkpt lat="14.420732238732622" lon="121.03434709557625"><ele>23.333333333333336</ele><time>2026-05-02T06:24:56Z</time></trkpt><trkpt lat="14.420765108570324" lon="121.03425327139851"><ele>23.0</ele><time>2026-05-02T06:24:58Z</time></trkpt><trkpt lat="14.420803866733182" lon="121.03415293384639"><ele>24.4</ele><time>2026-05-02T06:25:00Z</time></trkpt><trkpt lat="14.42084683978675" lon="121.03404160058689"><ele>25.799999999999997</ele><time>2026-05-02T06:25:02Z</time></trkpt><trkpt lat="14.420890742232803" lon="121.0339330355772"><ele>27.2</ele><time>2026-05-02T06:25:04Z</time></trkpt><trkpt lat="14.42093218882012" lon="121.03381975657355"><ele>28.6</ele><time>2026-05-02T06:25:06Z</time></trkpt><trkpt lat="14.42094960095684" lon="121.03375415749225"><ele>30.0</ele><time>2026-05-02T06:25:07Z</time></trkpt><trkpt lat="14.420991542557822" lon="121.0336235816597"><ele>30.0</ele><time>2026-05-02T06:25:09Z</time></trkpt><trkpt lat="14.421003262003428" lon="121.03353929012358"><ele>30.0</ele><time>2026-05-02T06:25:10Z</time></trkpt><trkpt lat="14.421010218651642" lon="121.03346470847004"><ele>30.0</ele><time>2026-05-02T06:25:11Z</time></trkpt><trkpt lat="14.42100903061816" lon="121.03339253970907"><ele>30.0</ele><time>2026-05-02T06:25:12Z</time></trkpt><trkpt lat="14.421025077954239" lon="121.03331915837047"><ele>30.0</ele><time>2026-05-02T06:25:13Z</time></trkpt><trkpt lat="14.42103856333964" lon="121.03325178156733"><ele>30.0</ele><time>2026-05-02T06:25:14Z</time></trkpt><trkpt lat="14.421053413385852" lon="121.03318509726356"><ele>30.0</ele><time>2026-05-02T06:25:15Z</time></trkpt><trkpt lat="14.421097126585293" lon="121.0331135380023"><ele>30.6</ele><time>2026-05-02T06:25:16Z</time></trkpt><trkpt lat="14.421131827046278" lon="121.03299154593304"><ele>31.2</ele><time>2026-05-02T06:25:18Z</time></trkpt><trkpt lat="14.421149442899864" lon="121.03292366193979"><ele>31.799999999999997</ele><time>2026-05-02T06:25:19Z</time></trkpt><trkpt lat="14.421165911431359" lon="121.03285864316854"><ele>32.4</ele><time>2026-05-02T06:25:20Z</time></trkpt><trkpt lat="14.421198754105289" lon="121.03274588239998"><ele>33.0</ele><time>2026-05-02T06:25:22Z</time></trkpt><trkpt lat="14.421231767399822" lon="121.03264339545645"><ele>33.0</ele><time>2026-05-02T06:25:24Z</time></trkpt><trkpt lat="14.421252327531343" lon="121.03254919824035"><ele>33.0</ele><time>2026-05-02T06:25:26Z</time></trkpt><trkpt lat="14.421283204890976" lon="121.03245853082115"><ele>33.0</ele><time>2026-05-02T06:25:28Z</time></trkpt><trkpt lat="14.421308370191655" lon="121.03237630225738"><ele>33.0</ele><time>2026-05-02T06:25:30Z</time></trkpt><trkpt lat="14.421321028422582" lon="121.03228805243319"><ele>33.0</ele><time>2026-05-02T06:25:32Z</time></trkpt><trkpt lat="14.421337413897225" lon="121.03222474327349"><ele>33.0</ele><time>2026-05-02T06:25:34Z</time></trkpt><trkpt lat="14.421358474397756" lon="121.03214291240104"><ele>31.0</ele><time>2026-05-02T06:25:36Z</time></trkpt><trkpt lat="14.421379452091976" lon="121.0320566920387"><ele>28.999999999999996</ele><time>2026-05-02T06:25:38Z</time></trkpt><trkpt lat="14.421404730857107" lon="121.03194413278234"><ele>27.0</ele><time>2026-05-02T06:25:40Z</time></trkpt><trkpt lat="14.421419999083833" lon="121.03187714701627"><ele>25.0</ele><time>2026-05-02T06:25:41Z</time></trkpt><trkpt lat="14.421435519165799" lon="121.0318098417442"><ele>23.0</ele><time>2026-05-02T06:25:42Z</time></trkpt><trkpt lat="14.42147128795244" lon="121.03167818114721"><ele>23.599999999999998</ele><time>2026-05-02T06:25:44Z</time></trkpt><trkpt lat="14.42149324760116" lon="121.03161475850855"><ele>24.2</ele><time>2026-05-02T06:25:45Z</time></trkpt><trkpt lat="14.421514268549782" lon="121.03155251335639"><ele>24.8</ele><time>2026-05-02T06:25:46Z</time></trkpt><trkpt lat="14.421550775668905" lon="121.03144164581545"><ele>25.4</ele><time>2026-05-02T06:25:48Z</time></trkpt><trkpt lat="14.421583324535275" lon="121.03132979555916"><ele>26.0</ele><time>2026-05-02T06:25:50Z</time></trkpt><trkpt lat="14.421598378341853" lon="121.0311999122735"><ele>26.0</ele><time>2026-05-02T06:25:52Z</time></trkpt><trkpt lat="14.421625397805359" lon="121.03108148186107"><ele>26.0</ele><time>2026-05-02T06:25:54Z</time></trkpt><trkpt lat="14.421640081558412" lon="121.03101751403935"><ele>26.0</ele><time>2026-05-02T06:25:55Z</time></trkpt><trkpt lat="14.421660422692232" lon="121.030928900586"><ele>26.0</ele><time>2026-05-02T06:25:57Z</time></trkpt><trkpt lat="14.421679951551551" lon="121.03084382569988"><ele>26.0</ele><time>2026-05-02T06:25:59Z</time></trkpt><trkpt lat="14.421701933170404" lon="121.03074806568458"><ele>26.0</ele><time>2026-05-02T06:26:02Z</time></trkpt><trkpt lat="14.421725736217386" lon="121.03066010772697"><ele>26.0</ele><time>2026-05-02T06:26:05Z</time></trkpt><trkpt lat="14.421886848941218" lon="121.03082115565257"><ele>26.0</ele><time>2026-05-02T06:26:06Z</time></trkpt><trkpt lat="14.421957459561458" lon="121.0308013797169"><ele>26.0</ele><time>2026-05-02T06:26:07Z</time></trkpt><trkpt lat="14.422021967983598" lon="121.03078201340351"><ele>26.499999999999996</ele><time>2026-05-02T06:26:09Z</time></trkpt><trkpt lat="14.422119264667353" lon="121.03075280359704"><ele>27.0</ele><time>2026-05-02T06:26:11Z</time></trkpt><trkpt lat="14.422208797182364" lon="121.03074448467794"><ele>27.5</ele><time>2026-05-02T06:26:13Z</time></trkpt><trkpt lat="14.422281453004342" lon="121.03073219053148"><ele>28.0</ele><time>2026-05-02T06:26:15Z</time></trkpt><trkpt lat="14.4223646683368" lon="121.03072488078875"><ele>28.499999999999996</ele><time>2026-05-02T06:26:18Z</time></trkpt><trkpt lat="14.422435406769445" lon="121.03071940325574"><ele>29.0</ele><time>2026-05-02T06:26:24.001Z</time></trkpt><trkpt lat="14.422506172452403" lon="121.03071392361149"><ele>29.0</ele><time>2026-05-02T06:27:50Z</time></trkpt><trkpt lat="14.422678459567571" lon="121.03033300875126"><ele>29.0</ele><time>2026-05-02T06:28:34.001Z</time></trkpt><trkpt lat="14.422684077154388" lon="121.0302635890698"><ele>29.0</ele><time>2026-05-02T06:29:10Z</time></trkpt><trkpt lat="14.422709710798468" lon="121.03019720607301"><ele>29.0</ele><time>2026-05-02T06:32:55.001Z</time></trkpt><trkpt lat="14.422450742085264" lon="121.03009298136469"><ele>29.0</ele><time>2026-05-02T06:33:32Z</time></trkpt><trkpt lat="14.422542117534384" lon="121.0301493151482"><ele>28.999999999999996</ele><time>2026-05-02T06:36:09Z</time></trkpt><trkpt lat="14.422456019740231" lon="121.03013829414952"><ele>29.0</ele><time>2026-05-02T06:37:12Z</time></trkpt><trkpt lat="14.4224057659954" lon="121.03018225716637"><ele>29.0</ele><time>2026-05-02T06:37:19Z</time></trkpt><trkpt lat="14.422455132720984" lon="121.0301190544375"><ele>29.0</ele><time>2026-05-02T06:38:32Z</time></trkpt><trkpt lat="14.42255751754153" lon="121.03009889324274"><ele>28.999999999999996</ele><time>2026-05-02T06:38:37Z</time></trkpt><trkpt lat="14.42248056252052" lon="121.03015652965821"><ele>29.0</ele><time>2026-05-02T06:39:03Z</time></trkpt><trkpt lat="14.422509233433708" lon="121.03021841893124"><ele>29.0</ele><time>2026-05-02T06:39:17Z</time></trkpt><trkpt lat="14.42264927884674" lon="121.03013967197023"><ele>29.0</ele><time>2026-05-02T06:39:43.001Z</time></trkpt><trkpt lat="14.422591323564246" lon="121.03020009758863"><ele>29.0</ele><time>2026-05-02T06:40:01.001Z</time></trkpt><trkpt lat="14.422524746349387" lon="121.0302036985"><ele>29.0</ele><time>2026-05-02T06:40:03.001Z</time></trkpt><trkpt lat="14.42245928634947" lon="121.03018579575068"><ele>29.0</ele><time>2026-05-02T06:40:05.001Z</time></trkpt><trkpt lat="14.422471025654055" lon="121.03009540517768"><ele>29.000000000000004</ele><time>2026-05-02T06:40:30Z</time></trkpt><trkpt lat="14.422407520540881" lon="121.03006231428931"><ele>29.0</ele><time>2026-05-02T06:40:36Z</time></trkpt><trkpt lat="14.422335488781163" lon="121.03007647686441"><ele>29.000000000000004</ele><time>2026-05-02T06:40:41Z</time></trkpt><trkpt lat="14.4222684625667" lon="121.03004078173466"><ele>29.000000000000004</ele><time>2026-05-02T06:40:47Z</time></trkpt><trkpt lat="14.422211228706002" lon="121.02998839032426"><ele>29.0</ele><time>2026-05-02T06:40:55Z</time></trkpt><trkpt lat="14.422163543873387" lon="121.02993146072997"><ele>29.000000000000004</ele><time>2026-05-02T06:41:05Z</time></trkpt><trkpt lat="14.422169762827004" lon="121.02986067048826"><ele>29.000000000000004</ele><time>2026-05-02T06:41:08Z</time></trkpt><trkpt lat="14.42219523599224" lon="121.02980076048755"><ele>28.999999999999996</ele><time>2026-05-02T06:41:13Z</time></trkpt><trkpt lat="14.422221208616207" lon="121.02973010632874"><ele>29.0</ele><time>2026-05-02T06:41:20Z</time></trkpt><trkpt lat="14.42224088894808" lon="121.02966533868018"><ele>29.0</ele><time>2026-05-02T06:41:24Z</time></trkpt><trkpt lat="14.422271667626465" lon="121.02960712057958"><ele>29.0</ele><time>2026-05-02T06:41:30Z</time></trkpt><trkpt lat="14.422424189093398" lon="121.02959113094134"><ele>28.999999999999996</ele><time>2026-05-02T06:41:50Z</time></trkpt><trkpt lat="14.422489038926575" lon="121.02962521605583"><ele>29.0</ele><time>2026-05-02T06:42:00Z</time></trkpt><trkpt lat="14.422984109284515" lon="121.02969977618191"><ele>29.0</ele><time>2026-05-02T06:44:42.001Z</time></trkpt><trkpt lat="14.422845031671146" lon="121.0297738438877"><ele>29.0</ele><time>2026-05-02T06:45:20Z</time></trkpt><trkpt lat="14.422854923230984" lon="121.02983952063813"><ele>29.0</ele><time>2026-05-02T06:45:28.076Z</time></trkpt><trkpt lat="14.422604564564958" lon="121.03017403612021"><ele>28.999999999999996</ele><time>2026-05-02T06:46:28.017Z</time></trkpt><trkpt lat="14.422696376845145" lon="121.03009773655154"><ele>29.0</ele><time>2026-05-02T06:46:34.018Z</time></trkpt><trkpt lat="14.422765665693245" lon="121.03006112615921"><ele>29.0</ele><time>2026-05-02T06:46:38Z</time></trkpt><trkpt lat="14.422818531101422" lon="121.03001612736563"><ele>29.0</ele><time>2026-05-02T06:46:40Z</time></trkpt><trkpt lat="14.422875491094624" lon="121.02997981202498"><ele>28.999999999999996</ele><time>2026-05-02T06:46:44.02Z</time></trkpt><trkpt lat="14.422911120605574" lon="121.02991723682553"><ele>29.0</ele><time>2026-05-02T06:46:49.019Z</time></trkpt><trkpt lat="14.423054497754732" lon="121.02984712752757"><ele>30.0</ele><time>2026-05-02T06:46:55.02Z</time></trkpt><trkpt lat="14.42310411597482" lon="121.02979805446145"><ele>31.0</ele><time>2026-05-02T06:46:59.023Z</time></trkpt><trkpt lat="14.423102912130583" lon="121.029726340589"><ele>32.0</ele><time>2026-05-02T06:47:05.023Z</time></trkpt><trkpt lat="14.423268407501888" lon="121.02972851247313"><ele>33.0</ele><time>2026-05-02T06:47:38.019Z</time></trkpt><trkpt lat="14.423230432338267" lon="121.02979214085366"><ele>34.0</ele><time>2026-05-02T06:47:43.019Z</time></trkpt><trkpt lat="14.423232571920806" lon="121.02989509249345"><ele>34.0</ele><time>2026-05-02T06:47:54.001Z</time></trkpt><trkpt lat="14.423311597325682" lon="121.02991095217082"><ele>34.0</ele><time>2026-05-02T06:47:55.024Z</time></trkpt><trkpt lat="14.423263932386508" lon="121.02999117159933"><ele>34.0</ele><time>2026-05-02T06:47:59.021Z</time></trkpt><trkpt lat="14.423273142331936" lon="121.03008532465591"><ele>34.0</ele><time>2026-05-02T06:48:02.021Z</time></trkpt><trkpt lat="14.423280505735374" lon="121.03016297970329"><ele>34.0</ele><time>2026-05-02T06:48:05.02Z</time></trkpt><trkpt lat="14.423264649804391" lon="121.03023713316031"><ele>34.0</ele><time>2026-05-02T06:48:09.018Z</time></trkpt><trkpt lat="14.423273815034026" lon="121.03030981975492"><ele>33.333333333333336</ele><time>2026-05-02T06:48:19.015Z</time></trkpt><trkpt lat="14.423280738079272" lon="121.03037575397937"><ele>32.666666666666664</ele><time>2026-05-02T06:48:28.014Z</time></trkpt><trkpt lat="14.423194910379891" lon="121.03025864983877"><ele>32.0</ele><time>2026-05-02T06:48:29.018Z</time></trkpt><trkpt lat="14.423537835112388" lon="121.03005519872735"><ele>31.999999999999996</ele><time>2026-05-02T06:48:30.001Z</time></trkpt><trkpt lat="14.42349689115092" lon="121.03000520607632"><ele>32.0</ele><time>2026-05-02T06:48:43Z</time></trkpt><trkpt lat="14.423403923733316" lon="121.03000655775057"><ele>32.0</ele><time>2026-05-02T06:49:09Z</time></trkpt><trkpt lat="14.423350511661852" lon="121.02993134918252"><ele>32.0</ele><time>2026-05-02T06:49:11Z</time></trkpt><trkpt lat="14.423285590129787" lon="121.02987832669872"><ele>31.999999999999996</ele><time>2026-05-02T06:49:12Z</time></trkpt><trkpt lat="14.423330862824079" lon="121.029929048199"><ele>32.0</ele><time>2026-05-02T06:49:19Z</time></trkpt><trkpt lat="14.42339741865058" lon="121.02996675528655"><ele>32.0</ele><time>2026-05-02T06:49:20Z</time></trkpt><trkpt lat="14.423451956088245" lon="121.03002305752538"><ele>32.0</ele><time>2026-05-02T06:49:24Z</time></trkpt><trkpt lat="14.423517435616178" lon="121.03001746374356"><ele>32.0</ele><time>2026-05-02T06:50:23Z</time></trkpt><trkpt lat="14.423542892131103" lon="121.02994784853679"><ele>32.0</ele><time>2026-05-02T06:50:30Z</time></trkpt><trkpt lat="14.42347919045567" lon="121.02979466937715"><ele>32.0</ele><time>2026-05-02T06:51:28Z</time></trkpt><trkpt lat="14.423381622676223" lon="121.02992604277873"><ele>31.999999999999996</ele><time>2026-05-02T06:51:29Z</time></trkpt><trkpt lat="14.423392798682622" lon="121.03001007517067"><ele>32.0</ele><time>2026-05-02T06:51:30Z</time></trkpt><trkpt lat="14.423406490891269" lon="121.03009228665188"><ele>32.0</ele><time>2026-05-02T06:51:37.017Z</time></trkpt><trkpt lat="14.42335528631426" lon="121.03017217031359"><ele>32.0</ele><time>2026-05-02T06:51:39.017Z</time></trkpt><trkpt lat="14.42328593200137" lon="121.03024817825647"><ele>31.999999999999996</ele><time>2026-05-02T06:51:40.016Z</time></trkpt><trkpt lat="14.42332550682139" lon="121.03017283437369"><ele>32.0</ele><time>2026-05-02T06:51:46Z</time></trkpt><trkpt lat="14.423384366122535" lon="121.03013915340865"><ele>32.0</ele><time>2026-05-02T06:51:47Z</time></trkpt><trkpt lat="14.423467940019606" lon="121.03005743957627"><ele>32.0</ele><time>2026-05-02T06:51:48Z</time></trkpt><trkpt lat="14.423560873407725" lon="121.02997940852725"><ele>32.0</ele><time>2026-05-02T06:51:50Z</time></trkpt><trkpt lat="14.423672478400455" lon="121.02988752582947"><ele>32.0</ele><time>2026-05-02T06:53:20.999Z</time></trkpt><trkpt lat="14.423706293361082" lon="121.02983246191"><ele>32.0</ele><time>2026-05-02T06:53:25Z</time></trkpt><trkpt lat="14.423637541473015" lon="121.02981479029731"><ele>31.999999999999996</ele><time>2026-05-02T06:53:31Z</time></trkpt><trkpt lat="14.42360266386437" lon="121.02987493551714"><ele>32.0</ele><time>2026-05-02T06:53:38Z</time></trkpt><trkpt lat="14.42357977563349" lon="121.02993625095098"><ele>32.0</ele><time>2026-05-02T06:53:53Z</time></trkpt><trkpt lat="14.42346710243484" lon="121.02998272882519"><ele>32.0</ele><time>2026-05-02T06:55:17Z</time></trkpt><trkpt lat="14.423510185490578" lon="121.03004616428014"><ele>31.999999999999996</ele><time>2026-05-02T06:55:25Z</time></trkpt><trkpt lat="14.423560176832947" lon="121.03008985820716"><ele>32.0</ele><time>2026-05-02T06:55:32Z</time></trkpt><trkpt lat="14.42365152207868" lon="121.0301619682319"><ele>32.0</ele><time>2026-05-02T06:55:41Z</time></trkpt><trkpt lat="14.423656519352065" lon="121.03023630612707"><ele>32.0</ele><time>2026-05-02T06:56:01Z</time></trkpt><trkpt lat="14.423721731846308" lon="121.030267228686"><ele>32.0</ele><time>2026-05-02T06:56:07Z</time></trkpt><trkpt lat="14.423769689674494" lon="121.03021217686245"><ele>32.0</ele><time>2026-05-02T06:56:14Z</time></trkpt><trkpt lat="14.424151560531392" lon="121.02961480110508"><ele>32.5</ele><time>2026-05-02T07:04:55.607Z</time></trkpt><trkpt lat="14.424158268756916" lon="121.02949809225026"><ele>33.0</ele><time>2026-05-02T07:06:23.389Z</time></trkpt><trkpt lat="14.424119921221626" lon="121.02959579433224"><ele>33.5</ele><time>2026-05-02T07:15:32.869Z</time></trkpt><trkpt lat="14.424006936461735" lon="121.02965907709303"><ele>34.0</ele><time>2026-05-02T07:15:38.413Z</time></trkpt><trkpt lat="14.423096088220712" lon="121.0293806133821"><ele>33.99999999999999</ele><time>2026-05-02T07:48:16.011Z</time></trkpt><trkpt lat="14.42304387249751" lon="121.02933463238797"><ele>34.0</ele><time>2026-05-02T07:48:45.001Z</time></trkpt><trkpt lat="14.422986315319594" lon="121.02929290799499"><ele>34.0</ele><time>2026-05-02T07:48:52.001Z</time></trkpt><trkpt lat="14.422929249640724" lon="121.02926512355849"><ele>34.0</ele><time>2026-05-02T07:48:59.001Z</time></trkpt><trkpt lat="14.422858010166111" lon="121.02925882795937"><ele>34.0</ele><time>2026-05-02T07:51:07Z</time></trkpt><trkpt lat="14.422838697892956" lon="121.02919564249459"><ele>33.99999999999999</ele><time>2026-05-02T07:51:27.001Z</time></trkpt><trkpt lat="14.422763789249007" lon="121.02919648638834"><ele>34.0</ele><time>2026-05-02T07:51:40.001Z</time></trkpt><trkpt lat="14.422693388620841" lon="121.02918292360891"><ele>33.285714285714285</ele><time>2026-05-02T07:51:48.001Z</time></trkpt><trkpt lat="14.422632715482292" lon="121.02915511444903"><ele>32.57142857142857</ele><time>2026-05-02T07:51:59.001Z</time></trkpt><trkpt lat="14.4225732708137" lon="121.0292077449818"><ele>31.857142857142858</ele><time>2026-05-02T07:52:09.001Z</time></trkpt><trkpt lat="14.422543194764552" lon="121.02926857157988"><ele>31.142857142857142</ele><time>2026-05-02T07:52:17.001Z</time></trkpt><trkpt lat="14.422492563203921" lon="121.02932411522384"><ele>30.42857142857143</ele><time>2026-05-02T07:52:23.001Z</time></trkpt><trkpt lat="14.422457835637156" lon="121.02939083307379"><ele>29.71428571428572</ele><time>2026-05-02T07:52:31.001Z</time></trkpt><trkpt lat="14.422435384636564" lon="121.02946536001052"><ele>29.000000000000004</ele><time>2026-05-02T07:52:37Z</time></trkpt><trkpt lat="14.42240544270513" lon="121.02952631810545"><ele>29.0</ele><time>2026-05-02T07:52:45Z</time></trkpt><trkpt lat="14.422410030856215" lon="121.02959344595499"><ele>29.0</ele><time>2026-05-02T07:53:06Z</time></trkpt><trkpt lat="14.422423457051567" lon="121.0296676490686"><ele>29.0</ele><time>2026-05-02T07:53:12Z</time></trkpt><trkpt lat="14.422407815364455" lon="121.02973087441487"><ele>29.0</ele><time>2026-05-02T07:53:17Z</time></trkpt><trkpt lat="14.423096869172483" lon="121.03008264964447"><ele>33.0</ele><time>2026-05-02T08:11:35.004Z</time></trkpt><trkpt lat="14.42409216227506" lon="121.0306226654856"><ele>33.0</ele><time>2026-05-02T08:16:10.001Z</time></trkpt><trkpt lat="14.424057243136602" lon="121.03071126333906"><ele>33.0</ele><time>2026-05-02T08:16:11.001Z</time></trkpt><trkpt lat="14.423860685742415" lon="121.03076556678263"><ele>33.0</ele><time>2026-05-02T08:16:20.001Z</time></trkpt><trkpt lat="14.42383962928603" lon="121.0306828534285"><ele>33.0</ele><time>2026-05-02T08:16:25.001Z</time></trkpt><trkpt lat="14.423844926755887" lon="121.03059413798007"><ele>33.0</ele><time>2026-05-02T08:16:28.001Z</time></trkpt><trkpt lat="14.423861001496677" lon="121.03050689166453"><ele>33.0</ele><time>2026-05-02T08:16:30.001Z</time></trkpt><trkpt lat="14.423884598372798" lon="121.0304337804979"><ele>33.0</ele><time>2026-05-02T08:16:33.001Z</time></trkpt><trkpt lat="14.423891549913856" lon="121.0303653687619"><ele>33.0</ele><time>2026-05-02T08:16:37.001Z</time></trkpt><trkpt lat="14.42390352874369" lon="121.03028615813724"><ele>33.0</ele><time>2026-05-02T08:16:41.001Z</time></trkpt><trkpt lat="14.423918028737624" lon="121.03021496850766"><ele>33.0</ele><time>2026-05-02T08:16:45.001Z</time></trkpt><trkpt lat="14.42384559298926" lon="121.03017393730754"><ele>29.0</ele><time>2026-05-02T08:16:51.001Z</time></trkpt><trkpt lat="14.422930822767634" lon="121.02987650378395"><ele>29.0</ele><time>2026-05-02T09:12:36.006Z</time></trkpt><trkpt lat="14.422928106944694" lon="121.02994505860387"><ele>29.0</ele><time>2026-05-02T09:12:41.006Z</time></trkpt><trkpt lat="14.423130295364393" lon="121.03019333276515"><ele>29.0</ele><time>2026-05-02T09:12:43.988Z</time></trkpt><trkpt lat="14.423078692299322" lon="121.03001631902168"><ele>29.0</ele><time>2026-05-02T09:12:46.99Z</time></trkpt><trkpt lat="14.42292855931776" lon="121.03034178288634"><ele>29.0</ele><time>2026-05-02T09:14:01.001Z</time></trkpt><trkpt lat="14.42288207219032" lon="121.03040001973754"><ele>29.0</ele><time>2026-05-02T09:14:06.001Z</time></trkpt><trkpt lat="14.422860797623319" lon="121.03047913443794"><ele>29.000000000000004</ele><time>2026-05-02T09:14:13.001Z</time></trkpt><trkpt lat="14.422834658148568" lon="121.03054120341602"><ele>29.0</ele><time>2026-05-02T09:14:17.001Z</time></trkpt><trkpt lat="14.422793070892864" lon="121.03059559240117"><ele>29.000000000000004</ele><time>2026-05-02T09:14:29.001Z</time></trkpt><trkpt lat="14.42273269302498" lon="121.03062702186132"><ele>29.000000000000004</ele><time>2026-05-02T09:14:33.001Z</time></trkpt><trkpt lat="14.422665941958915" lon="121.03063415847032"><ele>29.0</ele><time>2026-05-02T09:14:38.001Z</time></trkpt><trkpt lat="14.42260253910384" lon="121.03060933601886"><ele>29.000000000000004</ele><time>2026-05-02T09:14:43.001Z</time></trkpt><trkpt lat="14.422547543472945" lon="121.03057177240854"><ele>29.000000000000004</ele><time>2026-05-02T09:14:49Z</time></trkpt><trkpt lat="14.422523786067432" lon="121.03051035970003"><ele>28.999999999999996</ele><time>2026-05-02T09:15:16Z</time></trkpt><trkpt lat="14.422480973273329" lon="121.03046083465428"><ele>29.0</ele><time>2026-05-02T09:15:22Z</time></trkpt><trkpt lat="14.422470667341715" lon="121.0303929374472"><ele>29.0</ele><time>2026-05-02T09:15:38Z</time></trkpt><trkpt lat="14.422480216195863" lon="121.03030783261245"><ele>29.0</ele><time>2026-05-02T09:15:55Z</time></trkpt><trkpt lat="14.42254904550048" lon="121.03030545872801"><ele>28.999999999999996</ele><time>2026-05-02T09:16:24Z</time></trkpt><trkpt lat="14.422533303007501" lon="121.03039104121319"><ele>29.0</ele><time>2026-05-02T09:16:26Z</time></trkpt><trkpt lat="14.422572472165735" lon="121.03047113060047"><ele>29.000000000000004</ele><time>2026-05-02T09:17:02Z</time></trkpt><trkpt lat="14.422613859113964" lon="121.0305225364274"><ele>29.0</ele><time>2026-05-02T09:17:05Z</time></trkpt><trkpt lat="14.422660014427336" lon="121.03058317748697"><ele>29.000000000000004</ele><time>2026-05-02T09:17:09Z</time></trkpt><trkpt lat="14.422709022210274" lon="121.03062838808567"><ele>29.000000000000004</ele><time>2026-05-02T09:17:14Z</time></trkpt><trkpt lat="14.422781397807649" lon="121.03062607687617"><ele>29.0</ele><time>2026-05-02T09:17:25Z</time></trkpt><trkpt lat="14.422845480683891" lon="121.03061350833791"><ele>29.000000000000004</ele><time>2026-05-02T09:17:34Z</time></trkpt><trkpt lat="14.422899901599516" lon="121.03057873957455"><ele>29.000000000000004</ele><time>2026-05-02T09:17:43Z</time></trkpt><trkpt lat="14.423085754550604" lon="121.03047089899027"><ele>34.0</ele><time>2026-05-02T09:18:28.195Z</time></trkpt><trkpt lat="14.423060031265832" lon="121.02984760491469"><ele>34.0</ele><time>2026-05-02T09:18:43.001Z</time></trkpt><trkpt lat="14.423056749585516" lon="121.02992618551141"><ele>34.0</ele><time>2026-05-02T09:18:45.001Z</time></trkpt><trkpt lat="14.42308865657935" lon="121.03002596396374"><ele>34.0</ele><time>2026-05-02T09:18:50.001Z</time></trkpt><trkpt lat="14.423152556379355" lon="121.03009412551768"><ele>34.0</ele><time>2026-05-02T09:18:53.001Z</time></trkpt><trkpt lat="14.423168805642971" lon="121.02996928574778"><ele>34.0</ele><time>2026-05-02T09:19:00Z</time></trkpt><trkpt lat="14.423191794568737" lon="121.02990482112642"><ele>34.0</ele><time>2026-05-02T09:19:02Z</time></trkpt><trkpt lat="14.423265238021225" lon="121.02987062951729"><ele>34.0</ele><time>2026-05-02T09:19:07Z</time></trkpt><trkpt lat="14.423328564227969" lon="121.02985525916469"><ele>34.0</ele><time>2026-05-02T09:19:09Z</time></trkpt><trkpt lat="14.423391609502493" lon="121.02983207105659"><ele>34.0</ele><time>2026-05-02T09:19:12Z</time></trkpt><trkpt lat="14.423316098038551" lon="121.03013868567163"><ele>34.0</ele><time>2026-05-02T09:48:12.947Z</time></trkpt><trkpt lat="14.42331741080034" lon="121.03007218023446"><ele>34.0</ele><time>2026-05-02T10:33:53.347Z</time></trkpt><trkpt lat="14.423559824239598" lon="121.03011341544068"><ele>34.0</ele><time>2026-05-02T10:50:07.955Z</time></trkpt><trkpt lat="14.42352617604051" lon="121.02999157011486"><ele>34.0</ele><time>2026-05-02T10:50:22.982Z</time></trkpt><trkpt lat="14.423578177901028" lon="121.02992269031743"><ele>33.5</ele><time>2026-05-02T10:59:38.011Z</time></trkpt><trkpt lat="14.423592497307391" lon="121.02999377255546"><ele>33.0</ele><time>2026-05-02T10:59:50.008Z</time></trkpt><trkpt lat="14.42359413216238" lon="121.03006015211274"><ele>32.5</ele><time>2026-05-02T11:00:00.004Z</time></trkpt><trkpt lat="14.423578279896278" lon="121.03013606221181"><ele>32.0</ele><time>2026-05-02T11:00:09.002Z</time></trkpt><trkpt lat="14.423239403503345" lon="121.03007916002832"><ele>32.0</ele><time>2026-05-02T11:02:26.001Z</time></trkpt><trkpt lat="14.42322517885857" lon="121.03000939857415"><ele>32.0</ele><time>2026-05-02T11:02:28.001Z</time></trkpt><trkpt lat="14.423161496877581" lon="121.03001223268183"><ele>32.0</ele><time>2026-05-02T11:02:32Z</time></trkpt><trkpt lat="14.423025218210649" lon="121.02991267543912"><ele>32.0</ele><time>2026-05-02T11:03:49.001Z</time></trkpt><trkpt lat="14.41401517032726" lon="121.03433028695132"><ele>30.6</ele><time>2026-05-02T13:11:21Z</time></trkpt><trkpt lat="14.413901451725645" lon="121.034375673963"><ele>29.200000000000003</ele><time>2026-05-02T13:11:22Z</time></trkpt><trkpt lat="14.41380034805629" lon="121.03442194567539"><ele>27.8</ele><time>2026-05-02T13:11:23Z</time></trkpt><trkpt lat="14.413708654068268" lon="121.03446688763701"><ele>26.4</ele><time>2026-05-02T13:11:24Z</time></trkpt><trkpt lat="14.41362288171135" lon="121.03451159344148"><ele>25.0</ele><time>2026-05-02T13:11:25Z</time></trkpt><trkpt lat="14.41354316075473" lon="121.0345543427655"><ele>24.4</ele><time>2026-05-02T13:11:26Z</time></trkpt><trkpt lat="14.413469998740775" lon="121.03459790755923"><ele>23.8</ele><time>2026-05-02T13:11:27Z</time></trkpt><trkpt lat="14.413402510749174" lon="121.03464299128832"><ele>23.200000000000003</ele><time>2026-05-02T13:11:28Z</time></trkpt><trkpt lat="14.413341008654244" lon="121.03468417323293"><ele>22.6</ele><time>2026-05-02T13:11:29Z</time></trkpt><trkpt lat="14.41329001969647" lon="121.03472631103287"><ele>22.0</ele><time>2026-05-02T13:11:30Z</time></trkpt><trkpt lat="14.413159038304194" lon="121.03483570481431"><ele>22.0</ele><time>2026-05-02T13:11:34Z</time></trkpt><trkpt lat="14.413097181380596" lon="121.03485936495667"><ele>22.0</ele><time>2026-05-02T13:11:38Z</time></trkpt><trkpt lat="14.413060638848307" lon="121.03492612650213"><ele>22.0</ele><time>2026-05-02T13:12:24Z</time></trkpt><trkpt lat="14.412991343533657" lon="121.03516046410158"><ele>22.0</ele><time>2026-05-02T13:13:05Z</time></trkpt><trkpt lat="14.413039702385337" lon="121.03525977367468"><ele>21.400000000000002</ele><time>2026-05-02T13:13:07Z</time></trkpt><trkpt lat="14.413111075530864" lon="121.03535981814095"><ele>20.8</ele><time>2026-05-02T13:13:09Z</time></trkpt><trkpt lat="14.413152912606105" lon="121.03541895483481"><ele>20.2</ele><time>2026-05-02T13:13:10Z</time></trkpt><trkpt lat="14.413222674859" lon="121.0355327892855"><ele>19.6</ele><time>2026-05-02T13:13:12Z</time></trkpt><trkpt lat="14.4132692446706" lon="121.03559064890304"><ele>19.0</ele><time>2026-05-02T13:13:13Z</time></trkpt><trkpt lat="14.413315425665942" lon="121.03565195423822"><ele>19.0</ele><time>2026-05-02T13:13:14Z</time></trkpt><trkpt lat="14.413363831764974" lon="121.03571697223634"><ele>19.0</ele><time>2026-05-02T13:13:15Z</time></trkpt><trkpt lat="14.413409566989392" lon="121.03578620735375"><ele>19.0</ele><time>2026-05-02T13:13:16Z</time></trkpt><trkpt lat="14.413454820081395" lon="121.03585620486383"><ele>19.0</ele><time>2026-05-02T13:13:17Z</time></trkpt><trkpt lat="14.413501330095345" lon="121.03592808021854"><ele>19.0</ele><time>2026-05-02T13:13:18Z</time></trkpt><trkpt lat="14.413548184965714" lon="121.03600287246695"><ele>19.0</ele><time>2026-05-02T13:13:19Z</time></trkpt><trkpt lat="14.413597810237686" lon="121.03606166455286"><ele>19.0</ele><time>2026-05-02T13:13:20Z</time></trkpt><trkpt lat="14.413649286686208" lon="121.03612801736095"><ele>19.0</ele><time>2026-05-02T13:13:21Z</time></trkpt><trkpt lat="14.41369612227617" lon="121.03619302216207"><ele>19.0</ele><time>2026-05-02T13:13:22Z</time></trkpt><trkpt lat="14.413736748445888" lon="121.03624897831827"><ele>19.0</ele><time>2026-05-02T13:13:23Z</time></trkpt><trkpt lat="14.413818359531167" lon="121.03636434405111"><ele>19.0</ele><time>2026-05-02T13:13:27Z</time></trkpt><trkpt lat="14.413867271825758" lon="121.03643149947438"><ele>19.0</ele><time>2026-05-02T13:13:29Z</time></trkpt><trkpt lat="14.4139261899286" lon="121.03651122784501"><ele>19.0</ele><time>2026-05-02T13:13:31Z</time></trkpt><trkpt lat="14.413995120052382" lon="121.03660488798057"><ele>19.0</ele><time>2026-05-02T13:13:33Z</time></trkpt><trkpt lat="14.414067425643191" lon="121.03670742680673"><ele>19.0</ele><time>2026-05-02T13:13:35Z</time></trkpt><trkpt lat="14.414107350862642" lon="121.03676608069705"><ele>19.0</ele><time>2026-05-02T13:13:36Z</time></trkpt><trkpt lat="14.414146445944263" lon="121.03682481838996"><ele>19.0</ele><time>2026-05-02T13:13:37Z</time></trkpt><trkpt lat="14.414189186781782" lon="121.0368905731232"><ele>18.833333333333332</ele><time>2026-05-02T13:13:38Z</time></trkpt><trkpt lat="14.414237472169765" lon="121.03696290739673"><ele>18.666666666666664</ele><time>2026-05-02T13:13:39Z</time></trkpt><trkpt lat="14.414282427168466" lon="121.03704506605915"><ele>18.5</ele><time>2026-05-02T13:13:40Z</time></trkpt><trkpt lat="14.414332337856408" lon="121.03712810447725"><ele>18.333333333333332</ele><time>2026-05-02T13:13:41Z</time></trkpt><trkpt lat="14.414371266810095" lon="121.03719114881211"><ele>18.166666666666668</ele><time>2026-05-02T13:13:42Z</time></trkpt><trkpt lat="14.414406522586946" lon="121.03724582261523"><ele>18.0</ele><time>2026-05-02T13:13:43Z</time></trkpt><trkpt lat="14.41445607077964" lon="121.03732305882872"><ele>17.25</ele><time>2026-05-02T13:13:45Z</time></trkpt><trkpt lat="14.414552147558226" lon="121.03747536944059"><ele>16.5</ele><time>2026-05-02T13:13:50Z</time></trkpt><trkpt lat="14.41461346188119" lon="121.03756590835803"><ele>15.75</ele><time>2026-05-02T13:13:52Z</time></trkpt><trkpt lat="14.41468515942174" lon="121.03766957151761"><ele>15.0</ele><time>2026-05-02T13:13:54Z</time></trkpt><trkpt lat="14.414723359564794" lon="121.03772722058767"><ele>15.0</ele><time>2026-05-02T13:13:55Z</time></trkpt><trkpt lat="14.414759882482056" lon="121.0377875774164"><ele>15.0</ele><time>2026-05-02T13:13:56Z</time></trkpt><trkpt lat="14.414795053268739" lon="121.03784845515523"><ele>15.0</ele><time>2026-05-02T13:13:57Z</time></trkpt><trkpt lat="14.414869667347126" lon="121.03793900705156"><ele>15.0</ele><time>2026-05-02T13:13:59Z</time></trkpt><trkpt lat="14.414906804172412" lon="121.03799340461228"><ele>15.0</ele><time>2026-05-02T13:14:00Z</time></trkpt><trkpt lat="14.41494171710619" lon="121.03804769722312"><ele>15.0</ele><time>2026-05-02T13:14:01Z</time></trkpt><trkpt lat="14.414979582987861" lon="121.03814006964876"><ele>15.0</ele><time>2026-05-02T13:14:03Z</time></trkpt><trkpt lat="14.414993516444198" lon="121.03824803315325"><ele>15.0</ele><time>2026-05-02T13:14:05Z</time></trkpt><trkpt lat="14.414967697691303" lon="121.03834755006856"><ele>15.0</ele><time>2026-05-02T13:14:07Z</time></trkpt><trkpt lat="14.414869761401771" lon="121.03851032443269"><ele>15.0</ele><time>2026-05-02T13:14:10Z</time></trkpt><trkpt lat="14.414768312950265" lon="121.0385740998308"><ele>15.714285714285715</ele><time>2026-05-02T13:14:12Z</time></trkpt><trkpt lat="14.414711502233796" lon="121.03860780036943"><ele>16.428571428571427</ele><time>2026-05-02T13:14:13Z</time></trkpt><trkpt lat="14.414655018479216" lon="121.03863987245064"><ele>17.142857142857142</ele><time>2026-05-02T13:14:14Z</time></trkpt><trkpt lat="14.414593325384985" lon="121.03866919087821"><ele>17.857142857142858</ele><time>2026-05-02T13:14:15Z</time></trkpt><trkpt lat="14.414531960513232" lon="121.03869139386929"><ele>18.571428571428573</ele><time>2026-05-02T13:14:16Z</time></trkpt><trkpt lat="14.41447126639989" lon="121.03872188279861"><ele>19.285714285714285</ele><time>2026-05-02T13:14:17Z</time></trkpt><trkpt lat="14.414405136782923" lon="121.03874682931954"><ele>20.0</ele><time>2026-05-02T13:14:18Z</time></trkpt><trkpt lat="14.414341188701947" lon="121.0387677706773"><ele>20.5</ele><time>2026-05-02T13:14:19Z</time></trkpt><trkpt lat="14.414279075917582" lon="121.03879235026287"><ele>21.0</ele><time>2026-05-02T13:14:20Z</time></trkpt><trkpt lat="14.414157945112873" lon="121.03881783792332"><ele>21.5</ele><time>2026-05-02T13:14:22Z</time></trkpt><trkpt lat="14.41409474292308" lon="121.03882326469522"><ele>22.0</ele><time>2026-05-02T13:14:23Z</time></trkpt><trkpt lat="14.414027877548367" lon="121.03882610076215"><ele>22.5</ele><time>2026-05-02T13:14:24Z</time></trkpt><trkpt lat="14.413959650360546" lon="121.03882855358526"><ele>23.0</ele><time>2026-05-02T13:14:25Z</time></trkpt><trkpt lat="14.413888651370689" lon="121.03882768442438"><ele>22.0</ele><time>2026-05-02T13:14:26Z</time></trkpt><trkpt lat="14.413817252805027" lon="121.03882115213895"><ele>21.0</ele><time>2026-05-02T13:14:27Z</time></trkpt><trkpt lat="14.413744667828562" lon="121.03884496855736"><ele>20.0</ele><time>2026-05-02T13:14:28Z</time></trkpt><trkpt lat="14.413589691481409" lon="121.03881231433309"><ele>19.0</ele><time>2026-05-02T13:14:30Z</time></trkpt><trkpt lat="14.413508100247302" lon="121.03881185518246"><ele>18.0</ele><time>2026-05-02T13:14:31Z</time></trkpt><trkpt lat="14.41342285846489" lon="121.03881026379962"><ele>18.0</ele><time>2026-05-02T13:14:32Z</time></trkpt><trkpt lat="14.41333421225121" lon="121.03881166374846"><ele>18.0</ele><time>2026-05-02T13:14:33Z</time></trkpt><trkpt lat="14.413241891183814" lon="121.03881025563312"><ele>18.0</ele><time>2026-05-02T13:14:34Z</time></trkpt><trkpt lat="14.41314582445237" lon="121.03881071009741"><ele>18.0</ele><time>2026-05-02T13:14:35Z</time></trkpt><trkpt lat="14.413049407947229" lon="121.03881001872607"><ele>18.0</ele><time>2026-05-02T13:14:36Z</time></trkpt><trkpt lat="14.412951062253244" lon="121.0388065877283"><ele>19.0</ele><time>2026-05-02T13:14:37Z</time></trkpt><trkpt lat="14.412851993928369" lon="121.03880047280352"><ele>20.0</ele><time>2026-05-02T13:14:38Z</time></trkpt><trkpt lat="14.412756142767494" lon="121.03878795738777"><ele>21.0</ele><time>2026-05-02T13:14:39Z</time></trkpt><trkpt lat="14.412662394560433" lon="121.03877389927246"><ele>22.0</ele><time>2026-05-02T13:14:40Z</time></trkpt><trkpt lat="14.412572575282324" lon="121.03876220748893"><ele>23.0</ele><time>2026-05-02T13:14:41Z</time></trkpt><trkpt lat="14.41248899246243" lon="121.03872872976865"><ele>23.0</ele><time>2026-05-02T13:14:42Z</time></trkpt><trkpt lat="14.41240264118292" lon="121.03875806573355"><ele>23.0</ele><time>2026-05-02T13:14:43Z</time></trkpt><trkpt lat="14.412325196475265" lon="121.0387781721676"><ele>23.0</ele><time>2026-05-02T13:14:44Z</time></trkpt><trkpt lat="14.412257982929404" lon="121.03881443430693"><ele>23.0</ele><time>2026-05-02T13:14:45Z</time></trkpt><trkpt lat="14.412201438563566" lon="121.0388686848637"><ele>23.0</ele><time>2026-05-02T13:14:46Z</time></trkpt><trkpt lat="14.412158075974457" lon="121.03893868221898"><ele>23.0</ele><time>2026-05-02T13:14:47Z</time></trkpt><trkpt lat="14.412134603030022" lon="121.03902047007918"><ele>23.0</ele><time>2026-05-02T13:14:48Z</time></trkpt><trkpt lat="14.412128132690015" lon="121.03910885871272"><ele>23.0</ele><time>2026-05-02T13:14:49Z</time></trkpt><trkpt lat="14.412153595549853" lon="121.03930669159448"><ele>23.0</ele><time>2026-05-02T13:14:51Z</time></trkpt><trkpt lat="14.412161078210875" lon="121.03940689616412"><ele>23.0</ele><time>2026-05-02T13:14:52Z</time></trkpt><trkpt lat="14.412163263006876" lon="121.03948802031236"><ele>23.4</ele><time>2026-05-02T13:14:53Z</time></trkpt><trkpt lat="14.412158717273956" lon="121.03958799708607"><ele>23.799999999999997</ele><time>2026-05-02T13:14:54Z</time></trkpt><trkpt lat="14.412153984355475" lon="121.03969971805925"><ele>24.2</ele><time>2026-05-02T13:14:55Z</time></trkpt><trkpt lat="14.41214500204342" lon="121.03980970900562"><ele>24.6</ele><time>2026-05-02T13:14:56Z</time></trkpt><trkpt lat="14.412134585557629" lon="121.03991581275143"><ele>25.0</ele><time>2026-05-02T13:14:57Z</time></trkpt><trkpt lat="14.41212652195695" lon="121.04001050216134"><ele>24.333333333333336</ele><time>2026-05-02T13:14:58Z</time></trkpt><trkpt lat="14.412113170129375" lon="121.04010269811832"><ele>23.666666666666668</ele><time>2026-05-02T13:14:59Z</time></trkpt><trkpt lat="14.412099464128621" lon="121.04019204181088"><ele>23.0</ele><time>2026-05-02T13:15:00Z</time></trkpt><trkpt lat="14.412086866583389" lon="121.04026954676394"><ele>22.333333333333336</ele><time>2026-05-02T13:15:01Z</time></trkpt><trkpt lat="14.412072806037436" lon="121.04033930226377"><ele>21.666666666666668</ele><time>2026-05-02T13:15:02Z</time></trkpt><trkpt lat="14.412058308939256" lon="121.04040584996174"><ele>21.0</ele><time>2026-05-02T13:15:03Z</time></trkpt><trkpt lat="14.41204117018152" lon="121.04047047196083"><ele>21.0</ele><time>2026-05-02T13:15:04Z</time></trkpt><trkpt lat="14.412015400188379" lon="121.04053400923866"><ele>21.0</ele><time>2026-05-02T13:15:05Z</time></trkpt><trkpt lat="14.411988797154047" lon="121.04059703060256"><ele>21.0</ele><time>2026-05-02T13:15:06Z</time></trkpt><trkpt lat="14.411967793055755" lon="121.04066048854382"><ele>21.0</ele><time>2026-05-02T13:15:07Z</time></trkpt><trkpt lat="14.41193927176645" lon="121.0407577183252"><ele>21.0</ele><time>2026-05-02T13:15:09Z</time></trkpt><trkpt lat="14.411920100080351" lon="121.0408360477928"><ele>21.0</ele><time>2026-05-02T13:15:12Z</time></trkpt><trkpt lat="14.41186399094868" lon="121.0410277386912"><ele>20.6</ele><time>2026-05-02T13:15:16Z</time></trkpt><trkpt lat="14.411835335664575" lon="121.04114958192565"><ele>20.200000000000003</ele><time>2026-05-02T13:15:18Z</time></trkpt><trkpt lat="14.411803807532403" lon="121.04128596469418"><ele>19.799999999999997</ele><time>2026-05-02T13:15:20Z</time></trkpt><trkpt lat="14.411785229519388" lon="121.04136031952828"><ele>19.4</ele><time>2026-05-02T13:15:21Z</time></trkpt><trkpt lat="14.411754740823046" lon="121.04145464526653"><ele>19.0</ele><time>2026-05-02T13:15:22Z</time></trkpt><trkpt lat="14.411720284877049" lon="121.04155939936142"><ele>18.8</ele><time>2026-05-02T13:15:23Z</time></trkpt><trkpt lat="14.411687136546245" lon="121.04164628558513"><ele>18.599999999999998</ele><time>2026-05-02T13:15:24Z</time></trkpt><trkpt lat="14.411652080103558" lon="121.04173734451763"><ele>18.4</ele><time>2026-05-02T13:15:25Z</time></trkpt><trkpt lat="14.41161252166901" lon="121.04183123098122"><ele>18.2</ele><time>2026-05-02T13:15:26Z</time></trkpt><trkpt lat="14.411567024244981" lon="121.04193033016394"><ele>18.0</ele><time>2026-05-02T13:15:27Z</time></trkpt><trkpt lat="14.411517084191034" lon="121.0420236538085"><ele>18.0</ele><time>2026-05-02T13:15:28Z</time></trkpt><trkpt lat="14.411465426137006" lon="121.0421224296364"><ele>18.0</ele><time>2026-05-02T13:15:29Z</time></trkpt><trkpt lat="14.41140950094545" lon="121.04221154127076"><ele>18.0</ele><time>2026-05-02T13:15:30Z</time></trkpt><trkpt lat="14.411354954482286" lon="121.04230384996139"><ele>18.0</ele><time>2026-05-02T13:15:31Z</time></trkpt><trkpt lat="14.411304056597212" lon="121.04239405990023"><ele>18.0</ele><time>2026-05-02T13:15:32Z</time></trkpt><trkpt lat="14.41125141544427" lon="121.04248680119744"><ele>17.5</ele><time>2026-05-02T13:15:33Z</time></trkpt><trkpt lat="14.411143241246469" lon="121.04267854276861"><ele>17.0</ele><time>2026-05-02T13:15:35Z</time></trkpt><trkpt lat="14.411088911738796" lon="121.04277581466762"><ele>16.5</ele><time>2026-05-02T13:15:36Z</time></trkpt><trkpt lat="14.411035388090538" lon="121.0428755711322"><ele>16.0</ele><time>2026-05-02T13:15:37Z</time></trkpt><trkpt lat="14.410982124755426" lon="121.04297649053414"><ele>16.0</ele><time>2026-05-02T13:15:38Z</time></trkpt><trkpt lat="14.410929642180283" lon="121.04307609417627"><ele>16.0</ele><time>2026-05-02T13:15:39Z</time></trkpt><trkpt lat="14.410877922890352" lon="121.0431714658175"><ele>16.0</ele><time>2026-05-02T13:15:40Z</time></trkpt><trkpt lat="14.410826636746167" lon="121.04326675277932"><ele>16.0</ele><time>2026-05-02T13:15:41Z</time></trkpt><trkpt lat="14.410775971692846" lon="121.04335653832729"><ele>16.0</ele><time>2026-05-02T13:15:42Z</time></trkpt><trkpt lat="14.410723000052887" lon="121.04344694061952"><ele>15.8</ele><time>2026-05-02T13:15:43Z</time></trkpt><trkpt lat="14.410673421758736" lon="121.04353120762042"><ele>15.600000000000001</ele><time>2026-05-02T13:15:44Z</time></trkpt><trkpt lat="14.41062099254972" lon="121.04361236598209"><ele>15.4</ele><time>2026-05-02T13:15:45Z</time></trkpt><trkpt lat="14.410569668559946" lon="121.04367982315411"><ele>15.2</ele><time>2026-05-02T13:15:46Z</time></trkpt><trkpt lat="14.410509105763179" lon="121.04373399192949"><ele>15.0</ele><time>2026-05-02T13:15:47Z</time></trkpt><trkpt lat="14.410377586687758" lon="121.04374627081752"><ele>15.0</ele><time>2026-05-02T13:15:49Z</time></trkpt><trkpt lat="14.41026519485687" lon="121.0437237833385"><ele>15.0</ele><time>2026-05-02T13:15:51Z</time></trkpt><trkpt lat="14.410200984550993" lon="121.04369816862125"><ele>15.0</ele><time>2026-05-02T13:15:52Z</time></trkpt><trkpt lat="14.410096983241301" lon="121.04361968191965"><ele>15.0</ele><time>2026-05-02T13:15:54Z</time></trkpt><trkpt lat="14.410020610622492" lon="121.04349756659894"><ele>15.0</ele><time>2026-05-02T13:15:56Z</time></trkpt><trkpt lat="14.41000479792641" lon="121.04341655936541"><ele>15.0</ele><time>2026-05-02T13:15:57Z</time></trkpt><trkpt lat="14.409998109216449" lon="121.04334222201318"><ele>15.0</ele><time>2026-05-02T13:15:58Z</time></trkpt><trkpt lat="14.41002691646341" lon="121.04326782648695"><ele>15.0</ele><time>2026-05-02T13:15:59Z</time></trkpt><trkpt lat="14.41006908773123" lon="121.04319911954383"><ele>15.0</ele><time>2026-05-02T13:16:00Z</time></trkpt><trkpt lat="14.410120512445568" lon="121.04313429937882"><ele>15.0</ele><time>2026-05-02T13:16:01Z</time></trkpt><trkpt lat="14.410186788428064" lon="121.04308909086426"><ele>14.833333333333334</ele><time>2026-05-02T13:16:02Z</time></trkpt><trkpt lat="14.410263175113553" lon="121.04305598338412"><ele>14.666666666666668</ele><time>2026-05-02T13:16:03Z</time></trkpt><trkpt lat="14.41034067661551" lon="121.04303808852116"><ele>14.5</ele><time>2026-05-02T13:16:04Z</time></trkpt><trkpt lat="14.410417178492798" lon="121.04304118444244"><ele>14.333333333333334</ele><time>2026-05-02T13:16:05Z</time></trkpt><trkpt lat="14.410497834641461" lon="121.04304944857185"><ele>14.166666666666668</ele><time>2026-05-02T13:16:06Z</time></trkpt><trkpt lat="14.41057545174833" lon="121.04306497014613"><ele>14.0</ele><time>2026-05-02T13:16:07Z</time></trkpt><trkpt lat="14.410656824844919" lon="121.04309597515054"><ele>14.399999999999999</ele><time>2026-05-02T13:16:08Z</time></trkpt><trkpt lat="14.410743299365292" lon="121.04313693428816"><ele>14.799999999999999</ele><time>2026-05-02T13:16:09Z</time></trkpt><trkpt lat="14.410828647719084" lon="121.04318599346547"><ele>15.200000000000001</ele><time>2026-05-02T13:16:10Z</time></trkpt><trkpt lat="14.410919852975093" lon="121.04323275797094"><ele>15.600000000000001</ele><time>2026-05-02T13:16:11Z</time></trkpt><trkpt lat="14.41101542798614" lon="121.0432802613102"><ele>16.0</ele><time>2026-05-02T13:16:12Z</time></trkpt><trkpt lat="14.411109368705203" lon="121.04333011495405"><ele>16.0</ele><time>2026-05-02T13:16:13Z</time></trkpt><trkpt lat="14.411210562876056" lon="121.04338493168021"><ele>16.0</ele><time>2026-05-02T13:16:14Z</time></trkpt><trkpt lat="14.411324675547627" lon="121.04345427199915"><ele>16.0</ele><time>2026-05-02T13:16:15Z</time></trkpt><trkpt lat="14.411565127601401" lon="121.04359028595326"><ele>16.0</ele><time>2026-05-02T13:16:17Z</time></trkpt><trkpt lat="14.411690658537111" lon="121.04366478628829"><ele>16.0</ele><time>2026-05-02T13:16:18Z</time></trkpt><trkpt lat="14.411817980935215" lon="121.0437409735898"><ele>16.0</ele><time>2026-05-02T13:16:19Z</time></trkpt><trkpt lat="14.411946030278045" lon="121.04381866268739"><ele>16.0</ele><time>2026-05-02T13:16:20Z</time></trkpt><trkpt lat="14.412075132463912" lon="121.0438954825705"><ele>17.333333333333332</ele><time>2026-05-02T13:16:21Z</time></trkpt><trkpt lat="14.412205539974753" lon="121.04396728595842"><ele>18.666666666666668</ele><time>2026-05-02T13:16:22Z</time></trkpt><trkpt lat="14.412338524588323" lon="121.04404709088855"><ele>20.0</ele><time>2026-05-02T13:16:23Z</time></trkpt><trkpt lat="14.412475229252813" lon="121.0441293738486"><ele>20.0</ele><time>2026-05-02T13:16:24Z</time></trkpt><trkpt lat="14.412613106039087" lon="121.04421194184232"><ele>20.0</ele><time>2026-05-02T13:16:25Z</time></trkpt><trkpt lat="14.412751968392561" lon="121.04429458114264"><ele>20.0</ele><time>2026-05-02T13:16:26Z</time></trkpt><trkpt lat="14.412892324653297" lon="121.0443771869664"><ele>21.0</ele><time>2026-05-02T13:16:27Z</time></trkpt><trkpt lat="14.413034465377056" lon="121.0444604558798"><ele>22.0</ele><time>2026-05-02T13:16:28Z</time></trkpt><trkpt lat="14.413179332758919" lon="121.04454383338884"><ele>23.0</ele><time>2026-05-02T13:16:29Z</time></trkpt><trkpt lat="14.41332674620771" lon="121.04462556891204"><ele>23.0</ele><time>2026-05-02T13:16:30Z</time></trkpt><trkpt lat="14.413474641955682" lon="121.04470689665547"><ele>23.0</ele><time>2026-05-02T13:16:31Z</time></trkpt><trkpt lat="14.413624380518513" lon="121.04478494523791"><ele>23.0</ele><time>2026-05-02T13:16:32Z</time></trkpt><trkpt lat="14.413777474637955" lon="121.0448611121983"><ele>20.666666666666668</ele><time>2026-05-02T13:16:33Z</time></trkpt><trkpt lat="14.413931360855226" lon="121.04493712363667"><ele>18.333333333333332</ele><time>2026-05-02T13:16:34Z</time></trkpt><trkpt lat="14.414086657636322" lon="121.04500966637207"><ele>16.0</ele><time>2026-05-02T13:16:35Z</time></trkpt><trkpt lat="14.414253988034854" lon="121.0450711888514"><ele>15.0</ele><time>2026-05-02T13:16:36Z</time></trkpt><trkpt lat="14.414577621584556" lon="121.04518433351352"><ele>14.0</ele><time>2026-05-02T13:16:38Z</time></trkpt><trkpt lat="14.41474897081988" lon="121.04523572125822"><ele>14.0</ele><time>2026-05-02T13:16:39Z</time></trkpt><trkpt lat="14.414916025794794" lon="121.04527828685589"><ele>14.0</ele><time>2026-05-02T13:16:40Z</time></trkpt><trkpt lat="14.415085075325464" lon="121.04531937613936"><ele>14.0</ele><time>2026-05-02T13:16:41Z</time></trkpt><trkpt lat="14.415255359390457" lon="121.04535231346641"><ele>14.0</ele><time>2026-05-02T13:16:42Z</time></trkpt><trkpt lat="14.415420817096734" lon="121.0453818418453"><ele>14.0</ele><time>2026-05-02T13:16:43Z</time></trkpt><trkpt lat="14.415592960746396" lon="121.04540545217641"><ele>14.0</ele><time>2026-05-02T13:16:44Z</time></trkpt><trkpt lat="14.4157674711837" lon="121.04541816082714"><ele>13.666666666666668</ele><time>2026-05-02T13:16:45Z</time></trkpt><trkpt lat="14.415941320300764" lon="121.04542879339854"><ele>13.333333333333332</ele><time>2026-05-02T13:16:46Z</time></trkpt><trkpt lat="14.416116653606647" lon="121.04543840680654"><ele>13.0</ele><time>2026-05-02T13:16:47Z</time></trkpt><trkpt lat="14.41629493740629" lon="121.04544471996331"><ele>12.666666666666666</ele><time>2026-05-02T13:16:48Z</time></trkpt><trkpt lat="14.416477237547312" lon="121.04544817754221"><ele>12.333333333333332</ele><time>2026-05-02T13:16:49Z</time></trkpt><trkpt lat="14.416660623635273" lon="121.04545217133641"><ele>12.0</ele><time>2026-05-02T13:16:50Z</time></trkpt><trkpt lat="14.41684550234103" lon="121.04545566042714"><ele>12.0</ele><time>2026-05-02T13:16:51Z</time></trkpt><trkpt lat="14.417031520544986" lon="121.04545823653389"><ele>12.0</ele><time>2026-05-02T13:16:52Z</time></trkpt><trkpt lat="14.417216937470346" lon="121.04546026554905"><ele>12.0</ele><time>2026-05-02T13:16:53Z</time></trkpt><trkpt lat="14.417404709394198" lon="121.04546216281389"><ele>12.666666666666668</ele><time>2026-05-02T13:16:54Z</time></trkpt><trkpt lat="14.417603738301299" lon="121.0454605679969"><ele>13.333333333333334</ele><time>2026-05-02T13:16:55Z</time></trkpt><trkpt lat="14.417798142795231" lon="121.04545913486356"><ele>14.0</ele><time>2026-05-02T13:16:56Z</time></trkpt><trkpt lat="14.417995460041517" lon="121.04545557003391"><ele>15.0</ele><time>2026-05-02T13:16:57Z</time></trkpt><trkpt lat="14.418393416225458" lon="121.04545045763422"><ele>16.0</ele><time>2026-05-02T13:16:59Z</time></trkpt><trkpt lat="14.418594904160496" lon="121.04544874902004"><ele>16.0</ele><time>2026-05-02T13:17:00Z</time></trkpt><trkpt lat="14.418796324897555" lon="121.045447797828"><ele>16.0</ele><time>2026-05-02T13:17:01Z</time></trkpt><trkpt lat="14.419000354893077" lon="121.04544610611748"><ele>16.0</ele><time>2026-05-02T13:17:02Z</time></trkpt><trkpt lat="14.419205279522796" lon="121.04544626849109"><ele>16.333333333333332</ele><time>2026-05-02T13:17:03Z</time></trkpt><trkpt lat="14.4194126748001" lon="121.04544459794387"><ele>16.666666666666668</ele><time>2026-05-02T13:17:04Z</time></trkpt><trkpt lat="14.419619367406693" lon="121.04544342808398"><ele>17.0</ele><time>2026-05-02T13:17:05Z</time></trkpt><trkpt lat="14.41982932301083" lon="121.04544165346294"><ele>17.0</ele><time>2026-05-02T13:17:06Z</time></trkpt><trkpt lat="14.420039942364742" lon="121.04544055489717"><ele>17.0</ele><time>2026-05-02T13:17:07Z</time></trkpt><trkpt lat="14.420251471457249" lon="121.04544029199816"><ele>17.0</ele><time>2026-05-02T13:17:08Z</time></trkpt><trkpt lat="14.420462871182295" lon="121.0454389753655"><ele>16.333333333333336</ele><time>2026-05-02T13:17:09Z</time></trkpt><trkpt lat="14.4206708878039" lon="121.04543970204863"><ele>15.666666666666668</ele><time>2026-05-02T13:17:10Z</time></trkpt><trkpt lat="14.420877350509098" lon="121.04544067991668"><ele>15.0</ele><time>2026-05-02T13:17:11Z</time></trkpt><trkpt lat="14.421084024137496" lon="121.0454435112823"><ele>15.0</ele><time>2026-05-02T13:17:12Z</time></trkpt><trkpt lat="14.421289596478463" lon="121.04544717357214"><ele>15.0</ele><time>2026-05-02T13:17:13Z</time></trkpt><trkpt lat="14.421492668432448" lon="121.04545059961423"><ele>15.0</ele><time>2026-05-02T13:17:14Z</time></trkpt><trkpt lat="14.421692719914333" lon="121.04545167754306"><ele>13.333333333333334</ele><time>2026-05-02T13:17:15Z</time></trkpt><trkpt lat="14.421888532530268" lon="121.04545449618585"><ele>11.666666666666668</ele><time>2026-05-02T13:17:16Z</time></trkpt><trkpt lat="14.42208070367328" lon="121.0454587617456"><ele>10.0</ele><time>2026-05-02T13:17:17Z</time></trkpt><trkpt lat="14.42227173912145" lon="121.04546314371127"><ele>10.0</ele><time>2026-05-02T13:17:18Z</time></trkpt><trkpt lat="14.422647012718887" lon="121.04547311350765"><ele>10.0</ele><time>2026-05-02T13:17:20Z</time></trkpt><trkpt lat="14.422829681300085" lon="121.0454789158302"><ele>11.0</ele><time>2026-05-02T13:17:21Z</time></trkpt><trkpt lat="14.423010779673092" lon="121.04548233596203"><ele>12.0</ele><time>2026-05-02T13:17:22Z</time></trkpt><trkpt lat="14.423193590107653" lon="121.04548625331125"><ele>13.0</ele><time>2026-05-02T13:17:23Z</time></trkpt><trkpt lat="14.423378558991756" lon="121.04548252965714"><ele>13.0</ele><time>2026-05-02T13:17:24Z</time></trkpt><trkpt lat="14.423564731173627" lon="121.04548699311839"><ele>13.0</ele><time>2026-05-02T13:17:25Z</time></trkpt><trkpt lat="14.42375315463346" lon="121.04547111939989"><ele>13.0</ele><time>2026-05-02T13:17:26Z</time></trkpt><trkpt lat="14.423941304851144" lon="121.04546488432901"><ele>14.333333333333332</ele><time>2026-05-02T13:17:27.001Z</time></trkpt><trkpt lat="14.42413112950791" lon="121.04547324836916"><ele>15.666666666666668</ele><time>2026-05-02T13:17:28.001Z</time></trkpt><trkpt lat="14.424321976617279" lon="121.04547218565448"><ele>17.0</ele><time>2026-05-02T13:17:29.001Z</time></trkpt><trkpt lat="14.424513196978328" lon="121.04547116538396"><ele>15.666666666666668</ele><time>2026-05-02T13:17:30.001Z</time></trkpt><trkpt lat="14.424704121813097" lon="121.04547014668506"><ele>14.333333333333332</ele><time>2026-05-02T13:17:31.001Z</time></trkpt><trkpt lat="14.424895431259827" lon="121.04546912594942"><ele>13.0</ele><time>2026-05-02T13:17:32.001Z</time></trkpt><trkpt lat="14.425089350108092" lon="121.04546809128246"><ele>13.0</ele><time>2026-05-02T13:17:33Z</time></trkpt><trkpt lat="14.425283508780948" lon="121.04546705534536"><ele>13.0</ele><time>2026-05-02T13:17:34Z</time></trkpt><trkpt lat="14.425477596672243" lon="121.04546601978113"><ele>13.0</ele><time>2026-05-02T13:17:35Z</time></trkpt><trkpt lat="14.425673980249577" lon="121.0454649719719"><ele>13.333333333333332</ele><time>2026-05-02T13:17:36Z</time></trkpt><trkpt lat="14.425867369627976" lon="121.04546394013478"><ele>13.666666666666668</ele><time>2026-05-02T13:17:37Z</time></trkpt><trkpt lat="14.42606941050725" lon="121.0454628621407"><ele>14.0</ele><time>2026-05-02T13:17:38Z</time></trkpt><trkpt lat="14.426265280438205" lon="121.04546181706515"><ele>13.5</ele><time>2026-05-02T13:17:39Z</time></trkpt><trkpt lat="14.426653239304054" lon="121.0454597470894"><ele>13.0</ele><time>2026-05-02T13:17:41Z</time></trkpt><trkpt lat="14.426840703900043" lon="121.04545874686116"><ele>13.0</ele><time>2026-05-02T13:17:42Z</time></trkpt><trkpt lat="14.427028532951768" lon="121.04545774468575"><ele>13.0</ele><time>2026-05-02T13:17:43Z</time></trkpt><trkpt lat="14.42721260786492" lon="121.04545664108203"><ele>13.0</ele><time>2026-05-02T13:17:44Z</time></trkpt><trkpt lat="14.427401296935777" lon="121.04545524537824"><ele>12.333333333333332</ele><time>2026-05-02T13:17:45Z</time></trkpt><trkpt lat="14.427582002079523" lon="121.04545390873209"><ele>11.666666666666666</ele><time>2026-05-02T13:17:46Z</time></trkpt><trkpt lat="14.427754844180646" lon="121.04545262881864"><ele>11.0</ele><time>2026-05-02T13:17:47Z</time></trkpt><trkpt lat="14.427932927908682" lon="121.04545131156624"><ele>11.333333333333332</ele><time>2026-05-02T13:17:48Z</time></trkpt><trkpt lat="14.428110175107001" lon="121.04545000049707"><ele>11.666666666666666</ele><time>2026-05-02T13:17:49Z</time></trkpt><trkpt lat="14.428288162193844" lon="121.04544868396799"><ele>12.0</ele><time>2026-05-02T13:17:50Z</time></trkpt><trkpt lat="14.428458087787892" lon="121.04544742705723"><ele>12.0</ele><time>2026-05-02T13:17:51Z</time></trkpt><trkpt lat="14.428629045065184" lon="121.04544616252122"><ele>12.0</ele><time>2026-05-02T13:17:52Z</time></trkpt><trkpt lat="14.42879751974671" lon="121.04544491634137"><ele>12.0</ele><time>2026-05-02T13:17:53Z</time></trkpt><trkpt lat="14.42896518611691" lon="121.04544367614444"><ele>12.0</ele><time>2026-05-02T13:17:54Z</time></trkpt><trkpt lat="14.42912170442941" lon="121.04544251840719"><ele>12.0</ele><time>2026-05-02T13:17:55Z</time></trkpt><trkpt lat="14.429269387053726" lon="121.045441426012"><ele>12.0</ele><time>2026-05-02T13:17:56Z</time></trkpt><trkpt lat="14.429424468673677" lon="121.04544027889163"><ele>12.0</ele><time>2026-05-02T13:17:57Z</time></trkpt><trkpt lat="14.429572757713741" lon="121.04543918202162"><ele>12.0</ele><time>2026-05-02T13:17:58Z</time></trkpt><trkpt lat="14.42972341615959" lon="121.04543806762595"><ele>12.0</ele><time>2026-05-02T13:17:59Z</time></trkpt><trkpt lat="14.42988462608077" lon="121.04543687517955"><ele>11.333333333333334</ele><time>2026-05-02T13:18:00Z</time></trkpt><trkpt lat="14.43018639172274" lon="121.04543464307008"><ele>10.666666666666668</ele><time>2026-05-02T13:18:02Z</time></trkpt><trkpt lat="14.430320850810805" lon="121.04543425815298"><ele>10.0</ele><time>2026-05-02T13:18:03Z</time></trkpt><trkpt lat="14.430450272990834" lon="121.04543347354175"><ele>10.0</ele><time>2026-05-02T13:18:04Z</time></trkpt><trkpt lat="14.430617862420734" lon="121.04543245754967"><ele>10.0</ele><time>2026-05-02T13:18:05Z</time></trkpt><trkpt lat="14.430773367061859" lon="121.04543151481518"><ele>10.0</ele><time>2026-05-02T13:18:06Z</time></trkpt><trkpt lat="14.430921138901235" lon="121.0454306189565"><ele>10.0</ele><time>2026-05-02T13:18:07Z</time></trkpt><trkpt lat="14.431078587787438" lon="121.04542938352262"><ele>10.0</ele><time>2026-05-02T13:18:08Z</time></trkpt><trkpt lat="14.431227644558337" lon="121.04542806477858"><ele>10.0</ele><time>2026-05-02T13:18:09Z</time></trkpt><trkpt lat="14.431377987788082" lon="121.04542673465622"><ele>10.25</ele><time>2026-05-02T13:18:10Z</time></trkpt><trkpt lat="14.43152243866017" lon="121.04542545666887"><ele>10.5</ele><time>2026-05-02T13:18:11Z</time></trkpt><trkpt lat="14.431665124942374" lon="121.0454241942952"><ele>10.75</ele><time>2026-05-02T13:18:12Z</time></trkpt><trkpt lat="14.43179879578965" lon="121.04542320560465"><ele>11.0</ele><time>2026-05-02T13:18:13Z</time></trkpt><trkpt lat="14.43193925298106" lon="121.04542239004418"><ele>11.0</ele><time>2026-05-02T13:18:14Z</time></trkpt><trkpt lat="14.432079639610807" lon="121.04542157489182"><ele>11.0</ele><time>2026-05-02T13:18:15Z</time></trkpt><trkpt lat="14.432215355793637" lon="121.04542075288768"><ele>11.0</ele><time>2026-05-02T13:18:16Z</time></trkpt><trkpt lat="14.432356849113358" lon="121.04541963021046"><ele>11.0</ele><time>2026-05-02T13:18:17Z</time></trkpt><trkpt lat="14.432507323406" lon="121.04541843627315"><ele>11.0</ele><time>2026-05-02T13:18:18Z</time></trkpt><trkpt lat="14.432653834690795" lon="121.04541727378017"><ele>11.0</ele><time>2026-05-02T13:18:19Z</time></trkpt><trkpt lat="14.432794595711352" lon="121.04541615691272"><ele>11.0</ele><time>2026-05-02T13:18:20Z</time></trkpt><trkpt lat="14.432947001728127" lon="121.04541494764709"><ele>11.0</ele><time>2026-05-02T13:18:21Z</time></trkpt><trkpt lat="14.433243243094077" lon="121.04541259711961"><ele>11.0</ele><time>2026-05-02T13:18:23Z</time></trkpt><trkpt lat="14.433411697149388" lon="121.04541128314885"><ele>11.0</ele><time>2026-05-02T13:18:24Z</time></trkpt><trkpt lat="14.433571327809197" lon="121.04541015041058"><ele>11.0</ele><time>2026-05-02T13:18:25Z</time></trkpt><trkpt lat="14.4337341792492" lon="121.04540899482392"><ele>10.333333333333332</ele><time>2026-05-02T13:18:26Z</time></trkpt><trkpt lat="14.43389763182747" lon="121.04540783496911"><ele>9.666666666666666</ele><time>2026-05-02T13:18:27Z</time></trkpt><trkpt lat="14.434066408168476" lon="121.04540712045691"><ele>9.0</ele><time>2026-05-02T13:18:28Z</time></trkpt><trkpt lat="14.434238885979651" lon="121.04540660369948"><ele>9.0</ele><time>2026-05-02T13:18:29Z</time></trkpt><trkpt lat="14.434410104252011" lon="121.04540604355643"><ele>9.0</ele><time>2026-05-02T13:18:30Z</time></trkpt><trkpt lat="14.434586741443802" lon="121.04540521204522"><ele>9.0</ele><time>2026-05-02T13:18:31Z</time></trkpt><trkpt lat="14.434767514570321" lon="121.04540460782462"><ele>9.333333333333334</ele><time>2026-05-02T13:18:32Z</time></trkpt><trkpt lat="14.434946035995194" lon="121.04540427072305"><ele>9.666666666666668</ele><time>2026-05-02T13:18:33Z</time></trkpt><trkpt lat="14.435068035085" lon="121.04540404035446"><ele>10.0</ele><time>2026-05-02T13:18:34Z</time></trkpt><trkpt lat="14.435239258419248" lon="121.04540371703517"><ele>10.0</ele><time>2026-05-02T13:18:35Z</time></trkpt><trkpt lat="14.435405549255035" lon="121.0454034030305"><ele>10.0</ele><time>2026-05-02T13:18:36Z</time></trkpt><trkpt lat="14.435570516742137" lon="121.0454030915273"><ele>10.0</ele><time>2026-05-02T13:18:37Z</time></trkpt><trkpt lat="14.435736022437423" lon="121.04540277900331"><ele>10.666666666666668</ele><time>2026-05-02T13:18:38Z</time></trkpt><trkpt lat="14.435904691086941" lon="121.04540246050829"><ele>11.333333333333334</ele><time>2026-05-02T13:18:39Z</time></trkpt><trkpt lat="14.43606943168852" lon="121.04540208577266"><ele>12.0</ele><time>2026-05-02T13:18:40Z</time></trkpt><trkpt lat="14.436234129976741" lon="121.04540094378495"><ele>11.5</ele><time>2026-05-02T13:18:41Z</time></trkpt><trkpt lat="14.436398818127898" lon="121.04539980186837"><ele>11.0</ele><time>2026-05-02T13:18:42Z</time></trkpt><trkpt lat="14.436723877865882" lon="121.04539754796751"><ele>11.0</ele><time>2026-05-02T13:18:44Z</time></trkpt><trkpt lat="14.436889241971025" lon="121.04539640136584"><ele>11.0</ele><time>2026-05-02T13:18:45Z</time></trkpt><trkpt lat="14.437046526874859" lon="121.04539532463653"><ele>11.0</ele><time>2026-05-02T13:18:46Z</time></trkpt><trkpt lat="14.437220672895863" lon="121.04539450286617"><ele>11.0</ele><time>2026-05-02T13:18:47Z</time></trkpt><trkpt lat="14.437395138101799" lon="121.04539318625974"><ele>11.0</ele><time>2026-05-02T13:18:48Z</time></trkpt><trkpt lat="14.43759394021487" lon="121.04539168601035"><ele>11.0</ele><time>2026-05-02T13:18:49Z</time></trkpt><trkpt lat="14.437110377257865" lon="121.0453953351135"><ele>10.666666666666666</ele><time>2026-05-02T13:18:50Z</time></trkpt><trkpt lat="14.43726703431431" lon="121.04539415296105"><ele>10.333333333333334</ele><time>2026-05-02T13:18:51Z</time></trkpt><trkpt lat="14.437419112645223" lon="121.04539300536018"><ele>10.0</ele><time>2026-05-02T13:18:52Z</time></trkpt><trkpt lat="14.437568584297113" lon="121.04539187738213"><ele>10.0</ele><time>2026-05-02T13:18:53Z</time></trkpt><trkpt lat="14.437709625793438" lon="121.0453908130077"><ele>10.0</ele><time>2026-05-02T13:18:54Z</time></trkpt><trkpt lat="14.437854174413955" lon="121.04538972216692"><ele>10.0</ele><time>2026-05-02T13:18:55Z</time></trkpt><trkpt lat="14.437989741189133" lon="121.04538869910687"><ele>10.0</ele><time>2026-05-02T13:18:56Z</time></trkpt><trkpt lat="14.438131971981685" lon="121.04538762575537"><ele>27.0</ele><time>2026-05-02T13:18:57.077Z</time></trkpt><trkpt lat="14.45453189764184" lon="121.04525362882028"><ele>29.5</ele><time>2026-05-02T13:20:29.001Z</time></trkpt><trkpt lat="14.45485603072829" lon="121.04531811081456"><ele>32.0</ele><time>2026-05-02T13:20:31.001Z</time></trkpt><trkpt lat="14.455034646707436" lon="121.04533832254063"><ele>32.0</ele><time>2026-05-02T13:20:32.001Z</time></trkpt><trkpt lat="14.45522736508968" lon="121.0453323355168"><ele>32.0</ele><time>2026-05-02T13:20:33.001Z</time></trkpt><trkpt lat="14.455397640118953" lon="121.04534557332897"><ele>32.0</ele><time>2026-05-02T13:20:34.001Z</time></trkpt><trkpt lat="14.455553464129022" lon="121.04533800000912"><ele>33.5</ele><time>2026-05-02T13:20:35.001Z</time></trkpt><trkpt lat="14.45569987521069" lon="121.04535655273018"><ele>35.0</ele><time>2026-05-02T13:20:36.001Z</time></trkpt><trkpt lat="14.455837899007392" lon="121.0453526755104"><ele>36.5</ele><time>2026-05-02T13:20:37.001Z</time></trkpt><trkpt lat="14.455980409569156" lon="121.04534839497462"><ele>38.0</ele><time>2026-05-02T13:20:38.001Z</time></trkpt><trkpt lat="14.456121390248278" lon="121.04534857551329"><ele>38.0</ele><time>2026-05-02T13:20:39Z</time></trkpt><trkpt lat="14.456254420279196" lon="121.04534624789355"><ele>38.0</ele><time>2026-05-02T13:20:40Z</time></trkpt><trkpt lat="14.456392436911832" lon="121.04534575572045"><ele>38.0</ele><time>2026-05-02T13:20:41Z</time></trkpt><trkpt lat="14.456530728679681" lon="121.04535609988169"><ele>38.0</ele><time>2026-05-02T13:20:42Z</time></trkpt><trkpt lat="14.456669645644523" lon="121.04536709329469"><ele>37.75</ele><time>2026-05-02T13:20:43Z</time></trkpt><trkpt lat="14.456813870704297" lon="121.04536647299511"><ele>37.5</ele><time>2026-05-02T13:20:44Z</time></trkpt><trkpt lat="14.456957088730022" lon="121.0453694173894"><ele>37.25</ele><time>2026-05-02T13:20:45Z</time></trkpt><trkpt lat="14.457101162280567" lon="121.04537203914767"><ele>37.0</ele><time>2026-05-02T13:20:46Z</time></trkpt><trkpt lat="14.457250186202954" lon="121.0453708094396"><ele>37.0</ele><time>2026-05-02T13:20:47Z</time></trkpt><trkpt lat="14.457406300905188" lon="121.0453514304798"><ele>37.0</ele><time>2026-05-02T13:20:48Z</time></trkpt><trkpt lat="14.457551228046635" lon="121.0453394142312"><ele>37.0</ele><time>2026-05-02T13:20:49Z</time></trkpt><trkpt lat="14.4576938883628" lon="121.04533780898636"><ele>37.0</ele><time>2026-05-02T13:20:50Z</time></trkpt><trkpt lat="14.457976628791567" lon="121.04533490079838"><ele>38.0</ele><time>2026-05-02T13:20:52Z</time></trkpt><trkpt lat="14.458069684683641" lon="121.04526836021027"><ele>39.0</ele><time>2026-05-02T13:20:53Z</time></trkpt><trkpt lat="14.458202569322573" lon="121.04525650510048"><ele>40.0</ele><time>2026-05-02T13:20:54Z</time></trkpt><trkpt lat="14.458336197408011" lon="121.04524496390484"><ele>41.0</ele><time>2026-05-02T13:20:55Z</time></trkpt><trkpt lat="14.458470099427972" lon="121.04523344474099"><ele>41.0</ele><time>2026-05-02T13:20:56Z</time></trkpt><trkpt lat="14.458562820149664" lon="121.04529114838131"><ele>41.0</ele><time>2026-05-02T13:20:57Z</time></trkpt><trkpt lat="14.458687200619494" lon="121.04529753099936"><ele>41.0</ele><time>2026-05-02T13:20:58Z</time></trkpt><trkpt lat="14.458814362825057" lon="121.04529953919861"><ele>41.0</ele><time>2026-05-02T13:20:59Z</time></trkpt><trkpt lat="14.45894191788319" lon="121.04530079567323"><ele>41.25</ele><time>2026-05-02T13:21:00Z</time></trkpt><trkpt lat="14.459069410109622" lon="121.0453019978954"><ele>41.5</ele><time>2026-05-02T13:21:01Z</time></trkpt><trkpt lat="14.45919698913062" lon="121.04530329400806"><ele>41.75</ele><time>2026-05-02T13:21:02Z</time></trkpt><trkpt lat="14.459324518393279" lon="121.04530453925364"><ele>42.0</ele><time>2026-05-02T13:21:03Z</time></trkpt><trkpt lat="14.459452042890375" lon="121.0453057776339"><ele>42.0</ele><time>2026-05-02T13:21:04Z</time></trkpt><trkpt lat="14.459667463031192" lon="121.04537254278834"><ele>42.0</ele><time>2026-05-02T13:21:05Z</time></trkpt><trkpt lat="14.459820923911245" lon="121.04537413476639"><ele>42.0</ele><time>2026-05-02T13:21:06Z</time></trkpt><trkpt lat="14.459979931658923" lon="121.04537610579789"><ele>42.0</ele><time>2026-05-02T13:21:07Z</time></trkpt><trkpt lat="14.460145513493305" lon="121.04537887753477"><ele>42.0</ele><time>2026-05-02T13:21:08Z</time></trkpt><trkpt lat="14.460308824333765" lon="121.04538049680993"><ele>42.0</ele><time>2026-05-02T13:21:09Z</time></trkpt><trkpt lat="14.46047262500705" lon="121.04538240281322"><ele>41.0</ele><time>2026-05-02T13:21:10Z</time></trkpt><trkpt lat="14.460641517248549" lon="121.0453841841348"><ele>40.0</ele><time>2026-05-02T13:21:11Z</time></trkpt><trkpt lat="14.460987404255018" lon="121.04538818044372"><ele>40.0</ele><time>2026-05-02T13:21:13Z</time></trkpt><trkpt lat="14.461159120193903" lon="121.0453912622564"><ele>40.0</ele><time>2026-05-02T13:21:14Z</time></trkpt><trkpt lat="14.461335656948677" lon="121.04539477731724"><ele>40.0</ele><time>2026-05-02T13:21:15Z</time></trkpt><trkpt lat="14.461514002862943" lon="121.0453987228682"><ele>39.333333333333336</ele><time>2026-05-02T13:21:16Z</time></trkpt><trkpt lat="14.461687914491048" lon="121.04540214793074"><ele>38.666666666666664</ele><time>2026-05-02T13:21:17Z</time></trkpt><trkpt lat="14.46185973435046" lon="121.04540401323324"><ele>38.0</ele><time>2026-05-02T13:21:18Z</time></trkpt><trkpt lat="14.462039802678863" lon="121.04540551481531"><ele>38.0</ele><time>2026-05-02T13:21:19.048Z</time></trkpt><trkpt lat="14.464256218567627" lon="121.04542061747867"><ele>27.0</ele><time>2026-05-02T13:21:34.504Z</time></trkpt><trkpt lat="14.51065937102889" lon="121.03289713101891"><ele>27.0</ele><time>2026-05-02T13:26:02.001Z</time></trkpt><trkpt lat="14.510846695000678" lon="121.03276445651561"><ele>27.0</ele><time>2026-05-02T13:26:03.001Z</time></trkpt><trkpt lat="14.511003325800257" lon="121.03274731984223"><ele>27.0</ele><time>2026-05-02T13:26:04.001Z</time></trkpt><trkpt lat="14.5112037315904" lon="121.03266929331647"><ele>27.0</ele><time>2026-05-02T13:26:05.001Z</time></trkpt><trkpt lat="14.511400385580956" lon="121.03257447030659"><ele>27.0</ele><time>2026-05-02T13:26:06Z</time></trkpt><trkpt lat="14.51158857675037" lon="121.03246842736382"><ele>27.0</ele><time>2026-05-02T13:26:07Z</time></trkpt><trkpt lat="14.511775451065015" lon="121.03236564340271"><ele>26.333333333333336</ele><time>2026-05-02T13:26:08Z</time></trkpt><trkpt lat="14.511958921898866" lon="121.03226622855588"><ele>25.666666666666668</ele><time>2026-05-02T13:26:09Z</time></trkpt><trkpt lat="14.512143883358531" lon="121.03217034819146"><ele>25.0</ele><time>2026-05-02T13:26:10Z</time></trkpt><trkpt lat="14.512331197698805" lon="121.03206139297255"><ele>25.0</ele><time>2026-05-02T13:26:11Z</time></trkpt><trkpt lat="14.512517839714521" lon="121.0319654888403"><ele>25.0</ele><time>2026-05-02T13:26:12Z</time></trkpt><trkpt lat="14.512711548381382" lon="121.0318518768762"><ele>25.0</ele><time>2026-05-02T13:26:13Z</time></trkpt><trkpt lat="14.512895121667038" lon="121.03175269093401"><ele>24.666666666666668</ele><time>2026-05-02T13:26:14Z</time></trkpt><trkpt lat="14.513078302350022" lon="121.03164597547813"><ele>24.333333333333336</ele><time>2026-05-02T13:26:15Z</time></trkpt><trkpt lat="14.513262263129489" lon="121.03154087655729"><ele>24.0</ele><time>2026-05-02T13:26:16Z</time></trkpt><trkpt lat="14.513445167712868" lon="121.0314375621726"><ele>24.0</ele><time>2026-05-02T13:26:17Z</time></trkpt><trkpt lat="14.513628298797586" lon="121.0313359097816"><ele>24.0</ele><time>2026-05-02T13:26:18Z</time></trkpt><trkpt lat="14.513807053641944" lon="121.03124467533179"><ele>24.0</ele><time>2026-05-02T13:26:19Z</time></trkpt><trkpt lat="14.513985602522247" lon="121.03114893895977"><ele>24.0</ele><time>2026-05-02T13:26:20Z</time></trkpt><trkpt lat="14.514155445597856" lon="121.03105739539912"><ele>24.0</ele><time>2026-05-02T13:26:21Z</time></trkpt><trkpt lat="14.514517300148013" lon="121.03086990779647"><ele>24.0</ele><time>2026-05-02T13:26:23Z</time></trkpt><trkpt lat="14.514690539475694" lon="121.03077539855599"><ele>24.0</ele><time>2026-05-02T13:26:24Z</time></trkpt><trkpt lat="14.514868553779266" lon="121.03067170434436"><ele>24.0</ele><time>2026-05-02T13:26:25Z</time></trkpt><trkpt lat="14.515047988814064" lon="121.0305715698019"><ele>24.0</ele><time>2026-05-02T13:26:26Z</time></trkpt><trkpt lat="14.515229471498994" lon="121.0304710389731"><ele>24.0</ele><time>2026-05-02T13:26:27Z</time></trkpt><trkpt lat="14.515415738284116" lon="121.03036900679925"><ele>24.0</ele><time>2026-05-02T13:26:28Z</time></trkpt><trkpt lat="14.515590732384382" lon="121.03027306590663"><ele>23.0</ele><time>2026-05-02T13:26:29Z</time></trkpt><trkpt lat="14.515763330102779" lon="121.03017837744613"><ele>22.0</ele><time>2026-05-02T13:26:30Z</time></trkpt><trkpt lat="14.515931989160732" lon="121.03008604796916"><ele>21.0</ele><time>2026-05-02T13:26:31Z</time></trkpt><trkpt lat="14.51609897513522" lon="121.02999203622694"><ele>22.333333333333336</ele><time>2026-05-02T13:26:32Z</time></trkpt><trkpt lat="14.516260968806108" lon="121.02990164014996"><ele>23.666666666666668</ele><time>2026-05-02T13:26:33Z</time></trkpt><trkpt lat="14.516423886086377" lon="121.02981510724696"><ele>25.0</ele><time>2026-05-02T13:26:34Z</time></trkpt><trkpt lat="14.51657983036265" lon="121.02973420776108"><ele>25.0</ele><time>2026-05-02T13:26:35Z</time></trkpt><trkpt lat="14.516733479325286" lon="121.02965288914052"><ele>25.0</ele><time>2026-05-02T13:26:36Z</time></trkpt><trkpt lat="14.516884140624871" lon="121.02957029596186"><ele>25.0</ele><time>2026-05-02T13:26:37Z</time></trkpt><trkpt lat="14.517030658910048" lon="121.02948972576651"><ele>23.666666666666668</ele><time>2026-05-02T13:26:38Z</time></trkpt><trkpt lat="14.51717578752245" lon="121.02941218107536"><ele>22.333333333333336</ele><time>2026-05-02T13:26:39Z</time></trkpt><trkpt lat="14.51731588366444" lon="121.02933814049109"><ele>21.0</ele><time>2026-05-02T13:26:40Z</time></trkpt><trkpt lat="14.517448893910887" lon="121.02926857269252"><ele>21.0</ele><time>2026-05-02T13:26:41Z</time></trkpt><trkpt lat="14.517561460523542" lon="121.02920278789504"><ele>21.0</ele><time>2026-05-02T13:26:42Z</time></trkpt><trkpt lat="14.517773207215223" lon="121.02907572145381"><ele>21.0</ele><time>2026-05-02T13:26:44Z</time></trkpt><trkpt lat="14.517871628841913" lon="121.02900884362282"><ele>21.0</ele><time>2026-05-02T13:26:45Z</time></trkpt><trkpt lat="14.517963345691552" lon="121.02894204351125"><ele>21.0</ele><time>2026-05-02T13:26:46Z</time></trkpt><trkpt lat="14.518055701045736" lon="121.0288663798001"><ele>21.0</ele><time>2026-05-02T13:26:47Z</time></trkpt><trkpt lat="14.518147001683946" lon="121.02878947965942"><ele>21.0</ele><time>2026-05-02T13:26:48Z</time></trkpt><trkpt lat="14.518231922742473" lon="121.02871273886484"><ele>21.0</ele><time>2026-05-02T13:26:49Z</time></trkpt><trkpt lat="14.51831342180749" lon="121.02864625855459"><ele>21.0</ele><time>2026-05-02T13:26:50Z</time></trkpt><trkpt lat="14.518397421591722" lon="121.02858154783357"><ele>21.0</ele><time>2026-05-02T13:26:51Z</time></trkpt><trkpt lat="14.51846781873574" lon="121.02852525312811"><ele>21.0</ele><time>2026-05-02T13:26:52Z</time></trkpt><trkpt lat="14.518533357541235" lon="121.02847260113106"><ele>21.0</ele><time>2026-05-02T13:26:53Z</time></trkpt><trkpt lat="14.518593310782611" lon="121.02842492093043"><ele>21.0</ele><time>2026-05-02T13:26:54Z</time></trkpt><trkpt lat="14.518684245899852" lon="121.02835930790596"><ele>21.0</ele><time>2026-05-02T13:26:56Z</time></trkpt><trkpt lat="14.518777121074377" lon="121.02835456183865"><ele>21.0</ele><time>2026-05-02T13:27:52Z</time></trkpt><trkpt lat="14.518882853613798" lon="121.02826044498153"><ele>21.0</ele><time>2026-05-02T13:27:56.001Z</time></trkpt><trkpt lat="14.518959762544203" lon="121.0282254317304"><ele>21.0</ele><time>2026-05-02T13:27:58.001Z</time></trkpt><trkpt lat="14.519025602993773" lon="121.02821090026868"><ele>20.0</ele><time>2026-05-02T13:27:59.001Z</time></trkpt><trkpt lat="14.51912185417214" lon="121.0281955181055"><ele>19.0</ele><time>2026-05-02T13:28:00.001Z</time></trkpt><trkpt lat="14.519227140162917" lon="121.02816971266341"><ele>18.0</ele><time>2026-05-02T13:28:01.001Z</time></trkpt><trkpt lat="14.519344891051437" lon="121.02813515499473"><ele>17.0</ele><time>2026-05-02T13:28:02.001Z</time></trkpt><trkpt lat="14.519505273620489" lon="121.028077429367"><ele>17.0</ele><time>2026-05-02T13:28:03.001Z</time></trkpt><trkpt lat="14.519633756705435" lon="121.02803090956478"><ele>17.0</ele><time>2026-05-02T13:28:04.001Z</time></trkpt><trkpt lat="14.519762581712712" lon="121.02798593360636"><ele>17.0</ele><time>2026-05-02T13:28:05.001Z</time></trkpt><trkpt lat="14.519895884924948" lon="121.02793789125843"><ele>17.0</ele><time>2026-05-02T13:28:06.001Z</time></trkpt><trkpt lat="14.520034399789601" lon="121.02788234508357"><ele>17.0</ele><time>2026-05-02T13:28:07.001Z</time></trkpt><trkpt lat="14.520176979503564" lon="121.02781836652967"><ele>17.0</ele><time>2026-05-02T13:28:08.001Z</time></trkpt><trkpt lat="14.520310468622025" lon="121.02775844185804"><ele>17.0</ele><time>2026-05-02T13:28:09.001Z</time></trkpt><trkpt lat="14.520440263983666" lon="121.02769171588707"><ele>17.0</ele><time>2026-05-02T13:28:10.001Z</time></trkpt><trkpt lat="14.520572823458775" lon="121.02762069644413"><ele>16.666666666666668</ele><time>2026-05-02T13:28:11Z</time></trkpt><trkpt lat="14.520704670721383" lon="121.02754657193074"><ele>16.333333333333332</ele><time>2026-05-02T13:28:12Z</time></trkpt><trkpt lat="14.520837243363575" lon="121.0274687883192"><ele>16.0</ele><time>2026-05-02T13:28:13Z</time></trkpt><trkpt lat="14.521103593520587" lon="121.02731549075322"><ele>16.0</ele><time>2026-05-02T13:28:15Z</time></trkpt><trkpt lat="14.521241473967903" lon="121.02723289798399"><ele>16.0</ele><time>2026-05-02T13:28:16Z</time></trkpt><trkpt lat="14.52138255916818" lon="121.02715012496196"><ele>16.0</ele><time>2026-05-02T13:28:17Z</time></trkpt><trkpt lat="14.521523910383392" lon="121.02706740765495"><ele>16.0</ele><time>2026-05-02T13:28:18Z</time></trkpt><trkpt lat="14.521664056512533" lon="121.02698504014816"><ele>16.0</ele><time>2026-05-02T13:28:19Z</time></trkpt><trkpt lat="14.521804395874728" lon="121.02690680171871"><ele>16.0</ele><time>2026-05-02T13:28:20Z</time></trkpt><trkpt lat="14.521945870488775" lon="121.02683133886951"><ele>16.333333333333332</ele><time>2026-05-02T13:28:21Z</time></trkpt><trkpt lat="14.522092194945607" lon="121.02675146533116"><ele>16.666666666666668</ele><time>2026-05-02T13:28:22Z</time></trkpt><trkpt lat="14.522244263613384" lon="121.02667164473108"><ele>17.0</ele><time>2026-05-02T13:28:23Z</time></trkpt><trkpt lat="14.52239910153125" lon="121.0265909714487"><ele>16.0</ele><time>2026-05-02T13:28:24Z</time></trkpt><trkpt lat="14.522554281802222" lon="121.02651363980479"><ele>15.0</ele><time>2026-05-02T13:28:25Z</time></trkpt><trkpt lat="14.522716814650682" lon="121.02643336320097"><ele>14.0</ele><time>2026-05-02T13:28:26Z</time></trkpt><trkpt lat="14.522876792016111" lon="121.02635511074897"><ele>14.666666666666668</ele><time>2026-05-02T13:28:27Z</time></trkpt><trkpt lat="14.523034957185109" lon="121.02627456620733"><ele>15.333333333333332</ele><time>2026-05-02T13:28:28Z</time></trkpt><trkpt lat="14.523192559235264" lon="121.02619485019994"><ele>16.0</ele><time>2026-05-02T13:28:29Z</time></trkpt><trkpt lat="14.523345573105152" lon="121.02611693494492"><ele>16.0</ele><time>2026-05-02T13:28:30Z</time></trkpt><trkpt lat="14.523497258990231" lon="121.0260402759597"><ele>16.0</ele><time>2026-05-02T13:28:31Z</time></trkpt><trkpt lat="14.523644033056389" lon="121.0259629010277"><ele>16.0</ele><time>2026-05-02T13:28:32Z</time></trkpt><trkpt lat="14.52378723592882" lon="121.02588089240896"><ele>15.5</ele><time>2026-05-02T13:28:33Z</time></trkpt><trkpt lat="14.523928748108263" lon="121.02580664289931"><ele>15.0</ele><time>2026-05-02T13:28:34Z</time></trkpt><trkpt lat="14.524208962908988" lon="121.02565764747749"><ele>15.0</ele><time>2026-05-02T13:28:36Z</time></trkpt><trkpt lat="14.52434800601742" lon="121.02558154216253"><ele>15.0</ele><time>2026-05-02T13:28:37Z</time></trkpt><trkpt lat="14.524483050688978" lon="121.02550869137629"><ele>15.0</ele><time>2026-05-02T13:28:38Z</time></trkpt><trkpt lat="14.524612030035634" lon="121.02543220940707"><ele>14.0</ele><time>2026-05-02T13:28:39Z</time></trkpt><trkpt lat="14.52473701869468" lon="121.02536187924356"><ele>13.0</ele><time>2026-05-02T13:28:40Z</time></trkpt><trkpt lat="14.524845853818142" lon="121.02529487537045"><ele>12.0</ele><time>2026-05-02T13:28:41Z</time></trkpt><trkpt lat="14.52496687779628" lon="121.02521775078682"><ele>11.0</ele><time>2026-05-02T13:28:42Z</time></trkpt><trkpt lat="14.525090861705863" lon="121.02516113258675"><ele>11.0</ele><time>2026-05-02T13:28:43Z</time></trkpt><trkpt lat="14.525215973658485" lon="121.0250941781765"><ele>11.0</ele><time>2026-05-02T13:28:44Z</time></trkpt><trkpt lat="14.52534553523118" lon="121.02502459348575"><ele>11.0</ele><time>2026-05-02T13:28:45Z</time></trkpt><trkpt lat="14.525481983104859" lon="121.02495364560171"><ele>11.0</ele><time>2026-05-02T13:28:46Z</time></trkpt><trkpt lat="14.525616371984164" lon="121.0248819342927"><ele>9.666666666666666</ele><time>2026-05-02T13:28:47Z</time></trkpt><trkpt lat="14.525751491565742" lon="121.02480802231209"><ele>8.333333333333334</ele><time>2026-05-02T13:28:48Z</time></trkpt><trkpt lat="14.525890974283039" lon="121.02473183612715"><ele>7.0</ele><time>2026-05-02T13:28:49Z</time></trkpt><trkpt lat="14.52603552319654" lon="121.02465421296988"><ele>7.0</ele><time>2026-05-02T13:28:50Z</time></trkpt><trkpt lat="14.526182711773917" lon="121.02457668766165"><ele>7.0</ele><time>2026-05-02T13:28:51Z</time></trkpt><trkpt lat="14.52633169395452" lon="121.0244990829963"><ele>7.0</ele><time>2026-05-02T13:28:52Z</time></trkpt><trkpt lat="14.526481486350871" lon="121.02441772411076"><ele>8.333333333333334</ele><time>2026-05-02T13:28:53Z</time></trkpt><trkpt lat="14.52663177155457" lon="121.02433579992378"><ele>9.666666666666666</ele><time>2026-05-02T13:28:54Z</time></trkpt><trkpt lat="14.526782228003079" lon="121.0242538604862"><ele>11.0</ele><time>2026-05-02T13:28:55Z</time></trkpt><trkpt lat="14.527084383725608" lon="121.02409205790457"><ele>11.0</ele><time>2026-05-02T13:28:57Z</time></trkpt><trkpt lat="14.527228482026546" lon="121.02400586949568"><ele>11.0</ele><time>2026-05-02T13:28:58Z</time></trkpt><trkpt lat="14.52737285287275" lon="121.0239244078755"><ele>11.0</ele><time>2026-05-02T13:28:59Z</time></trkpt><trkpt lat="14.527513339024496" lon="121.02384313294822"><ele>11.0</ele><time>2026-05-02T13:29:00Z</time></trkpt><trkpt lat="14.527650889287273" lon="121.02376440840918"><ele>11.0</ele><time>2026-05-02T13:29:01Z</time></trkpt><trkpt lat="14.527784820600788" lon="121.02368708740396"><ele>11.0</ele><time>2026-05-02T13:29:02Z</time></trkpt><trkpt lat="14.527916611594712" lon="121.02360924509362"><ele>10.666666666666666</ele><time>2026-05-02T13:29:03Z</time></trkpt><trkpt lat="14.528060503148254" lon="121.02355311689912"><ele>10.333333333333334</ele><time>2026-05-02T13:29:04Z</time></trkpt><trkpt lat="14.528194144637974" lon="121.02348248376745"><ele>10.0</ele><time>2026-05-02T13:29:05Z</time></trkpt><trkpt lat="14.528326988214603" lon="121.02341227233515"><ele>10.0</ele><time>2026-05-02T13:29:06Z</time></trkpt><trkpt lat="14.528460335990022" lon="121.02334083517427"><ele>10.0</ele><time>2026-05-02T13:29:07Z</time></trkpt><trkpt lat="14.528594065108456" lon="121.02326890732907"><ele>10.0</ele><time>2026-05-02T13:29:08Z</time></trkpt><trkpt lat="14.528738539148508" lon="121.0231912001648"><ele>10.0</ele><time>2026-05-02T13:29:09.083Z</time></trkpt><trkpt lat="14.52886540161592" lon="121.02312296561854"><ele>10.0</ele><time>2026-05-02T13:29:10.034Z</time></trkpt><trkpt lat="14.52900328507371" lon="121.02304880328002"><ele>10.0</ele><time>2026-05-02T13:29:11.034Z</time></trkpt><trkpt lat="14.529138801139979" lon="121.0229760255844"><ele>10.0</ele><time>2026-05-02T13:29:12.029Z</time></trkpt><trkpt lat="14.529274614539528" lon="121.02290314728857"><ele>10.0</ele><time>2026-05-02T13:29:13.032Z</time></trkpt><trkpt lat="14.529408942788649" lon="121.02283106695667"><ele>10.0</ele><time>2026-05-02T13:29:14.032Z</time></trkpt><trkpt lat="14.529561084304804" lon="121.02274894171788"><ele>10.333333333333334</ele><time>2026-05-02T13:29:15.031Z</time></trkpt><trkpt lat="14.529706936066946" lon="121.0226701814351"><ele>10.666666666666666</ele><time>2026-05-02T13:29:16.031Z</time></trkpt><trkpt lat="14.529889713142808" lon="121.02257148159566"><ele>11.0</ele><time>2026-05-02T13:29:18.03Z</time></trkpt><trkpt lat="14.529988200520908" lon="121.02251829819349"><ele>11.0</ele><time>2026-05-02T13:29:19.033Z</time></trkpt><trkpt lat="14.530142241814527" lon="121.02249702282295"><ele>11.0</ele><time>2026-05-02T13:29:20.028Z</time></trkpt><trkpt lat="14.530279205502383" lon="121.02242646636117"><ele>11.0</ele><time>2026-05-02T13:29:21.033Z</time></trkpt><trkpt lat="14.530407155441916" lon="121.0223591553864"><ele>10.5</ele><time>2026-05-02T13:29:22.032Z</time></trkpt><trkpt lat="14.530536564475488" lon="121.02228916818427"><ele>10.0</ele><time>2026-05-02T13:29:23.031Z</time></trkpt><trkpt lat="14.53064595561523" lon="121.0222279858644"><ele>9.5</ele><time>2026-05-02T13:29:24.029Z</time></trkpt><trkpt lat="14.530751688368593" lon="121.0221684279761"><ele>9.0</ele><time>2026-05-02T13:29:25.032Z</time></trkpt><trkpt lat="14.530855001877962" lon="121.02211024467513"><ele>9.0</ele><time>2026-05-02T13:29:26.03Z</time></trkpt><trkpt lat="14.530947905891844" lon="121.02205779031186"><ele>9.0</ele><time>2026-05-02T13:29:27.029Z</time></trkpt><trkpt lat="14.531039614749238" lon="121.0220048196955"><ele>9.0</ele><time>2026-05-02T13:29:28.029Z</time></trkpt><trkpt lat="14.531127564822553" lon="121.02195421657598"><ele>9.0</ele><time>2026-05-02T13:29:29.033Z</time></trkpt><trkpt lat="14.5310372846276" lon="121.02200230038065"><ele>9.0</ele><time>2026-05-02T13:29:30.03Z</time></trkpt><trkpt lat="14.531147930793948" lon="121.02193986180284"><ele>9.75</ele><time>2026-05-02T13:29:32.029Z</time></trkpt><trkpt lat="14.531234865105217" lon="121.02189143565276"><ele>10.5</ele><time>2026-05-02T13:29:34.031Z</time></trkpt><trkpt lat="14.531355188955935" lon="121.02182522312194"><ele>11.25</ele><time>2026-05-02T13:29:36.03Z</time></trkpt><trkpt lat="14.531430000890369" lon="121.02178399071225"><ele>12.0</ele><time>2026-05-02T13:29:37.032Z</time></trkpt><trkpt lat="14.531576010271408" lon="121.0217036636868"><ele>12.0</ele><time>2026-05-02T13:29:39.033Z</time></trkpt><trkpt lat="14.531657910912365" lon="121.0216574925054"><ele>12.0</ele><time>2026-05-02T13:29:40.031Z</time></trkpt><trkpt lat="14.531746088196952" lon="121.02160754581399"><ele>12.0</ele><time>2026-05-02T13:29:41.029Z</time></trkpt><trkpt lat="14.53183903261994" lon="121.0215551629556"><ele>12.0</ele><time>2026-05-02T13:29:42.031Z</time></trkpt><trkpt lat="14.53193568750391" lon="121.02150062076062"><ele>12.0</ele><time>2026-05-02T13:29:43.026Z</time></trkpt><trkpt lat="14.532035363643585" lon="121.02144532382252"><ele>12.0</ele><time>2026-05-02T13:29:44.028Z</time></trkpt><trkpt lat="14.532138796177346" lon="121.02138896587348"><ele>12.0</ele><time>2026-05-02T13:29:45.029Z</time></trkpt><trkpt lat="14.5322482914939" lon="121.02133052031974"><ele>12.0</ele><time>2026-05-02T13:29:46.029Z</time></trkpt><trkpt lat="14.532349015830638" lon="121.0212763988547"><ele>12.0</ele><time>2026-05-02T13:29:47.028Z</time></trkpt><trkpt lat="14.532450718925388" lon="121.02122116524154"><ele>12.0</ele><time>2026-05-02T13:29:48.03Z</time></trkpt><trkpt lat="14.53255616171352" lon="121.02116473528167"><ele>12.0</ele><time>2026-05-02T13:29:49.027Z</time></trkpt><trkpt lat="14.53266650837833" lon="121.02110607048756"><ele>12.0</ele><time>2026-05-02T13:29:50.025Z</time></trkpt><trkpt lat="14.532782025856482" lon="121.02104495082999"><ele>12.0</ele><time>2026-05-02T13:29:51.026Z</time></trkpt><trkpt lat="14.532887766346795" lon="121.02099000179035"><ele>13.0</ele><time>2026-05-02T13:29:52.027Z</time></trkpt><trkpt lat="14.532987472006782" lon="121.02093801153185"><ele>14.0</ele><time>2026-05-02T13:29:53.027Z</time></trkpt><trkpt lat="14.533086953662888" lon="121.02088678172647"><ele>15.0</ele><time>2026-05-02T13:29:54.027Z</time></trkpt><trkpt lat="14.533184974830004" lon="121.02083554743443"><ele>16.0</ele><time>2026-05-02T13:29:55.026Z</time></trkpt><trkpt lat="14.533279372250105" lon="121.02078488064154"><ele>17.0</ele><time>2026-05-02T13:29:56.026Z</time></trkpt><trkpt lat="14.533380160346411" lon="121.02073079385829"><ele>17.0</ele><time>2026-05-02T13:29:57.026Z</time></trkpt><trkpt lat="14.533484956270255" lon="121.02067412090192"><ele>17.0</ele><time>2026-05-02T13:29:58.026Z</time></trkpt><trkpt lat="14.533713918119552" lon="121.02055147057746"><ele>17.0</ele><time>2026-05-02T13:30:00.026Z</time></trkpt><trkpt lat="14.533835848431146" lon="121.02048533189041"><ele>16.75</ele><time>2026-05-02T13:30:01.026Z</time></trkpt><trkpt lat="14.533942452973555" lon="121.02042624354584"><ele>16.5</ele><time>2026-05-02T13:30:02.025Z</time></trkpt><trkpt lat="14.534035881027243" lon="121.0203736450915"><ele>16.25</ele><time>2026-05-02T13:30:03.027Z</time></trkpt><trkpt lat="14.53413849655501" lon="121.02031545028917"><ele>16.0</ele><time>2026-05-02T13:30:04.028Z</time></trkpt><trkpt lat="14.534241171416374" lon="121.0202564399646"><ele>16.0</ele><time>2026-05-02T13:30:05.026Z</time></trkpt><trkpt lat="14.534343641522911" lon="121.02019734384132"><ele>16.0</ele><time>2026-05-02T13:30:06.027Z</time></trkpt><trkpt lat="14.534435367244315" lon="121.0201449056282"><ele>16.0</ele><time>2026-05-02T13:30:07.015Z</time></trkpt><trkpt lat="14.534528754372772" lon="121.02009298381029"><ele>16.0</ele><time>2026-05-02T13:30:08.016Z</time></trkpt><trkpt lat="14.53461152307795" lon="121.0200478113707"><ele>16.0</ele><time>2026-05-02T13:30:09.014Z</time></trkpt><trkpt lat="14.534689346495592" lon="121.02000569809864"><ele>15.4</ele><time>2026-05-02T13:30:10.014Z</time></trkpt><trkpt lat="14.534785821607517" lon="121.0199542392357"><ele>14.8</ele><time>2026-05-02T13:30:11.013Z</time></trkpt><trkpt lat="14.534868574394615" lon="121.01991057616682"><ele>14.200000000000001</ele><time>2026-05-02T13:30:12.013Z</time></trkpt><trkpt lat="14.534960019062257" lon="121.01986232691384"><ele>13.600000000000001</ele><time>2026-05-02T13:30:13.015Z</time></trkpt><trkpt lat="14.5350295795531" lon="121.01982489131457"><ele>13.0</ele><time>2026-05-02T13:30:14.014Z</time></trkpt><trkpt lat="14.535103098474861" lon="121.01978394880118"><ele>13.0</ele><time>2026-05-02T13:30:15.014Z</time></trkpt><trkpt lat="14.535220496128074" lon="121.01977676909709"><ele>13.0</ele><time>2026-05-02T13:30:16.015Z</time></trkpt><trkpt lat="14.53532525795898" lon="121.01971966314338"><ele>13.0</ele><time>2026-05-02T13:30:17.015Z</time></trkpt><trkpt lat="14.535440771870324" lon="121.01967228526436"><ele>13.0</ele><time>2026-05-02T13:30:18.012Z</time></trkpt><trkpt lat="14.53554936154018" lon="121.01962205799018"><ele>13.666666666666666</ele><time>2026-05-02T13:30:19.017Z</time></trkpt><trkpt lat="14.535759534183123" lon="121.01951449427473"><ele>14.333333333333332</ele><time>2026-05-02T13:30:21.015Z</time></trkpt><trkpt lat="14.535867258217099" lon="121.0194506562518"><ele>15.0</ele><time>2026-05-02T13:30:22.015Z</time></trkpt><trkpt lat="14.535973036111438" lon="121.01938754633159"><ele>15.0</ele><time>2026-05-02T13:30:23.015Z</time></trkpt><trkpt lat="14.536078270864436" lon="121.01932822198637"><ele>15.0</ele><time>2026-05-02T13:30:24.014Z</time></trkpt><trkpt lat="14.536188772374505" lon="121.01926909025917"><ele>15.0</ele><time>2026-05-02T13:30:25.014Z</time></trkpt><trkpt lat="14.536319315478384" lon="121.01919846751359"><ele>15.0</ele><time>2026-05-02T13:30:26.013Z</time></trkpt><trkpt lat="14.536468442575849" lon="121.01911755430704"><ele>13.666666666666666</ele><time>2026-05-02T13:30:27.013Z</time></trkpt><trkpt lat="14.53659209133017" lon="121.0190504137099"><ele>12.333333333333332</ele><time>2026-05-02T13:30:28.015Z</time></trkpt><trkpt lat="14.536714674680965" lon="121.01898361005163"><ele>11.0</ele><time>2026-05-02T13:30:29.015Z</time></trkpt><trkpt lat="14.536868681295951" lon="121.01890024193165"><ele>11.0</ele><time>2026-05-02T13:30:30.015Z</time></trkpt><trkpt lat="14.537002919563475" lon="121.01882548608634"><ele>11.0</ele><time>2026-05-02T13:30:31.015Z</time></trkpt><trkpt lat="14.537087455209221" lon="121.01877514045393"><ele>11.0</ele><time>2026-05-02T13:30:32.015Z</time></trkpt><trkpt lat="14.537215475076191" lon="121.01870066704694"><ele>11.0</ele><time>2026-05-02T13:30:33.014Z</time></trkpt><trkpt lat="14.537358739716666" lon="121.018617397742"><ele>11.0</ele><time>2026-05-02T13:30:34.015Z</time></trkpt><trkpt lat="14.537531203976755" lon="121.01851495610715"><ele>11.0</ele><time>2026-05-02T13:30:35.014Z</time></trkpt><trkpt lat="14.537655962582036" lon="121.0184365476278"><ele>11.0</ele><time>2026-05-02T13:30:36.016Z</time></trkpt><trkpt lat="14.537801612715109" lon="121.01834588916591"><ele>11.0</ele><time>2026-05-02T13:30:37.016Z</time></trkpt><trkpt lat="14.537945153613698" lon="121.01825087352118"><ele>11.0</ele><time>2026-05-02T13:30:38.015Z</time></trkpt><trkpt lat="14.538053433792523" lon="121.01818202419928"><ele>11.0</ele><time>2026-05-02T13:30:39.015Z</time></trkpt><trkpt lat="14.538145797316108" lon="121.0181194284258"><ele>11.0</ele><time>2026-05-02T13:30:40.02Z</time></trkpt><trkpt lat="14.53836966904593" lon="121.01797094933688"><ele>11.0</ele><time>2026-05-02T13:30:42.014Z</time></trkpt><trkpt lat="14.53848248672816" lon="121.01789747101859"><ele>11.0</ele><time>2026-05-02T13:30:43.016Z</time></trkpt><trkpt lat="14.538596151330143" lon="121.01782445152638"><ele>11.0</ele><time>2026-05-02T13:30:44.015Z</time></trkpt><trkpt lat="14.538697634917108" lon="121.01776190520968"><ele>11.0</ele><time>2026-05-02T13:30:45.015Z</time></trkpt><trkpt lat="14.538790482456529" lon="121.01770429641142"><ele>10.75</ele><time>2026-05-02T13:30:46.014Z</time></trkpt><trkpt lat="14.538885548069933" lon="121.01764060858281"><ele>10.5</ele><time>2026-05-02T13:30:47.014Z</time></trkpt><trkpt lat="14.538990697798752" lon="121.01757540771924"><ele>10.25</ele><time>2026-05-02T13:30:48.016Z</time></trkpt><trkpt lat="14.539089837523926" lon="121.01751261245559"><ele>10.0</ele><time>2026-05-02T13:30:49.015Z</time></trkpt><trkpt lat="14.539183550678139" lon="121.01743992577202"><ele>10.25</ele><time>2026-05-02T13:30:50.015Z</time></trkpt><trkpt lat="14.539278729852887" lon="121.01736479108686"><ele>10.5</ele><time>2026-05-02T13:30:51.015Z</time></trkpt><trkpt lat="14.53938819304478" lon="121.0173048054549"><ele>10.75</ele><time>2026-05-02T13:30:52.019Z</time></trkpt><trkpt lat="14.539469016365787" lon="121.01718691008493"><ele>11.0</ele><time>2026-05-02T13:30:53.019Z</time></trkpt><trkpt lat="14.53967139883133" lon="121.01717201218882"><ele>11.0</ele><time>2026-05-02T13:30:55.018Z</time></trkpt><trkpt lat="14.53973465232047" lon="121.0171047758097"><ele>11.0</ele><time>2026-05-02T13:30:56.019Z</time></trkpt><trkpt lat="14.53980841747364" lon="121.01703015798074"><ele>11.0</ele><time>2026-05-02T13:30:57.017Z</time></trkpt><trkpt lat="14.5398839554935" lon="121.01697728467049"><ele>11.0</ele><time>2026-05-02T13:30:58.018Z</time></trkpt><trkpt lat="14.539984597918561" lon="121.01693864298481"><ele>11.0</ele><time>2026-05-02T13:30:59.02Z</time></trkpt><trkpt lat="14.540099958475588" lon="121.0169189555285"><ele>11.0</ele><time>2026-05-02T13:31:00.017Z</time></trkpt><trkpt lat="14.540185183508303" lon="121.01687375548408"><ele>11.0</ele><time>2026-05-02T13:31:01.017Z</time></trkpt><trkpt lat="14.540402321083743" lon="121.01674081498086"><ele>11.0</ele><time>2026-05-02T13:31:03.019Z</time></trkpt><trkpt lat="14.54049574919451" lon="121.01667505367719"><ele>11.25</ele><time>2026-05-02T13:31:04.016Z</time></trkpt><trkpt lat="14.540585009560518" lon="121.01660600132679"><ele>11.5</ele><time>2026-05-02T13:31:05.018Z</time></trkpt><trkpt lat="14.540680944849395" lon="121.01653821124013"><ele>11.75</ele><time>2026-05-02T13:31:06.018Z</time></trkpt><trkpt lat="14.540785736653977" lon="121.01647674378103"><ele>12.0</ele><time>2026-05-02T13:31:07.017Z</time></trkpt><trkpt lat="14.540872706875433" lon="121.01642185005507"><ele>12.0</ele><time>2026-05-02T13:31:08.017Z</time></trkpt><trkpt lat="14.54097682874354" lon="121.01637403888836"><ele>12.0</ele><time>2026-05-02T13:31:09.018Z</time></trkpt><trkpt lat="14.541085557904655" lon="121.01632043166242"><ele>12.0</ele><time>2026-05-02T13:31:10.018Z</time></trkpt><trkpt lat="14.541179279649924" lon="121.01627575748641"><ele>12.0</ele><time>2026-05-02T13:31:11.017Z</time></trkpt><trkpt lat="14.541302511954203" lon="121.01637774283623"><ele>11.75</ele><time>2026-05-02T13:31:12.019Z</time></trkpt><trkpt lat="14.541371288500208" lon="121.0163419382773"><ele>11.5</ele><time>2026-05-02T13:31:13.019Z</time></trkpt><trkpt lat="14.54150427932602" lon="121.01629367883494"><ele>11.25</ele><time>2026-05-02T13:31:14.019Z</time></trkpt><trkpt lat="14.541627840189218" lon="121.0162388495583"><ele>11.0</ele><time>2026-05-02T13:31:15.018Z</time></trkpt><trkpt lat="14.541717101789983" lon="121.01619480102055"><ele>11.0</ele><time>2026-05-02T13:31:16.019Z</time></trkpt><trkpt lat="14.541831607943934" lon="121.01613698411289"><ele>11.0</ele><time>2026-05-02T13:31:17.018Z</time></trkpt><trkpt lat="14.541940388365905" lon="121.0160822260908"><ele>11.0</ele><time>2026-05-02T13:31:18.018Z</time></trkpt><trkpt lat="14.54205286220472" lon="121.01602650963879"><ele>11.0</ele><time>2026-05-02T13:31:19.019Z</time></trkpt><trkpt lat="14.542157664688398" lon="121.01597527577889"><ele>10.333333333333332</ele><time>2026-05-02T13:31:20.021Z</time></trkpt><trkpt lat="14.542268182171705" lon="121.01592057249017"><ele>9.666666666666666</ele><time>2026-05-02T13:31:21.017Z</time></trkpt><trkpt lat="14.54238837492503" lon="121.01585844127922"><ele>9.0</ele><time>2026-05-02T13:31:22.019Z</time></trkpt><trkpt lat="14.542605240146186" lon="121.01574950508281"><ele>9.75</ele><time>2026-05-02T13:31:24.017Z</time></trkpt><trkpt lat="14.542734058932426" lon="121.01568706279288"><ele>10.5</ele><time>2026-05-02T13:31:25.018Z</time></trkpt><trkpt lat="14.542848390768585" lon="121.01562881760877"><ele>11.25</ele><time>2026-05-02T13:31:26.019Z</time></trkpt><trkpt lat="14.542959199959288" lon="121.01557072096126"><ele>12.0</ele><time>2026-05-02T13:31:27.017Z</time></trkpt><trkpt lat="14.543090498100899" lon="121.01549809981192"><ele>12.0</ele><time>2026-05-02T13:31:28.018Z</time></trkpt><trkpt lat="14.54321980347511" lon="121.01542759915392"><ele>12.0</ele><time>2026-05-02T13:31:29.017Z</time></trkpt><trkpt lat="14.543342645419903" lon="121.01536093547347"><ele>12.0</ele><time>2026-05-02T13:31:30.017Z</time></trkpt><trkpt lat="14.543478164400083" lon="121.01528852151789"><ele>12.0</ele><time>2026-05-02T13:31:31.017Z</time></trkpt><trkpt lat="14.543604755415094" lon="121.01522253533132"><ele>12.0</ele><time>2026-05-02T13:31:32.017Z</time></trkpt><trkpt lat="14.54371946211257" lon="121.01515940135617"><ele>12.0</ele><time>2026-05-02T13:31:33.016Z</time></trkpt><trkpt lat="14.54385263511755" lon="121.01508732097788"><ele>12.0</ele><time>2026-05-02T13:31:34.017Z</time></trkpt><trkpt lat="14.543958654396025" lon="121.01503106570387"><ele>12.0</ele><time>2026-05-02T13:31:35.019Z</time></trkpt><trkpt lat="14.544078130294992" lon="121.01497196033647"><ele>12.0</ele><time>2026-05-02T13:31:36.021Z</time></trkpt><trkpt lat="14.544244023894143" lon="121.01488836548876"><ele>12.0</ele><time>2026-05-02T13:31:37.018Z</time></trkpt><trkpt lat="14.544378526950325" lon="121.0148198422049"><ele>12.0</ele><time>2026-05-02T13:31:38.018Z</time></trkpt><trkpt lat="14.5444941718138" lon="121.01475839862354"><ele>12.0</ele><time>2026-05-02T13:31:39.018Z</time></trkpt><trkpt lat="14.544607844473335" lon="121.01469860560698"><ele>12.0</ele><time>2026-05-02T13:31:40.018Z</time></trkpt><trkpt lat="14.544720992560624" lon="121.01463844273728"><ele>12.0</ele><time>2026-05-02T13:31:41.017Z</time></trkpt><trkpt lat="14.544790637255781" lon="121.01460025828135"><ele>12.0</ele><time>2026-05-02T13:31:42.018Z</time></trkpt><trkpt lat="14.544920858038932" lon="121.01452927851572"><ele>12.0</ele><time>2026-05-02T13:31:43.016Z</time></trkpt><trkpt lat="14.545134705640114" lon="121.01441554120294"><ele>12.0</ele><time>2026-05-02T13:31:45.017Z</time></trkpt><trkpt lat="14.545253699249034" lon="121.01435163854974"><ele>12.0</ele><time>2026-05-02T13:31:46.015Z</time></trkpt><trkpt lat="14.54537203043774" lon="121.01428644424395"><ele>11.5</ele><time>2026-05-02T13:31:47.015Z</time></trkpt><trkpt lat="14.545491683192731" lon="121.01422052109147"><ele>11.0</ele><time>2026-05-02T13:31:48.016Z</time></trkpt><trkpt lat="14.545612263675777" lon="121.01415543436178"><ele>10.5</ele><time>2026-05-02T13:31:49.016Z</time></trkpt><trkpt lat="14.545733707468163" lon="121.01409065775651"><ele>10.0</ele><time>2026-05-02T13:31:50.015Z</time></trkpt><trkpt lat="14.545854479450274" lon="121.01402557049403"><ele>10.0</ele><time>2026-05-02T13:31:51.016Z</time></trkpt><trkpt lat="14.545971940133073" lon="121.01396046658448"><ele>10.0</ele><time>2026-05-02T13:31:52.016Z</time></trkpt><trkpt lat="14.546087909200558" lon="121.01389589799416"><ele>10.0</ele><time>2026-05-02T13:31:53.012Z</time></trkpt><trkpt lat="14.546199802780233" lon="121.01383472137033"><ele>10.0</ele><time>2026-05-02T13:31:54.014Z</time></trkpt><trkpt lat="14.54631476041641" lon="121.01377214650667"><ele>10.75</ele><time>2026-05-02T13:31:55.015Z</time></trkpt><trkpt lat="14.546432179076783" lon="121.01370848426006"><ele>11.5</ele><time>2026-05-02T13:31:56.015Z</time></trkpt><trkpt lat="14.546578150725457" lon="121.01362946391156"><ele>12.25</ele><time>2026-05-02T13:31:57.015Z</time></trkpt><trkpt lat="14.546700540122245" lon="121.01356283694759"><ele>13.0</ele><time>2026-05-02T13:31:58.016Z</time></trkpt><trkpt lat="14.54683950693163" lon="121.0134871130846"><ele>13.0</ele><time>2026-05-02T13:31:59.015Z</time></trkpt><trkpt lat="14.546963928299647" lon="121.0134194626725"><ele>13.0</ele><time>2026-05-02T13:32:00.013Z</time></trkpt><trkpt lat="14.547084329545203" lon="121.0133542267745"><ele>13.0</ele><time>2026-05-02T13:32:01.014Z</time></trkpt><trkpt lat="14.547254513192373" lon="121.01326248697295"><ele>11.666666666666666</ele><time>2026-05-02T13:32:02.015Z</time></trkpt><trkpt lat="14.547408523572763" lon="121.01317638542541"><ele>10.333333333333332</ele><time>2026-05-02T13:32:03.013Z</time></trkpt><trkpt lat="14.547518481828535" lon="121.0131175670573"><ele>9.0</ele><time>2026-05-02T13:32:04.014Z</time></trkpt><trkpt lat="14.547751304974046" lon="121.01299883886445"><ele>9.0</ele><time>2026-05-02T13:32:06.015Z</time></trkpt><trkpt lat="14.547874662087505" lon="121.01293702348624"><ele>9.0</ele><time>2026-05-02T13:32:07.015Z</time></trkpt><trkpt lat="14.5479988825647" lon="121.01287626441109"><ele>9.0</ele><time>2026-05-02T13:32:08.015Z</time></trkpt><trkpt lat="14.548106702308495" lon="121.01282003400172"><ele>9.0</ele><time>2026-05-02T13:32:09.015Z</time></trkpt><trkpt lat="14.548216903360982" lon="121.01276204104374"><ele>8.75</ele><time>2026-05-02T13:32:10.015Z</time></trkpt><trkpt lat="14.548330512510864" lon="121.01270104121004"><ele>8.5</ele><time>2026-05-02T13:32:11.015Z</time></trkpt><trkpt lat="14.548450604324799" lon="121.0126349980322"><ele>8.25</ele><time>2026-05-02T13:32:12.016Z</time></trkpt><trkpt lat="14.548566923676601" lon="121.01257129973801"><ele>8.0</ele><time>2026-05-02T13:32:13.014Z</time></trkpt><trkpt lat="14.548682863311134" lon="121.01250774281742"><ele>8.0</ele><time>2026-05-02T13:32:14.015Z</time></trkpt><trkpt lat="14.548804380578398" lon="121.0124403179333"><ele>8.0</ele><time>2026-05-02T13:32:15.015Z</time></trkpt><trkpt lat="14.548922998268434" lon="121.0123754341801"><ele>8.0</ele><time>2026-05-02T13:32:16.015Z</time></trkpt><trkpt lat="14.556063939619422" lon="121.00852552809062"><ele>7.5</ele><time>2026-05-02T13:34:20.001Z</time></trkpt><trkpt lat="14.556311170593201" lon="121.00847750169866"><ele>7.0</ele><time>2026-05-02T13:34:22.001Z</time></trkpt><trkpt lat="14.556382668765155" lon="121.0084303085151"><ele>6.5</ele><time>2026-05-02T13:34:23.001Z</time></trkpt><trkpt lat="14.556438804741413" lon="121.00833126546974"><ele>6.0</ele><time>2026-05-02T13:34:25Z</time></trkpt><trkpt lat="14.556501656027928" lon="121.00828645923262"><ele>8.0</ele><time>2026-05-02T13:34:26Z</time></trkpt><trkpt lat="14.55762538761471" lon="121.0071192111916"><ele>8.0</ele><time>2026-05-02T13:35:43Z</time></trkpt><trkpt lat="14.55756489672089" lon="121.00694904329536"><ele>8.0</ele><time>2026-05-02T13:35:47Z</time></trkpt><trkpt lat="14.557578079515137" lon="121.00684799932057"><ele>8.0</ele><time>2026-05-02T13:35:49Z</time></trkpt><trkpt lat="14.557670803241514" lon="121.0067663176466"><ele>8.0</ele><time>2026-05-02T13:35:50Z</time></trkpt><trkpt lat="14.557575258612742" lon="121.00675969225675"><ele>8.0</ele><time>2026-05-02T13:35:52Z</time></trkpt><trkpt lat="14.557353896090849" lon="121.00672776006932"><ele>8.0</ele><time>2026-05-02T13:35:53Z</time></trkpt><trkpt lat="14.557442726193004" lon="121.00673574016189"><ele>8.0</ele><time>2026-05-02T13:35:54Z</time></trkpt><trkpt lat="14.557511649664583" lon="121.00679030654686"><ele>8.0</ele><time>2026-05-02T13:35:56Z</time></trkpt><trkpt lat="14.557644016729979" lon="121.00671855121463"><ele>7.800000000000001</ele><time>2026-05-02T13:37:44Z</time></trkpt><trkpt lat="14.557632351940489" lon="121.00661341415176"><ele>7.6000000000000005</ele><time>2026-05-02T13:40:49Z</time></trkpt><trkpt lat="14.557514237480811" lon="121.00655375787434"><ele>7.3999999999999995</ele><time>2026-05-02T13:41:00Z</time></trkpt><trkpt lat="14.55745474406089" lon="121.00658126526216"><ele>7.199999999999999</ele><time>2026-05-02T13:41:03Z</time></trkpt><trkpt lat="14.557391538709476" lon="121.00657445831172"><ele>7.0</ele><time>2026-05-02T13:41:11Z</time></trkpt><trkpt lat="14.557289433567234" lon="121.0064318790259"><ele>7.0</ele><time>2026-05-02T13:41:18Z</time></trkpt><trkpt lat="14.557241886143867" lon="121.00634237305258"><ele>6.999999999999999</ele><time>2026-05-02T13:41:20Z</time></trkpt><trkpt lat="14.557193875595908" lon="121.00624874654761"><ele>6.999999999999999</ele><time>2026-05-02T13:41:22Z</time></trkpt><trkpt lat="14.557145914406819" lon="121.00615611112728"><ele>7.0</ele><time>2026-05-02T13:41:24Z</time></trkpt><trkpt lat="14.557097687871522" lon="121.00606638838974"><ele>7.0</ele><time>2026-05-02T13:41:26Z</time></trkpt><trkpt lat="14.557050483856177" lon="121.0059751552931"><ele>7.5</ele><time>2026-05-02T13:41:28Z</time></trkpt><trkpt lat="14.55699920334166" lon="121.00587493885236"><ele>8.0</ele><time>2026-05-02T13:41:30Z</time></trkpt><trkpt lat="14.55695716612765" lon="121.00575681835453"><ele>8.5</ele><time>2026-05-02T13:41:32Z</time></trkpt><trkpt lat="14.556862587776683" lon="121.0055648301077"><ele>9.0</ele><time>2026-05-02T13:41:35Z</time></trkpt><trkpt lat="14.55682808827732" lon="121.00549543747192"><ele>9.333333333333334</ele><time>2026-05-02T13:41:36Z</time></trkpt><trkpt lat="14.556795146321594" lon="121.00542917769943"><ele>9.666666666666666</ele><time>2026-05-02T13:41:37Z</time></trkpt><trkpt lat="14.556760381190387" lon="121.00535925076488"><ele>10.0</ele><time>2026-05-02T13:41:38Z</time></trkpt><trkpt lat="14.556723004818789" lon="121.00528407156007"><ele>10.333333333333332</ele><time>2026-05-02T13:41:39Z</time></trkpt><trkpt lat="14.556671351458267" lon="121.00521592165718"><ele>10.666666666666666</ele><time>2026-05-02T13:41:40Z</time></trkpt><trkpt lat="14.5566377890879" lon="121.00514053457883"><ele>11.0</ele><time>2026-05-02T13:41:41Z</time></trkpt><trkpt lat="14.55660497383487" lon="121.00506515000538"><ele>10.833333333333332</ele><time>2026-05-02T13:41:42Z</time></trkpt><trkpt lat="14.556573489579137" lon="121.00499175828575"><ele>10.666666666666666</ele><time>2026-05-02T13:41:43Z</time></trkpt><trkpt lat="14.55654934445116" lon="121.00490620005533"><ele>10.5</ele><time>2026-05-02T13:41:44Z</time></trkpt><trkpt lat="14.556512979076995" lon="121.00482885182876"><ele>10.333333333333334</ele><time>2026-05-02T13:41:45Z</time></trkpt><trkpt lat="14.556480412007362" lon="121.00474940529404"><ele>10.166666666666668</ele><time>2026-05-02T13:41:46Z</time></trkpt><trkpt lat="14.556433851738818" lon="121.00466140070482"><ele>10.0</ele><time>2026-05-02T13:41:47Z</time></trkpt><trkpt lat="14.55639682588415" lon="121.00457839538487"><ele>10.0</ele><time>2026-05-02T13:41:48Z</time></trkpt><trkpt lat="14.556358048931566" lon="121.0044998186776"><ele>10.0</ele><time>2026-05-02T13:41:49Z</time></trkpt><trkpt lat="14.556321519641934" lon="121.00442053775328"><ele>10.0</ele><time>2026-05-02T13:41:50Z</time></trkpt><trkpt lat="14.55629155675645" lon="121.00434896461984"><ele>10.0</ele><time>2026-05-02T13:41:51Z</time></trkpt><trkpt lat="14.556260478681134" lon="121.00427795263772"><ele>10.0</ele><time>2026-05-02T13:41:52Z</time></trkpt><trkpt lat="14.556230279643739" lon="121.0042083492618"><ele>10.0</ele><time>2026-05-02T13:41:53Z</time></trkpt><trkpt lat="14.556181681563446" lon="121.0040797627892"><ele>9.5</ele><time>2026-05-02T13:41:55Z</time></trkpt><trkpt lat="14.55614103072691" lon="121.00396998020781"><ele>9.0</ele><time>2026-05-02T13:41:57Z</time></trkpt><trkpt lat="14.556108815457291" lon="121.00387726141545"><ele>8.5</ele><time>2026-05-02T13:41:59Z</time></trkpt><trkpt lat="14.556080738486612" lon="121.00381198293178"><ele>8.0</ele><time>2026-05-02T13:42:01Z</time></trkpt><trkpt lat="14.556062237849668" lon="121.00373554389313"><ele>7.500000000000001</ele><time>2026-05-02T13:42:05Z</time></trkpt><trkpt lat="14.555993700657854" lon="121.00369666841556"><ele>7.0</ele><time>2026-05-02T13:50:36.001Z</time></trkpt><trkpt lat="14.555935355187755" lon="121.00349875377587"><ele>7.0</ele><time>2026-05-02T13:50:40.001Z</time></trkpt><trkpt lat="14.55591106001594" lon="121.00343454509883"><ele>7.0</ele><time>2026-05-02T13:50:42.001Z</time></trkpt><trkpt lat="14.555882373111043" lon="121.00335358938041"><ele>7.0</ele><time>2026-05-02T13:50:44.001Z</time></trkpt><trkpt lat="14.555854467279321" lon="121.0032759432891"><ele>7.0</ele><time>2026-05-02T13:50:45.001Z</time></trkpt><trkpt lat="14.555830996703591" lon="121.00321063799731"><ele>7.0</ele><time>2026-05-02T13:50:46.001Z</time></trkpt><trkpt lat="14.55580740240411" lon="121.0031449884523"><ele>7.0</ele><time>2026-05-02T13:50:47.001Z</time></trkpt><trkpt lat="14.555779859177585" lon="121.00306557582829"><ele>7.0</ele><time>2026-05-02T13:50:48.001Z</time></trkpt><trkpt lat="14.555792499616294" lon="121.00299963165486"><ele>7.0</ele><time>2026-05-02T13:50:49.001Z</time></trkpt><trkpt lat="14.555783604576385" lon="121.00291405497535"><ele>6.999999999999999</ele><time>2026-05-02T13:50:51.001Z</time></trkpt><trkpt lat="14.555753197069004" lon="121.0028317966386"><ele>6.999999999999999</ele><time>2026-05-02T13:50:53.001Z</time></trkpt><trkpt lat="14.55571822071859" lon="121.00274211075308"><ele>7.0</ele><time>2026-05-02T13:50:56.001Z</time></trkpt><trkpt lat="14.555687474819567" lon="121.00266384501916"><ele>7.0</ele><time>2026-05-02T13:50:58.001Z</time></trkpt><trkpt lat="14.55563534282045" lon="121.00251218686047"><ele>7.75</ele><time>2026-05-02T13:51:25Z</time></trkpt><trkpt lat="14.555617520687555" lon="121.00242927962118"><ele>8.5</ele><time>2026-05-02T13:51:27Z</time></trkpt><trkpt lat="14.55554952392803" lon="121.00222026040922"><ele>9.25</ele><time>2026-05-02T13:51:31Z</time></trkpt><trkpt lat="14.55550163795195" lon="121.00212217748914"><ele>10.0</ele><time>2026-05-02T13:51:33Z</time></trkpt><trkpt lat="14.555453702281103" lon="121.00203653335585"><ele>10.0</ele><time>2026-05-02T13:51:35Z</time></trkpt><trkpt lat="14.5554157608019" lon="121.0018869431287"><ele>10.0</ele><time>2026-05-02T13:51:37Z</time></trkpt><trkpt lat="14.55539768837008" lon="121.00182457452134"><ele>10.0</ele><time>2026-05-02T13:51:38Z</time></trkpt><trkpt lat="14.555378198395735" lon="121.00175920116631"><ele>10.0</ele><time>2026-05-02T13:51:39Z</time></trkpt><trkpt lat="14.555377155569746" lon="121.00168894928022"><ele>10.0</ele><time>2026-05-02T13:51:40Z</time></trkpt><trkpt lat="14.55534502857894" lon="121.0015550226405"><ele>9.666666666666668</ele><time>2026-05-02T13:51:42Z</time></trkpt><trkpt lat="14.555327179958736" lon="121.00148061773511"><ele>9.333333333333334</ele><time>2026-05-02T13:51:43Z</time></trkpt><trkpt lat="14.555307777790658" lon="121.00139973660924"><ele>9.0</ele><time>2026-05-02T13:51:44Z</time></trkpt><trkpt lat="14.55528815706316" lon="121.00131794438184"><ele>8.666666666666666</ele><time>2026-05-02T13:51:45Z</time></trkpt><trkpt lat="14.555247663770068" lon="121.0012435433404"><ele>8.333333333333332</ele><time>2026-05-02T13:51:46Z</time></trkpt><trkpt lat="14.55521121359968" lon="121.00113499259075"><ele>8.0</ele><time>2026-05-02T13:51:47Z</time></trkpt><trkpt lat="14.55518724938809" lon="121.00104984518163"><ele>8.0</ele><time>2026-05-02T13:51:48Z</time></trkpt><trkpt lat="14.55514241290629" lon="121.0008581146575"><ele>8.0</ele><time>2026-05-02T13:51:50Z</time></trkpt><trkpt lat="14.555124473763561" lon="121.00076004352249"><ele>8.0</ele><time>2026-05-02T13:51:51Z</time></trkpt><trkpt lat="14.555102155882631" lon="121.00066885592838"><ele>8.0</ele><time>2026-05-02T13:51:52Z</time></trkpt><trkpt lat="14.555082258695915" lon="121.00058460753768"><ele>7.800000000000001</ele><time>2026-05-02T13:51:53Z</time></trkpt><trkpt lat="14.555061591503057" lon="121.00050228965603"><ele>7.6000000000000005</ele><time>2026-05-02T13:51:54Z</time></trkpt><trkpt lat="14.555035928599134" lon="121.00041778576184"><ele>7.3999999999999995</ele><time>2026-05-02T13:51:55Z</time></trkpt><trkpt lat="14.554984814998688" lon="121.00026783525561"><ele>7.199999999999999</ele><time>2026-05-02T13:51:57Z</time></trkpt><trkpt lat="14.554959237081013" lon="121.00018630548966"><ele>7.0</ele><time>2026-05-02T13:51:58Z</time></trkpt><trkpt lat="14.554946481532522" lon="121.00010449824889"><ele>7.000000000000001</ele><time>2026-05-02T13:51:59Z</time></trkpt><trkpt lat="14.554937800748291" lon="121.00003236192316"><ele>7.0</ele><time>2026-05-02T13:52:00Z</time></trkpt><trkpt lat="14.554922271137626" lon="120.99996223843878"><ele>7.0</ele><time>2026-05-02T13:52:01Z</time></trkpt><trkpt lat="14.554906354799595" lon="120.99989903998305"><ele>7.0</ele><time>2026-05-02T13:52:02Z</time></trkpt><trkpt lat="14.554875090673265" lon="120.9997882998467"><ele>7.000000000000001</ele><time>2026-05-02T13:52:04Z</time></trkpt><trkpt lat="14.55485812017507" lon="120.99972537566767"><ele>7.0</ele><time>2026-05-02T13:52:07Z</time></trkpt><trkpt lat="14.554842137725046" lon="120.99965185737246"><ele>7.0</ele><time>2026-05-02T13:52:09Z</time></trkpt><trkpt lat="14.554782793507698" lon="120.9994650653322"><ele>7.0</ele><time>2026-05-02T13:52:13Z</time></trkpt><trkpt lat="14.554740809212667" lon="120.9993362051585"><ele>7.0</ele><time>2026-05-02T13:52:15Z</time></trkpt><trkpt lat="14.554722459050904" lon="120.99926654837046"><ele>7.0</ele><time>2026-05-02T13:52:16Z</time></trkpt><trkpt lat="14.554704259711642" lon="120.9991885174501"><ele>7.199999999999999</ele><time>2026-05-02T13:52:17Z</time></trkpt><trkpt lat="14.554686450003453" lon="120.99910904384359"><ele>7.3999999999999995</ele><time>2026-05-02T13:52:18Z</time></trkpt><trkpt lat="14.554662306837251" lon="120.9990152088758"><ele>7.6000000000000005</ele><time>2026-05-02T13:52:19Z</time></trkpt><trkpt lat="14.554636702846292" lon="120.9989224598897"><ele>7.800000000000001</ele><time>2026-05-02T13:52:20Z</time></trkpt><trkpt lat="14.554611723208081" lon="120.99882997306361"><ele>8.0</ele><time>2026-05-02T13:52:21Z</time></trkpt><trkpt lat="14.55458661994549" lon="120.99873798814083"><ele>8.0</ele><time>2026-05-02T13:52:22Z</time></trkpt><trkpt lat="14.55456213175499" lon="120.99864287818728"><ele>8.0</ele><time>2026-05-02T13:52:23Z</time></trkpt><trkpt lat="14.55453896627393" lon="120.9985469050174"><ele>8.0</ele><time>2026-05-02T13:52:24Z</time></trkpt><trkpt lat="14.55451220568003" lon="120.99844940266566"><ele>8.0</ele><time>2026-05-02T13:52:25Z</time></trkpt><trkpt lat="14.554485983766964" lon="120.99836267481082"><ele>8.0</ele><time>2026-05-02T13:52:26.001Z</time></trkpt><trkpt lat="14.554463408045516" lon="120.99827175876878"><ele>7.75</ele><time>2026-05-02T13:52:27.001Z</time></trkpt><trkpt lat="14.554440682383685" lon="120.99816432198871"><ele>7.5</ele><time>2026-05-02T13:52:28.001Z</time></trkpt><trkpt lat="14.554419746123417" lon="120.9980697502345"><ele>7.25</ele><time>2026-05-02T13:52:29.001Z</time></trkpt><trkpt lat="14.554398738747267" lon="120.99797631163862"><ele>7.0</ele><time>2026-05-02T13:52:30.001Z</time></trkpt><trkpt lat="14.554356520819011" lon="120.99779556492983"><ele>7.000000000000001</ele><time>2026-05-02T13:52:32.001Z</time></trkpt><trkpt lat="14.554335401771038" lon="120.99770809338098"><ele>7.0</ele><time>2026-05-02T13:52:33.001Z</time></trkpt><trkpt lat="14.554314895543074" lon="120.99762681296767"><ele>7.0</ele><time>2026-05-02T13:52:34.001Z</time></trkpt><trkpt lat="14.554293687947554" lon="120.99755021918438"><ele>7.0</ele><time>2026-05-02T13:52:35.001Z</time></trkpt><trkpt lat="14.554273935419987" lon="120.99747330671373"><ele>7.000000000000001</ele><time>2026-05-02T13:52:36.001Z</time></trkpt><trkpt lat="14.55425700252632" lon="120.99740337322596"><ele>7.0</ele><time>2026-05-02T13:52:37.001Z</time></trkpt><trkpt lat="14.554245723732736" lon="120.9973045357637"><ele>6.666666666666667</ele><time>2026-05-02T13:52:39.001Z</time></trkpt><trkpt lat="14.554249927477917" lon="120.99722361002368"><ele>6.333333333333334</ele><time>2026-05-02T13:52:42.001Z</time></trkpt><trkpt lat="14.554263162296852" lon="120.99715464609169"><ele>6.0</ele><time>2026-05-02T13:52:47.001Z</time></trkpt><trkpt lat="14.55456948557527" lon="120.99698726214974"><ele>6.75</ele><time>2026-05-02T13:53:07.001Z</time></trkpt><trkpt lat="14.554758694637975" lon="120.99689950391995"><ele>7.5</ele><time>2026-05-02T13:53:09.001Z</time></trkpt><trkpt lat="14.554850195717146" lon="120.99687484440591"><ele>8.25</ele><time>2026-05-02T13:53:10.001Z</time></trkpt><trkpt lat="14.554964406734445" lon="120.99696027972414"><ele>9.0</ele><time>2026-05-02T13:53:11.001Z</time></trkpt><trkpt lat="14.555059621876834" lon="120.9969396252374"><ele>9.0</ele><time>2026-05-02T13:53:12.001Z</time></trkpt><trkpt lat="14.555198405104306" lon="120.99693359000848"><ele>9.0</ele><time>2026-05-02T13:53:13.001Z</time></trkpt><trkpt lat="14.555320634218768" lon="120.99691662197633"><ele>9.0</ele><time>2026-05-02T13:53:15.001Z</time></trkpt><trkpt lat="14.555405568648407" lon="120.99690047294548"><ele>9.0</ele><time>2026-05-02T13:53:18Z</time></trkpt><trkpt lat="14.555499938424271" lon="120.99688074151287"><ele>9.0</ele><time>2026-05-02T13:53:20.001Z</time></trkpt><trkpt lat="14.555581233279064" lon="120.99686688566123"><ele>9.0</ele><time>2026-05-02T13:53:23.001Z</time></trkpt><trkpt lat="14.555657588210972" lon="120.99684699398927"><ele>9.0</ele><time>2026-05-02T13:53:28Z</time></trkpt><trkpt lat="14.555809721109606" lon="120.99680575096524"><ele>9.0</ele><time>2026-05-02T13:53:33Z</time></trkpt><trkpt lat="14.555888508738278" lon="120.99678827375227"><ele>9.0</ele><time>2026-05-02T13:53:35Z</time></trkpt><trkpt lat="14.555971666503707" lon="120.99677511997338"><ele>9.0</ele><time>2026-05-02T13:53:37Z</time></trkpt><trkpt lat="14.556067678445947" lon="120.99673713020042"><ele>9.0</ele><time>2026-05-02T13:53:39Z</time></trkpt><trkpt lat="14.55619137887059" lon="120.9967074416061"><ele>9.0</ele><time>2026-05-02T13:53:41Z</time></trkpt><trkpt lat="14.556305289746676" lon="120.99667299249104"><ele>9.0</ele><time>2026-05-02T13:53:43Z</time></trkpt><trkpt lat="14.556365956852536" lon="120.99665503238879"><ele>9.0</ele><time>2026-05-02T13:53:44Z</time></trkpt><trkpt lat="14.556433260385498" lon="120.99663979770105"><ele>9.0</ele><time>2026-05-02T13:53:45Z</time></trkpt><trkpt lat="14.5564968533063" lon="120.99662002463035"><ele>9.0</ele><time>2026-05-02T13:53:46Z</time></trkpt><trkpt lat="14.55656572241328" lon="120.99660117932606"><ele>8.833333333333334</ele><time>2026-05-02T13:53:47Z</time></trkpt><trkpt lat="14.556631252360953" lon="120.99657967177052"><ele>8.666666666666666</ele><time>2026-05-02T13:53:48Z</time></trkpt><trkpt lat="14.55670252776051" lon="120.99656465455404"><ele>8.5</ele><time>2026-05-02T13:53:49Z</time></trkpt><trkpt lat="14.55683714896647" lon="120.99653053946469"><ele>8.333333333333332</ele><time>2026-05-02T13:53:51Z</time></trkpt><trkpt lat="14.556903638835431" lon="120.99651291722398"><ele>8.166666666666666</ele><time>2026-05-02T13:53:52Z</time></trkpt><trkpt lat="14.556984041197595" lon="120.99651102857314"><ele>8.0</ele><time>2026-05-02T13:53:53Z</time></trkpt><trkpt lat="14.557055414077594" lon="120.99647694116835"><ele>8.5</ele><time>2026-05-02T13:53:54Z</time></trkpt><trkpt lat="14.557126334580543" lon="120.99646432206461"><ele>9.0</ele><time>2026-05-02T13:53:55Z</time></trkpt><trkpt lat="14.557207513386789" lon="120.99644398071923"><ele>9.5</ele><time>2026-05-02T13:53:56Z</time></trkpt><trkpt lat="14.557286803762318" lon="120.99642385190855"><ele>10.0</ele><time>2026-05-02T13:53:57Z</time></trkpt><trkpt lat="14.557386202086754" lon="120.99640194365881"><ele>10.5</ele><time>2026-05-02T13:53:58Z</time></trkpt><trkpt lat="14.557471767056555" lon="120.99639683505197"><ele>11.0</ele><time>2026-05-02T13:53:59Z</time></trkpt><trkpt lat="14.557551435429781" lon="120.99637973232099"><ele>11.0</ele><time>2026-05-02T13:54:00Z</time></trkpt><trkpt lat="14.557630187814514" lon="120.9963464782647"><ele>11.0</ele><time>2026-05-02T13:54:01Z</time></trkpt><trkpt lat="14.557715353920601" lon="120.99633089432966"><ele>11.0</ele><time>2026-05-02T13:54:02Z</time></trkpt><trkpt lat="14.557800680689018" lon="120.99631075129797"><ele>11.0</ele><time>2026-05-02T13:54:03Z</time></trkpt><trkpt lat="14.557882074390424" lon="120.9962932692504"><ele>11.0</ele><time>2026-05-02T13:54:04Z</time></trkpt><trkpt lat="14.557962476193987" lon="120.99628104140373"><ele>11.0</ele><time>2026-05-02T13:54:05Z</time></trkpt><trkpt lat="14.55803864492611" lon="120.99627809756787"><ele>10.5</ele><time>2026-05-02T13:54:06Z</time></trkpt><trkpt lat="14.558102818231074" lon="120.99627426813684"><ele>10.0</ele><time>2026-05-02T13:54:07Z</time></trkpt><trkpt lat="14.558202848029234" lon="120.99626592590707"><ele>9.5</ele><time>2026-05-02T13:54:09Z</time></trkpt><trkpt lat="14.558256733104521" lon="120.99621846913345"><ele>9.0</ele><time>2026-05-02T13:54:17.001Z</time></trkpt><trkpt lat="14.558125526494225" lon="120.99603701574085"><ele>9.0</ele><time>2026-05-02T13:54:51.001Z</time></trkpt><trkpt lat="14.5580796186698" lon="120.99599150532923"><ele>9.0</ele><time>2026-05-02T13:54:55.001Z</time></trkpt><trkpt lat="14.55803270636388" lon="120.99592375037554"><ele>9.0</ele><time>2026-05-02T13:54:59.001Z</time></trkpt><trkpt lat="14.558005178141382" lon="120.99583351087634"><ele>9.0</ele><time>2026-05-02T13:55:02.082Z</time></trkpt><trkpt lat="14.55802007338652" lon="120.99542985964307"><ele>9.0</ele><time>2026-05-02T13:58:42.002Z</time></trkpt><trkpt lat="14.558319590956001" lon="120.99532296779452"><ele>9.0</ele><time>2026-05-02T13:58:43.002Z</time></trkpt><trkpt lat="14.558175003081184" lon="120.99536161535694"><ele>9.0</ele><time>2026-05-02T13:59:02.001Z</time></trkpt><trkpt lat="14.55810867099303" lon="120.99536921824682"><ele>9.0</ele><time>2026-05-02T13:59:12Z</time></trkpt><trkpt lat="14.557972955290426" lon="120.99532647391158"><ele>9.0</ele><time>2026-05-02T13:59:20Z</time></trkpt><trkpt lat="14.55789855507812" lon="120.99532460634215"><ele>9.0</ele><time>2026-05-02T13:59:23Z</time></trkpt><trkpt lat="14.557832504588815" lon="120.99534054460572"><ele>9.0</ele><time>2026-05-02T13:59:26Z</time></trkpt><trkpt lat="14.557746034148467" lon="120.99534563143695"><ele>9.0</ele><time>2026-05-02T13:59:29Z</time></trkpt><trkpt lat="14.557652943994887" lon="120.99535720450503"><ele>8.833333333333334</ele><time>2026-05-02T13:59:32Z</time></trkpt><trkpt lat="14.557729630146875" lon="120.9953462838229"><ele>8.666666666666666</ele><time>2026-05-02T13:59:34Z</time></trkpt><trkpt lat="14.557598871666414" lon="120.99529499033225"><ele>8.5</ele><time>2026-05-02T13:59:48.077Z</time></trkpt><trkpt lat="14.557553738081024" lon="120.9953550074598"><ele>8.333333333333332</ele><time>2026-05-02T13:59:51.077Z</time></trkpt><trkpt lat="14.557514467103301" lon="120.99540833418244"><ele>8.166666666666666</ele><time>2026-05-02T13:59:53.073Z</time></trkpt><trkpt lat="14.557455488386609" lon="120.99543695913924"><ele>8.0</ele><time>2026-05-02T13:59:55.079Z</time></trkpt><trkpt lat="14.557386516549053" lon="120.99544237837382"><ele>8.0</ele><time>2026-05-02T13:59:59.076Z</time></trkpt><trkpt lat="14.557307074700674" lon="120.99544296046372"><ele>8.0</ele><time>2026-05-02T14:00:04.075Z</time></trkpt><trkpt lat="14.557254973769366" lon="120.99548614191973"><ele>8.0</ele><time>2026-05-02T14:00:06.075Z</time></trkpt><trkpt lat="14.557175872818286" lon="120.995541137502"><ele>8.0</ele><time>2026-05-02T14:00:09.073Z</time></trkpt><trkpt lat="14.557053765788343" lon="120.99568238280146"><ele>8.0</ele><time>2026-05-02T14:00:12.07Z</time></trkpt><trkpt lat="14.557001997421201" lon="120.99572738130836"><ele>8.0</ele><time>2026-05-02T14:00:14.061Z</time></trkpt><trkpt lat="14.557796142471135" lon="120.99541952801654"><ele>8.0</ele><time>2026-05-02T14:08:00.057Z</time></trkpt><trkpt lat="14.557949684083498" lon="120.99534890233798"><ele>8.0</ele><time>2026-05-02T14:16:44.006Z</time></trkpt><trkpt lat="14.557898889930144" lon="120.995379600477"><ele>8.0</ele><time>2026-05-02T14:17:48.008Z</time></trkpt><trkpt lat="14.557852669387028" lon="120.99545627602492"><ele>8.0</ele><time>2026-05-02T14:20:39.216Z</time></trkpt><trkpt lat="14.558575143489266" lon="120.99438493664769"><ele>9.0</ele><time>2026-05-02T14:20:45.383Z</time></trkpt><trkpt lat="14.559090790368044" lon="120.99477427832078"><ele>9.0</ele><time>2026-05-02T14:21:09.38Z</time></trkpt></trkseg></trk></gpx>